<?xml version="1.0" encoding="UTF-8" standalone="no" ?>
<gpx xmlns="http://www.topografix.com/GPX/1/1" creator="MapSource 6.14.1" version="1.1" xmlns:xsi="http://www.w3.org/2001/XMLSchema-instance" xsi:schemaLocation="http://www.garmin.com/xmlschemas/GpxExtensions/v3 http://www.garmin.com/xmlschemas/GpxExtensionsv3.xsd http://www.topografix.com/GPX/1/1 http://www.topografix.com/GPX/1/1/gpx.xsd">

  <metadata>
    <link href="http://www.garmin.com">
      <text>Garmin International</text>
    </link>
    <time>2010-05-09T11:51:57Z</time>
    <bounds maxlat="35.3204496" maxlon="24.4639124" minlat="35.2899958" minlon="24.4207610"/>
  </metadata>

  <trk>
    <name>2010-05-03T06:37:30Z</name>
    <extensions>
      <gpxx:TrackExtension xmlns:gpxx="http://www.garmin.com/xmlschemas/GpxExtensions/v3">
        <gpxx:DisplayColor>White</gpxx:DisplayColor>
      </gpxx:TrackExtension>
    </extensions>
    <trkseg>
      <trkpt lat="35.3169226" lon="24.4633721">
        <ele>352.9411621</ele>
        <time>2010-05-03T06:37:30Z</time>
      </trkpt>
      <trkpt lat="35.3168560" lon="24.4633654">
        <ele>353.9025879</ele>
        <time>2010-05-03T06:37:37Z</time>
      </trkpt>
      <trkpt lat="35.3168171" lon="24.4633221">
        <ele>353.9025879</ele>
        <time>2010-05-03T06:37:42Z</time>
      </trkpt>
      <trkpt lat="35.3167857" lon="24.4632659">
        <ele>351.9798584</ele>
        <time>2010-05-03T06:37:52Z</time>
      </trkpt>
      <trkpt lat="35.3167619" lon="24.4632369">
        <ele>350.5378418</ele>
        <time>2010-05-03T06:37:59Z</time>
      </trkpt>
      <trkpt lat="35.3167332" lon="24.4632202">
        <ele>350.0572510</ele>
        <time>2010-05-03T06:38:05Z</time>
      </trkpt>
      <trkpt lat="35.3166801" lon="24.4631701">
        <ele>350.5378418</ele>
        <time>2010-05-03T06:38:13Z</time>
      </trkpt>
      <trkpt lat="35.3166800" lon="24.4631740">
        <ele>350.0572510</ele>
        <time>2010-05-03T06:38:27Z</time>
      </trkpt>
      <trkpt lat="35.3166749" lon="24.4631602">
        <ele>351.0184326</ele>
        <time>2010-05-03T06:38:46Z</time>
      </trkpt>
      <trkpt lat="35.3166961" lon="24.4631764">
        <ele>351.9798584</ele>
        <time>2010-05-03T06:38:58Z</time>
      </trkpt>
      <trkpt lat="35.3167318" lon="24.4632071">
        <ele>350.5378418</ele>
        <time>2010-05-03T06:39:07Z</time>
      </trkpt>
      <trkpt lat="35.3167399" lon="24.4632121">
        <ele>350.0572510</ele>
        <time>2010-05-03T06:39:18Z</time>
      </trkpt>
      <trkpt lat="35.3167784" lon="24.4632275">
        <ele>350.0572510</ele>
        <time>2010-05-03T06:39:32Z</time>
      </trkpt>
      <trkpt lat="35.3168272" lon="24.4633036">
        <ele>350.0572510</ele>
        <time>2010-05-03T06:39:40Z</time>
      </trkpt>
      <trkpt lat="35.3168977" lon="24.4633602">
        <ele>350.0572510</ele>
        <time>2010-05-03T06:39:49Z</time>
      </trkpt>
      <trkpt lat="35.3169629" lon="24.4633561">
        <ele>350.5378418</ele>
        <time>2010-05-03T06:39:56Z</time>
      </trkpt>
      <trkpt lat="35.3170378" lon="24.4633591">
        <ele>350.5378418</ele>
        <time>2010-05-03T06:40:04Z</time>
      </trkpt>
      <trkpt lat="35.3171074" lon="24.4633605">
        <ele>350.5378418</ele>
        <time>2010-05-03T06:40:13Z</time>
      </trkpt>
      <trkpt lat="35.3171176" lon="24.4633663">
        <ele>350.5378418</ele>
        <time>2010-05-03T06:40:21Z</time>
      </trkpt>
      <trkpt lat="35.3171688" lon="24.4633648">
        <ele>350.5378418</ele>
        <time>2010-05-03T06:40:29Z</time>
      </trkpt>
      <trkpt lat="35.3172099" lon="24.4633757">
        <ele>351.0184326</ele>
        <time>2010-05-03T06:40:36Z</time>
      </trkpt>
      <trkpt lat="35.3172727" lon="24.4633730">
        <ele>351.0184326</ele>
        <time>2010-05-03T06:40:44Z</time>
      </trkpt>
      <trkpt lat="35.3172831" lon="24.4633642">
        <ele>351.0184326</ele>
        <time>2010-05-03T06:40:51Z</time>
      </trkpt>
      <trkpt lat="35.3172712" lon="24.4633444">
        <ele>352.9411621</ele>
        <time>2010-05-03T06:41:03Z</time>
      </trkpt>
      <trkpt lat="35.3172743" lon="24.4633120">
        <ele>352.4605713</ele>
        <time>2010-05-03T06:41:18Z</time>
      </trkpt>
      <trkpt lat="35.3172772" lon="24.4633301">
        <ele>352.4605713</ele>
        <time>2010-05-03T06:41:44Z</time>
      </trkpt>
      <trkpt lat="35.3172923" lon="24.4633392">
        <ele>352.9411621</ele>
        <time>2010-05-03T06:41:59Z</time>
      </trkpt>
      <trkpt lat="35.3173519" lon="24.4633389">
        <ele>352.4605713</ele>
        <time>2010-05-03T06:42:07Z</time>
      </trkpt>
      <trkpt lat="35.3174092" lon="24.4633400">
        <ele>353.9025879</ele>
        <time>2010-05-03T06:42:17Z</time>
      </trkpt>
      <trkpt lat="35.3174511" lon="24.4633498">
        <ele>352.4605713</ele>
        <time>2010-05-03T06:42:25Z</time>
      </trkpt>
      <trkpt lat="35.3174921" lon="24.4633518">
        <ele>352.4605713</ele>
        <time>2010-05-03T06:42:32Z</time>
      </trkpt>
      <trkpt lat="35.3175109" lon="24.4633427">
        <ele>353.9025879</ele>
        <time>2010-05-03T06:42:41Z</time>
      </trkpt>
      <trkpt lat="35.3175544" lon="24.4633037">
        <ele>356.3057861</ele>
        <time>2010-05-03T06:42:52Z</time>
      </trkpt>
      <trkpt lat="35.3176128" lon="24.4633374">
        <ele>355.8251953</ele>
        <time>2010-05-03T06:42:59Z</time>
      </trkpt>
      <trkpt lat="35.3176306" lon="24.4632852">
        <ele>359.1896973</ele>
        <time>2010-05-03T06:43:06Z</time>
      </trkpt>
      <trkpt lat="35.3176845" lon="24.4632551">
        <ele>360.6317139</ele>
        <time>2010-05-03T06:43:14Z</time>
      </trkpt>
      <trkpt lat="35.3177607" lon="24.4631948">
        <ele>360.1511230</ele>
        <time>2010-05-03T06:43:26Z</time>
      </trkpt>
      <trkpt lat="35.3178143" lon="24.4631810">
        <ele>358.7089844</ele>
        <time>2010-05-03T06:43:33Z</time>
      </trkpt>
      <trkpt lat="35.3178702" lon="24.4631825">
        <ele>358.7089844</ele>
        <time>2010-05-03T06:43:40Z</time>
      </trkpt>
      <trkpt lat="35.3178821" lon="24.4631795">
        <ele>357.2670898</ele>
        <time>2010-05-03T06:43:47Z</time>
      </trkpt>
      <trkpt lat="35.3179081" lon="24.4631859">
        <ele>357.7478027</ele>
        <time>2010-05-03T06:43:53Z</time>
      </trkpt>
      <trkpt lat="35.3179572" lon="24.4631970">
        <ele>358.7089844</ele>
        <time>2010-05-03T06:44:00Z</time>
      </trkpt>
      <trkpt lat="35.3179761" lon="24.4632053">
        <ele>359.1896973</ele>
        <time>2010-05-03T06:44:05Z</time>
      </trkpt>
      <trkpt lat="35.3179811" lon="24.4632115">
        <ele>358.7089844</ele>
        <time>2010-05-03T06:44:13Z</time>
      </trkpt>
      <trkpt lat="35.3179972" lon="24.4631788">
        <ele>356.7863770</ele>
        <time>2010-05-03T06:44:26Z</time>
      </trkpt>
      <trkpt lat="35.3180186" lon="24.4631440">
        <ele>356.3057861</ele>
        <time>2010-05-03T06:44:33Z</time>
      </trkpt>
      <trkpt lat="35.3180372" lon="24.4631349">
        <ele>356.7863770</ele>
        <time>2010-05-03T06:44:42Z</time>
      </trkpt>
      <trkpt lat="35.3180885" lon="24.4630937">
        <ele>358.2283936</ele>
        <time>2010-05-03T06:44:51Z</time>
      </trkpt>
      <trkpt lat="35.3181575" lon="24.4630603">
        <ele>358.2283936</ele>
        <time>2010-05-03T06:44:59Z</time>
      </trkpt>
      <trkpt lat="35.3182140" lon="24.4630240">
        <ele>360.1511230</ele>
        <time>2010-05-03T06:45:08Z</time>
      </trkpt>
      <trkpt lat="35.3182658" lon="24.4629654">
        <ele>360.1511230</ele>
        <time>2010-05-03T06:45:16Z</time>
      </trkpt>
      <trkpt lat="35.3183034" lon="24.4629383">
        <ele>359.1896973</ele>
        <time>2010-05-03T06:45:23Z</time>
      </trkpt>
      <trkpt lat="35.3183411" lon="24.4628998">
        <ele>358.7089844</ele>
        <time>2010-05-03T06:45:30Z</time>
      </trkpt>
      <trkpt lat="35.3183633" lon="24.4629166">
        <ele>359.1896973</ele>
        <time>2010-05-03T06:45:38Z</time>
      </trkpt>
      <trkpt lat="35.3184034" lon="24.4628903">
        <ele>358.7089844</ele>
        <time>2010-05-03T06:45:46Z</time>
      </trkpt>
      <trkpt lat="35.3184238" lon="24.4628520">
        <ele>359.1896973</ele>
        <time>2010-05-03T06:45:53Z</time>
      </trkpt>
      <trkpt lat="35.3184502" lon="24.4628224">
        <ele>358.2283936</ele>
        <time>2010-05-03T06:46:01Z</time>
      </trkpt>
      <trkpt lat="35.3184906" lon="24.4627707">
        <ele>358.7089844</ele>
        <time>2010-05-03T06:46:08Z</time>
      </trkpt>
      <trkpt lat="35.3185225" lon="24.4627575">
        <ele>359.1896973</ele>
        <time>2010-05-03T06:46:15Z</time>
      </trkpt>
      <trkpt lat="35.3185418" lon="24.4627390">
        <ele>359.6704102</ele>
        <time>2010-05-03T06:46:24Z</time>
      </trkpt>
      <trkpt lat="35.3185934" lon="24.4627209">
        <ele>361.1124268</ele>
        <time>2010-05-03T06:46:31Z</time>
      </trkpt>
      <trkpt lat="35.3186602" lon="24.4627202">
        <ele>361.1124268</ele>
        <time>2010-05-03T06:46:40Z</time>
      </trkpt>
      <trkpt lat="35.3186667" lon="24.4627328">
        <ele>361.1124268</ele>
        <time>2010-05-03T06:46:46Z</time>
      </trkpt>
      <trkpt lat="35.3186794" lon="24.4627290">
        <ele>361.5931396</ele>
        <time>2010-05-03T06:47:03Z</time>
      </trkpt>
      <trkpt lat="35.3186962" lon="24.4627515">
        <ele>362.5543213</ele>
        <time>2010-05-03T06:47:14Z</time>
      </trkpt>
      <trkpt lat="35.3186962" lon="24.4627463">
        <ele>364.9576416</ele>
        <time>2010-05-03T06:47:37Z</time>
      </trkpt>
      <trkpt lat="35.3187080" lon="24.4627360">
        <ele>366.3995361</ele>
        <time>2010-05-03T06:47:46Z</time>
      </trkpt>
      <trkpt lat="35.3186889" lon="24.4627297">
        <ele>363.0350342</ele>
        <time>2010-05-03T06:48:00Z</time>
      </trkpt>
      <trkpt lat="35.3186894" lon="24.4626945">
        <ele>359.1896973</ele>
        <time>2010-05-03T06:48:16Z</time>
      </trkpt>
      <trkpt lat="35.3186754" lon="24.4627120">
        <ele>357.7478027</ele>
        <time>2010-05-03T06:48:35Z</time>
      </trkpt>
      <trkpt lat="35.3186596" lon="24.4627112">
        <ele>357.7478027</ele>
        <time>2010-05-03T06:48:41Z</time>
      </trkpt>
      <trkpt lat="35.3186358" lon="24.4627115">
        <ele>357.2670898</ele>
        <time>2010-05-03T06:48:49Z</time>
      </trkpt>
      <trkpt lat="35.3185863" lon="24.4627308">
        <ele>356.7863770</ele>
        <time>2010-05-03T06:48:56Z</time>
      </trkpt>
      <trkpt lat="35.3185217" lon="24.4627875">
        <ele>355.3444824</ele>
        <time>2010-05-03T06:49:05Z</time>
      </trkpt>
      <trkpt lat="35.3184558" lon="24.4628658">
        <ele>354.3831787</ele>
        <time>2010-05-03T06:49:14Z</time>
      </trkpt>
      <trkpt lat="35.3184469" lon="24.4628749">
        <ele>354.3831787</ele>
        <time>2010-05-03T06:49:15Z</time>
      </trkpt>
      <trkpt lat="35.3183501" lon="24.4629393">
        <ele>353.9025879</ele>
        <time>2010-05-03T06:49:26Z</time>
      </trkpt>
      <trkpt lat="35.3182965" lon="24.4629766">
        <ele>353.9025879</ele>
        <time>2010-05-03T06:49:34Z</time>
      </trkpt>
      <trkpt lat="35.3182557" lon="24.4629944">
        <ele>353.9025879</ele>
        <time>2010-05-03T06:49:47Z</time>
      </trkpt>
      <trkpt lat="35.3181988" lon="24.4630581">
        <ele>353.4218750</ele>
        <time>2010-05-03T06:49:56Z</time>
      </trkpt>
      <trkpt lat="35.3181153" lon="24.4631075">
        <ele>354.8637695</ele>
        <time>2010-05-03T06:50:04Z</time>
      </trkpt>
      <trkpt lat="35.3180449" lon="24.4631685">
        <ele>355.8251953</ele>
        <time>2010-05-03T06:50:11Z</time>
      </trkpt>
      <trkpt lat="35.3180306" lon="24.4631859">
        <ele>354.8637695</ele>
        <time>2010-05-03T06:50:13Z</time>
      </trkpt>
      <trkpt lat="35.3180216" lon="24.4632296">
        <ele>354.3831787</ele>
        <time>2010-05-03T06:50:17Z</time>
      </trkpt>
      <trkpt lat="35.3180559" lon="24.4633322">
        <ele>353.9025879</ele>
        <time>2010-05-03T06:50:26Z</time>
      </trkpt>
      <trkpt lat="35.3180703" lon="24.4634295">
        <ele>353.9025879</ele>
        <time>2010-05-03T06:50:34Z</time>
      </trkpt>
      <trkpt lat="35.3180417" lon="24.4635335">
        <ele>353.4218750</ele>
        <time>2010-05-03T06:50:43Z</time>
      </trkpt>
      <trkpt lat="35.3180320" lon="24.4636215">
        <ele>353.9025879</ele>
        <time>2010-05-03T06:50:51Z</time>
      </trkpt>
      <trkpt lat="35.3180367" lon="24.4636647">
        <ele>354.8637695</ele>
        <time>2010-05-03T06:50:59Z</time>
      </trkpt>
      <trkpt lat="35.3180655" lon="24.4636871">
        <ele>355.8251953</ele>
        <time>2010-05-03T06:51:06Z</time>
      </trkpt>
      <trkpt lat="35.3181442" lon="24.4636835">
        <ele>356.7863770</ele>
        <time>2010-05-03T06:51:15Z</time>
      </trkpt>
      <trkpt lat="35.3181723" lon="24.4636942">
        <ele>357.7478027</ele>
        <time>2010-05-03T06:51:20Z</time>
      </trkpt>
      <trkpt lat="35.3182458" lon="24.4637145">
        <ele>358.2283936</ele>
        <time>2010-05-03T06:51:28Z</time>
      </trkpt>
      <trkpt lat="35.3183045" lon="24.4637336">
        <ele>358.7089844</ele>
        <time>2010-05-03T06:51:34Z</time>
      </trkpt>
      <trkpt lat="35.3184001" lon="24.4637757">
        <ele>358.7089844</ele>
        <time>2010-05-03T06:51:44Z</time>
      </trkpt>
      <trkpt lat="35.3184923" lon="24.4638138">
        <ele>358.7089844</ele>
        <time>2010-05-03T06:51:53Z</time>
      </trkpt>
      <trkpt lat="35.3185982" lon="24.4638471">
        <ele>358.7089844</ele>
        <time>2010-05-03T06:52:03Z</time>
      </trkpt>
      <trkpt lat="35.3186491" lon="24.4638626">
        <ele>359.1896973</ele>
        <time>2010-05-03T06:52:11Z</time>
      </trkpt>
      <trkpt lat="35.3186495" lon="24.4638500">
        <ele>359.6704102</ele>
        <time>2010-05-03T06:52:26Z</time>
      </trkpt>
      <trkpt lat="35.3186506" lon="24.4638481">
        <ele>360.1511230</ele>
        <time>2010-05-03T06:52:47Z</time>
      </trkpt>
      <trkpt lat="35.3186454" lon="24.4638344">
        <ele>362.5543213</ele>
        <time>2010-05-03T06:53:25Z</time>
      </trkpt>
      <trkpt lat="35.3186448" lon="24.4638409">
        <ele>362.5543213</ele>
        <time>2010-05-03T06:53:34Z</time>
      </trkpt>
      <trkpt lat="35.3186417" lon="24.4638528">
        <ele>362.5543213</ele>
        <time>2010-05-03T06:53:56Z</time>
      </trkpt>
      <trkpt lat="35.3186479" lon="24.4638611">
        <ele>362.5543213</ele>
        <time>2010-05-03T06:54:14Z</time>
      </trkpt>
      <trkpt lat="35.3186847" lon="24.4638725">
        <ele>362.5543213</ele>
        <time>2010-05-03T06:54:22Z</time>
      </trkpt>
      <trkpt lat="35.3187452" lon="24.4638919">
        <ele>362.5543213</ele>
        <time>2010-05-03T06:54:30Z</time>
      </trkpt>
      <trkpt lat="35.3187948" lon="24.4638994">
        <ele>362.5543213</ele>
        <time>2010-05-03T06:54:36Z</time>
      </trkpt>
      <trkpt lat="35.3189093" lon="24.4639111">
        <ele>362.5543213</ele>
        <time>2010-05-03T06:54:47Z</time>
      </trkpt>
      <trkpt lat="35.3189633" lon="24.4639124">
        <ele>362.5543213</ele>
        <time>2010-05-03T06:54:53Z</time>
      </trkpt>
      <trkpt lat="35.3189878" lon="24.4639085">
        <ele>362.0737305</ele>
        <time>2010-05-03T06:54:55Z</time>
      </trkpt>
      <trkpt lat="35.3191354" lon="24.4638912">
        <ele>361.5931396</ele>
        <time>2010-05-03T06:55:06Z</time>
      </trkpt>
      <trkpt lat="35.3192341" lon="24.4638564">
        <ele>361.1124268</ele>
        <time>2010-05-03T06:55:13Z</time>
      </trkpt>
      <trkpt lat="35.3194048" lon="24.4637992">
        <ele>360.6317139</ele>
        <time>2010-05-03T06:55:26Z</time>
      </trkpt>
      <trkpt lat="35.3195309" lon="24.4637584">
        <ele>360.6317139</ele>
        <time>2010-05-03T06:55:36Z</time>
      </trkpt>
      <trkpt lat="35.3196989" lon="24.4637348">
        <ele>359.6704102</ele>
        <time>2010-05-03T06:55:49Z</time>
      </trkpt>
      <trkpt lat="35.3197725" lon="24.4637252">
        <ele>360.1511230</ele>
        <time>2010-05-03T06:55:56Z</time>
      </trkpt>
      <trkpt lat="35.3198542" lon="24.4637148">
        <ele>359.6704102</ele>
        <time>2010-05-03T06:56:03Z</time>
      </trkpt>
      <trkpt lat="35.3199348" lon="24.4637094">
        <ele>358.7089844</ele>
        <time>2010-05-03T06:56:10Z</time>
      </trkpt>
      <trkpt lat="35.3200550" lon="24.4636979">
        <ele>357.7478027</ele>
        <time>2010-05-03T06:56:20Z</time>
      </trkpt>
      <trkpt lat="35.3201759" lon="24.4636905">
        <ele>356.7863770</ele>
        <time>2010-05-03T06:56:31Z</time>
      </trkpt>
      <trkpt lat="35.3202486" lon="24.4636817">
        <ele>356.3057861</ele>
        <time>2010-05-03T06:56:38Z</time>
      </trkpt>
      <trkpt lat="35.3203567" lon="24.4636709">
        <ele>355.3444824</ele>
        <time>2010-05-03T06:56:47Z</time>
      </trkpt>
      <trkpt lat="35.3204227" lon="24.4636576">
        <ele>354.8637695</ele>
        <time>2010-05-03T06:56:53Z</time>
      </trkpt>
      <trkpt lat="35.3204423" lon="24.4636117">
        <ele>353.9025879</ele>
        <time>2010-05-03T06:56:57Z</time>
      </trkpt>
      <trkpt lat="35.3204496" lon="24.4635718">
        <ele>353.9025879</ele>
        <time>2010-05-03T06:57:03Z</time>
      </trkpt>
      <trkpt lat="35.3204382" lon="24.4635387">
        <ele>353.9025879</ele>
        <time>2010-05-03T06:57:06Z</time>
      </trkpt>
      <trkpt lat="35.3203922" lon="24.4634415">
        <ele>353.9025879</ele>
        <time>2010-05-03T06:57:14Z</time>
      </trkpt>
      <trkpt lat="35.3203811" lon="24.4634258">
        <ele>353.4218750</ele>
        <time>2010-05-03T06:57:16Z</time>
      </trkpt>
      <trkpt lat="35.3203647" lon="24.4633891">
        <ele>351.9798584</ele>
        <time>2010-05-03T06:57:23Z</time>
      </trkpt>
      <trkpt lat="35.3203295" lon="24.4633209">
        <ele>351.4991455</ele>
        <time>2010-05-03T06:57:30Z</time>
      </trkpt>
      <trkpt lat="35.3203123" lon="24.4632783">
        <ele>351.9798584</ele>
        <time>2010-05-03T06:57:34Z</time>
      </trkpt>
      <trkpt lat="35.3202301" lon="24.4631379">
        <ele>351.0184326</ele>
        <time>2010-05-03T06:57:46Z</time>
      </trkpt>
      <trkpt lat="35.3201816" lon="24.4630550">
        <ele>350.5378418</ele>
        <time>2010-05-03T06:57:55Z</time>
      </trkpt>
      <trkpt lat="35.3201584" lon="24.4629950">
        <ele>349.5765381</ele>
        <time>2010-05-03T06:58:02Z</time>
      </trkpt>
      <trkpt lat="35.3201138" lon="24.4629202">
        <ele>350.5378418</ele>
        <time>2010-05-03T06:58:09Z</time>
      </trkpt>
      <trkpt lat="35.3201181" lon="24.4629067">
        <ele>351.0184326</ele>
        <time>2010-05-03T06:58:17Z</time>
      </trkpt>
      <trkpt lat="35.3201274" lon="24.4629039">
        <ele>352.4605713</ele>
        <time>2010-05-03T06:58:25Z</time>
      </trkpt>
      <trkpt lat="35.3201196" lon="24.4629080">
        <ele>352.4605713</ele>
        <time>2010-05-03T06:58:33Z</time>
      </trkpt>
      <trkpt lat="35.3201254" lon="24.4629116">
        <ele>352.9411621</ele>
        <time>2010-05-03T06:58:44Z</time>
      </trkpt>
      <trkpt lat="35.3201051" lon="24.4628986">
        <ele>352.9411621</ele>
        <time>2010-05-03T06:58:49Z</time>
      </trkpt>
      <trkpt lat="35.3200655" lon="24.4628285">
        <ele>352.9411621</ele>
        <time>2010-05-03T06:58:56Z</time>
      </trkpt>
      <trkpt lat="35.3200479" lon="24.4627979">
        <ele>352.9411621</ele>
        <time>2010-05-03T06:58:59Z</time>
      </trkpt>
      <trkpt lat="35.3199699" lon="24.4626547">
        <ele>353.4218750</ele>
        <time>2010-05-03T06:59:11Z</time>
      </trkpt>
      <trkpt lat="35.3198890" lon="24.4625422">
        <ele>353.4218750</ele>
        <time>2010-05-03T06:59:21Z</time>
      </trkpt>
      <trkpt lat="35.3197817" lon="24.4624403">
        <ele>353.4218750</ele>
        <time>2010-05-03T06:59:32Z</time>
      </trkpt>
      <trkpt lat="35.3197056" lon="24.4623432">
        <ele>352.4605713</ele>
        <time>2010-05-03T06:59:42Z</time>
      </trkpt>
      <trkpt lat="35.3196535" lon="24.4622426">
        <ele>352.4605713</ele>
        <time>2010-05-03T06:59:51Z</time>
      </trkpt>
      <trkpt lat="35.3196171" lon="24.4621656">
        <ele>352.4605713</ele>
        <time>2010-05-03T06:59:58Z</time>
      </trkpt>
      <trkpt lat="35.3195902" lon="24.4620998">
        <ele>352.9411621</ele>
        <time>2010-05-03T07:00:03Z</time>
      </trkpt>
      <trkpt lat="35.3195244" lon="24.4619632">
        <ele>352.9411621</ele>
        <time>2010-05-03T07:00:14Z</time>
      </trkpt>
      <trkpt lat="35.3194633" lon="24.4618391">
        <ele>353.4218750</ele>
        <time>2010-05-03T07:00:24Z</time>
      </trkpt>
      <trkpt lat="35.3194115" lon="24.4617440">
        <ele>353.4218750</ele>
        <time>2010-05-03T07:00:32Z</time>
      </trkpt>
      <trkpt lat="35.3193478" lon="24.4616335">
        <ele>353.4218750</ele>
        <time>2010-05-03T07:00:42Z</time>
      </trkpt>
      <trkpt lat="35.3192954" lon="24.4615407">
        <ele>353.9025879</ele>
        <time>2010-05-03T07:00:50Z</time>
      </trkpt>
      <trkpt lat="35.3192425" lon="24.4614434">
        <ele>352.9411621</ele>
        <time>2010-05-03T07:00:58Z</time>
      </trkpt>
      <trkpt lat="35.3191782" lon="24.4613777">
        <ele>352.4605713</ele>
        <time>2010-05-03T07:01:05Z</time>
      </trkpt>
      <trkpt lat="35.3191054" lon="24.4612967">
        <ele>351.4991455</ele>
        <time>2010-05-03T07:01:14Z</time>
      </trkpt>
      <trkpt lat="35.3190041" lon="24.4611701">
        <ele>351.0184326</ele>
        <time>2010-05-03T07:01:26Z</time>
      </trkpt>
      <trkpt lat="35.3189308" lon="24.4610893">
        <ele>351.0184326</ele>
        <time>2010-05-03T07:01:34Z</time>
      </trkpt>
      <trkpt lat="35.3188316" lon="24.4609731">
        <ele>351.4991455</ele>
        <time>2010-05-03T07:01:45Z</time>
      </trkpt>
      <trkpt lat="35.3188109" lon="24.4609519">
        <ele>351.4991455</ele>
        <time>2010-05-03T07:01:47Z</time>
      </trkpt>
      <trkpt lat="35.3187604" lon="24.4609182">
        <ele>351.4991455</ele>
        <time>2010-05-03T07:01:52Z</time>
      </trkpt>
      <trkpt lat="35.3186912" lon="24.4608207">
        <ele>351.9798584</ele>
        <time>2010-05-03T07:02:01Z</time>
      </trkpt>
      <trkpt lat="35.3186846" lon="24.4608108">
        <ele>351.9798584</ele>
        <time>2010-05-03T07:02:02Z</time>
      </trkpt>
      <trkpt lat="35.3186315" lon="24.4607608">
        <ele>351.9798584</ele>
        <time>2010-05-03T07:02:08Z</time>
      </trkpt>
      <trkpt lat="35.3185815" lon="24.4607018">
        <ele>351.0184326</ele>
        <time>2010-05-03T07:02:14Z</time>
      </trkpt>
      <trkpt lat="35.3185437" lon="24.4606542">
        <ele>350.5378418</ele>
        <time>2010-05-03T07:02:19Z</time>
      </trkpt>
      <trkpt lat="35.3184835" lon="24.4605614">
        <ele>350.0572510</ele>
        <time>2010-05-03T07:02:27Z</time>
      </trkpt>
      <trkpt lat="35.3184665" lon="24.4605394">
        <ele>350.0572510</ele>
        <time>2010-05-03T07:02:29Z</time>
      </trkpt>
      <trkpt lat="35.3184049" lon="24.4604541">
        <ele>349.5765381</ele>
        <time>2010-05-03T07:02:37Z</time>
      </trkpt>
      <trkpt lat="35.3183417" lon="24.4603914">
        <ele>349.5765381</ele>
        <time>2010-05-03T07:02:44Z</time>
      </trkpt>
      <trkpt lat="35.3183128" lon="24.4603475">
        <ele>349.0958252</ele>
        <time>2010-05-03T07:02:48Z</time>
      </trkpt>
      <trkpt lat="35.3182434" lon="24.4602498">
        <ele>348.1346436</ele>
        <time>2010-05-03T07:02:56Z</time>
      </trkpt>
      <trkpt lat="35.3181684" lon="24.4601780">
        <ele>347.6539307</ele>
        <time>2010-05-03T07:03:04Z</time>
      </trkpt>
      <trkpt lat="35.3181085" lon="24.4601471">
        <ele>347.1732178</ele>
        <time>2010-05-03T07:03:10Z</time>
      </trkpt>
      <trkpt lat="35.3180600" lon="24.4601559">
        <ele>351.4991455</ele>
        <time>2010-05-03T07:03:20Z</time>
      </trkpt>
      <trkpt lat="35.3180617" lon="24.4601639">
        <ele>354.8637695</ele>
        <time>2010-05-03T07:03:34Z</time>
      </trkpt>
      <trkpt lat="35.3180714" lon="24.4601361">
        <ele>354.3831787</ele>
        <time>2010-05-03T07:03:52Z</time>
      </trkpt>
      <trkpt lat="35.3180926" lon="24.4601548">
        <ele>353.9025879</ele>
        <time>2010-05-03T07:04:10Z</time>
      </trkpt>
      <trkpt lat="35.3180875" lon="24.4601656">
        <ele>356.3057861</ele>
        <time>2010-05-03T07:04:35Z</time>
      </trkpt>
      <trkpt lat="35.3180907" lon="24.4601612">
        <ele>351.9798584</ele>
        <time>2010-05-03T07:05:00Z</time>
      </trkpt>
      <trkpt lat="35.3180776" lon="24.4601470">
        <ele>349.0958252</ele>
        <time>2010-05-03T07:05:22Z</time>
      </trkpt>
      <trkpt lat="35.3180590" lon="24.4601665">
        <ele>354.3831787</ele>
        <time>2010-05-03T07:05:34Z</time>
      </trkpt>
      <trkpt lat="35.3180092" lon="24.4601443">
        <ele>354.3831787</ele>
        <time>2010-05-03T07:05:40Z</time>
      </trkpt>
      <trkpt lat="35.3179394" lon="24.4600900">
        <ele>353.4218750</ele>
        <time>2010-05-03T07:05:48Z</time>
      </trkpt>
      <trkpt lat="35.3178562" lon="24.4600432">
        <ele>352.9411621</ele>
        <time>2010-05-03T07:05:56Z</time>
      </trkpt>
      <trkpt lat="35.3178435" lon="24.4600392">
        <ele>352.4605713</ele>
        <time>2010-05-03T07:05:57Z</time>
      </trkpt>
      <trkpt lat="35.3177568" lon="24.4599794">
        <ele>351.4991455</ele>
        <time>2010-05-03T07:06:05Z</time>
      </trkpt>
      <trkpt lat="35.3176690" lon="24.4599734">
        <ele>353.4218750</ele>
        <time>2010-05-03T07:06:12Z</time>
      </trkpt>
      <trkpt lat="35.3175799" lon="24.4599989">
        <ele>352.9411621</ele>
        <time>2010-05-03T07:06:20Z</time>
      </trkpt>
      <trkpt lat="35.3175721" lon="24.4600014">
        <ele>352.4605713</ele>
        <time>2010-05-03T07:06:21Z</time>
      </trkpt>
      <trkpt lat="35.3175551" lon="24.4599745">
        <ele>352.4605713</ele>
        <time>2010-05-03T07:06:30Z</time>
      </trkpt>
      <trkpt lat="35.3175280" lon="24.4599404">
        <ele>356.7863770</ele>
        <time>2010-05-03T07:06:44Z</time>
      </trkpt>
      <trkpt lat="35.3175062" lon="24.4599580">
        <ele>359.6704102</ele>
        <time>2010-05-03T07:06:56Z</time>
      </trkpt>
      <trkpt lat="35.3174577" lon="24.4600214">
        <ele>356.7863770</ele>
        <time>2010-05-03T07:07:05Z</time>
      </trkpt>
      <trkpt lat="35.3174280" lon="24.4600510">
        <ele>355.8251953</ele>
        <time>2010-05-03T07:07:13Z</time>
      </trkpt>
      <trkpt lat="35.3174125" lon="24.4600773">
        <ele>353.9025879</ele>
        <time>2010-05-03T07:07:21Z</time>
      </trkpt>
      <trkpt lat="35.3173602" lon="24.4601245">
        <ele>352.9411621</ele>
        <time>2010-05-03T07:07:30Z</time>
      </trkpt>
      <trkpt lat="35.3173315" lon="24.4601434">
        <ele>351.4991455</ele>
        <time>2010-05-03T07:07:35Z</time>
      </trkpt>
      <trkpt lat="35.3171989" lon="24.4602069">
        <ele>352.9411621</ele>
        <time>2010-05-03T07:07:45Z</time>
      </trkpt>
      <trkpt lat="35.3171296" lon="24.4601887">
        <ele>350.0572510</ele>
        <time>2010-05-03T07:07:53Z</time>
      </trkpt>
      <trkpt lat="35.3170783" lon="24.4601639">
        <ele>349.0958252</ele>
        <time>2010-05-03T07:08:00Z</time>
      </trkpt>
      <trkpt lat="35.3170311" lon="24.4601464">
        <ele>349.5765381</ele>
        <time>2010-05-03T07:08:06Z</time>
      </trkpt>
      <trkpt lat="35.3170084" lon="24.4601500">
        <ele>351.4991455</ele>
        <time>2010-05-03T07:08:12Z</time>
      </trkpt>
      <trkpt lat="35.3169214" lon="24.4601102">
        <ele>351.0184326</ele>
        <time>2010-05-03T07:08:21Z</time>
      </trkpt>
      <trkpt lat="35.3168519" lon="24.4600742">
        <ele>351.0184326</ele>
        <time>2010-05-03T07:08:29Z</time>
      </trkpt>
      <trkpt lat="35.3168029" lon="24.4600701">
        <ele>351.0184326</ele>
        <time>2010-05-03T07:08:35Z</time>
      </trkpt>
      <trkpt lat="35.3167668" lon="24.4600691">
        <ele>350.5378418</ele>
        <time>2010-05-03T07:08:39Z</time>
      </trkpt>
      <trkpt lat="35.3167416" lon="24.4600882">
        <ele>352.4605713</ele>
        <time>2010-05-03T07:08:46Z</time>
      </trkpt>
      <trkpt lat="35.3167479" lon="24.4600846">
        <ele>352.4605713</ele>
        <time>2010-05-03T07:08:55Z</time>
      </trkpt>
      <trkpt lat="35.3167267" lon="24.4600804">
        <ele>352.4605713</ele>
        <time>2010-05-03T07:09:08Z</time>
      </trkpt>
      <trkpt lat="35.3166394" lon="24.4600804">
        <ele>352.4605713</ele>
        <time>2010-05-03T07:09:16Z</time>
      </trkpt>
      <trkpt lat="35.3165622" lon="24.4600460">
        <ele>352.4605713</ele>
        <time>2010-05-03T07:09:23Z</time>
      </trkpt>
      <trkpt lat="35.3164519" lon="24.4599252">
        <ele>351.9798584</ele>
        <time>2010-05-03T07:09:33Z</time>
      </trkpt>
      <trkpt lat="35.3163441" lon="24.4598398">
        <ele>352.9411621</ele>
        <time>2010-05-03T07:09:42Z</time>
      </trkpt>
      <trkpt lat="35.3163090" lon="24.4598157">
        <ele>352.9411621</ele>
        <time>2010-05-03T07:09:45Z</time>
      </trkpt>
      <trkpt lat="35.3162262" lon="24.4597774">
        <ele>350.5378418</ele>
        <time>2010-05-03T07:09:52Z</time>
      </trkpt>
      <trkpt lat="35.3160921" lon="24.4597210">
        <ele>351.9798584</ele>
        <time>2010-05-03T07:10:02Z</time>
      </trkpt>
      <trkpt lat="35.3159920" lon="24.4596507">
        <ele>351.0184326</ele>
        <time>2010-05-03T07:10:11Z</time>
      </trkpt>
      <trkpt lat="35.3158693" lon="24.4595484">
        <ele>349.5765381</ele>
        <time>2010-05-03T07:10:22Z</time>
      </trkpt>
      <trkpt lat="35.3157952" lon="24.4594745">
        <ele>350.0572510</ele>
        <time>2010-05-03T07:10:29Z</time>
      </trkpt>
      <trkpt lat="35.3157044" lon="24.4593879">
        <ele>350.5378418</ele>
        <time>2010-05-03T07:10:38Z</time>
      </trkpt>
      <trkpt lat="35.3155874" lon="24.4593138">
        <ele>351.4991455</ele>
        <time>2010-05-03T07:10:48Z</time>
      </trkpt>
      <trkpt lat="35.3154996" lon="24.4592434">
        <ele>352.4605713</ele>
        <time>2010-05-03T07:10:57Z</time>
      </trkpt>
      <trkpt lat="35.3154254" lon="24.4591551">
        <ele>353.4218750</ele>
        <time>2010-05-03T07:11:05Z</time>
      </trkpt>
      <trkpt lat="35.3153434" lon="24.4590646">
        <ele>352.4605713</ele>
        <time>2010-05-03T07:11:14Z</time>
      </trkpt>
      <trkpt lat="35.3152592" lon="24.4589695">
        <ele>353.4218750</ele>
        <time>2010-05-03T07:11:23Z</time>
      </trkpt>
      <trkpt lat="35.3151808" lon="24.4588649">
        <ele>353.9025879</ele>
        <time>2010-05-03T07:11:32Z</time>
      </trkpt>
      <trkpt lat="35.3151015" lon="24.4587618">
        <ele>354.8637695</ele>
        <time>2010-05-03T07:11:41Z</time>
      </trkpt>
      <trkpt lat="35.3150208" lon="24.4586670">
        <ele>354.8637695</ele>
        <time>2010-05-03T07:11:50Z</time>
      </trkpt>
      <trkpt lat="35.3149811" lon="24.4586161">
        <ele>354.8637695</ele>
        <time>2010-05-03T07:11:55Z</time>
      </trkpt>
      <trkpt lat="35.3148828" lon="24.4585285">
        <ele>355.3444824</ele>
        <time>2010-05-03T07:12:05Z</time>
      </trkpt>
      <trkpt lat="35.3147651" lon="24.4584689">
        <ele>354.8637695</ele>
        <time>2010-05-03T07:12:16Z</time>
      </trkpt>
      <trkpt lat="35.3147292" lon="24.4584404">
        <ele>354.3831787</ele>
        <time>2010-05-03T07:12:20Z</time>
      </trkpt>
      <trkpt lat="35.3146650" lon="24.4583614">
        <ele>352.9411621</ele>
        <time>2010-05-03T07:12:29Z</time>
      </trkpt>
      <trkpt lat="35.3146185" lon="24.4583084">
        <ele>353.4218750</ele>
        <time>2010-05-03T07:12:37Z</time>
      </trkpt>
      <trkpt lat="35.3146121" lon="24.4582982">
        <ele>353.4218750</ele>
        <time>2010-05-03T07:12:44Z</time>
      </trkpt>
      <trkpt lat="35.3145934" lon="24.4582799">
        <ele>353.9025879</ele>
        <time>2010-05-03T07:12:50Z</time>
      </trkpt>
      <trkpt lat="35.3145400" lon="24.4583054">
        <ele>352.4605713</ele>
        <time>2010-05-03T07:12:56Z</time>
      </trkpt>
      <trkpt lat="35.3144627" lon="24.4583161">
        <ele>349.0958252</ele>
        <time>2010-05-03T07:13:04Z</time>
      </trkpt>
      <trkpt lat="35.3144045" lon="24.4583265">
        <ele>346.6926270</ele>
        <time>2010-05-03T07:13:10Z</time>
      </trkpt>
      <trkpt lat="35.3143112" lon="24.4583608">
        <ele>343.3278809</ele>
        <time>2010-05-03T07:13:19Z</time>
      </trkpt>
      <trkpt lat="35.3142449" lon="24.4583981">
        <ele>339.9633789</ele>
        <time>2010-05-03T07:13:27Z</time>
      </trkpt>
      <trkpt lat="35.3141638" lon="24.4584379">
        <ele>341.4052734</ele>
        <time>2010-05-03T07:13:36Z</time>
      </trkpt>
      <trkpt lat="35.3141423" lon="24.4584526">
        <ele>343.8085938</ele>
        <time>2010-05-03T07:13:41Z</time>
      </trkpt>
      <trkpt lat="35.3141392" lon="24.4584002">
        <ele>345.7313232</ele>
        <time>2010-05-03T07:14:05Z</time>
      </trkpt>
      <trkpt lat="35.3141060" lon="24.4583230">
        <ele>346.2120361</ele>
        <time>2010-05-03T07:14:11Z</time>
      </trkpt>
      <trkpt lat="35.3140409" lon="24.4581805">
        <ele>347.6539307</ele>
        <time>2010-05-03T07:14:22Z</time>
      </trkpt>
      <trkpt lat="35.3140141" lon="24.4581318">
        <ele>348.1346436</ele>
        <time>2010-05-03T07:14:27Z</time>
      </trkpt>
      <trkpt lat="35.3140053" lon="24.4581137">
        <ele>349.0958252</ele>
        <time>2010-05-03T07:14:37Z</time>
      </trkpt>
      <trkpt lat="35.3139869" lon="24.4580748">
        <ele>350.0572510</ele>
        <time>2010-05-03T07:14:43Z</time>
      </trkpt>
      <trkpt lat="35.3139582" lon="24.4580059">
        <ele>350.0572510</ele>
        <time>2010-05-03T07:14:50Z</time>
      </trkpt>
      <trkpt lat="35.3139114" lon="24.4579250">
        <ele>349.5765381</ele>
        <time>2010-05-03T07:14:58Z</time>
      </trkpt>
      <trkpt lat="35.3138655" lon="24.4578594">
        <ele>349.5765381</ele>
        <time>2010-05-03T07:15:05Z</time>
      </trkpt>
      <trkpt lat="35.3137692" lon="24.4577593">
        <ele>349.0958252</ele>
        <time>2010-05-03T07:15:16Z</time>
      </trkpt>
      <trkpt lat="35.3136692" lon="24.4577100">
        <ele>348.6152344</ele>
        <time>2010-05-03T07:15:25Z</time>
      </trkpt>
      <trkpt lat="35.3135963" lon="24.4576891">
        <ele>348.6152344</ele>
        <time>2010-05-03T07:15:31Z</time>
      </trkpt>
      <trkpt lat="35.3135448" lon="24.4576908">
        <ele>348.6152344</ele>
        <time>2010-05-03T07:15:35Z</time>
      </trkpt>
      <trkpt lat="35.3134128" lon="24.4576916">
        <ele>347.1732178</ele>
        <time>2010-05-03T07:15:46Z</time>
      </trkpt>
      <trkpt lat="35.3132817" lon="24.4576780">
        <ele>346.2120361</ele>
        <time>2010-05-03T07:15:57Z</time>
      </trkpt>
      <trkpt lat="35.3131880" lon="24.4576554">
        <ele>346.2120361</ele>
        <time>2010-05-03T07:16:05Z</time>
      </trkpt>
      <trkpt lat="35.3130580" lon="24.4576171">
        <ele>346.6926270</ele>
        <time>2010-05-03T07:16:17Z</time>
      </trkpt>
      <trkpt lat="35.3129410" lon="24.4575779">
        <ele>345.2506104</ele>
        <time>2010-05-03T07:16:28Z</time>
      </trkpt>
      <trkpt lat="35.3129027" lon="24.4575617">
        <ele>344.7700195</ele>
        <time>2010-05-03T07:16:32Z</time>
      </trkpt>
      <trkpt lat="35.3128598" lon="24.4575308">
        <ele>344.7700195</ele>
        <time>2010-05-03T07:16:38Z</time>
      </trkpt>
      <trkpt lat="35.3128041" lon="24.4575097">
        <ele>345.2506104</ele>
        <time>2010-05-03T07:16:43Z</time>
      </trkpt>
      <trkpt lat="35.3127064" lon="24.4574787">
        <ele>345.7313232</ele>
        <time>2010-05-03T07:16:54Z</time>
      </trkpt>
      <trkpt lat="35.3126996" lon="24.4574793">
        <ele>346.2120361</ele>
        <time>2010-05-03T07:17:03Z</time>
      </trkpt>
      <trkpt lat="35.3126942" lon="24.4574842">
        <ele>345.7313232</ele>
        <time>2010-05-03T07:17:12Z</time>
      </trkpt>
      <trkpt lat="35.3126934" lon="24.4574859">
        <ele>346.2120361</ele>
        <time>2010-05-03T07:17:19Z</time>
      </trkpt>
      <trkpt lat="35.3126810" lon="24.4574813">
        <ele>346.2120361</ele>
        <time>2010-05-03T07:17:30Z</time>
      </trkpt>
      <trkpt lat="35.3125924" lon="24.4574489">
        <ele>346.6926270</ele>
        <time>2010-05-03T07:17:39Z</time>
      </trkpt>
      <trkpt lat="35.3125150" lon="24.4574244">
        <ele>346.6926270</ele>
        <time>2010-05-03T07:17:46Z</time>
      </trkpt>
      <trkpt lat="35.3124307" lon="24.4574051">
        <ele>346.2120361</ele>
        <time>2010-05-03T07:17:54Z</time>
      </trkpt>
      <trkpt lat="35.3123790" lon="24.4573914">
        <ele>346.2120361</ele>
        <time>2010-05-03T07:17:59Z</time>
      </trkpt>
      <trkpt lat="35.3123365" lon="24.4573814">
        <ele>345.7313232</ele>
        <time>2010-05-03T07:18:03Z</time>
      </trkpt>
      <trkpt lat="35.3121940" lon="24.4573481">
        <ele>346.2120361</ele>
        <time>2010-05-03T07:18:15Z</time>
      </trkpt>
      <trkpt lat="35.3120867" lon="24.4572983">
        <ele>345.2506104</ele>
        <time>2010-05-03T07:18:25Z</time>
      </trkpt>
      <trkpt lat="35.3119859" lon="24.4572355">
        <ele>344.7700195</ele>
        <time>2010-05-03T07:18:34Z</time>
      </trkpt>
      <trkpt lat="35.3118585" lon="24.4571384">
        <ele>345.7313232</ele>
        <time>2010-05-03T07:18:46Z</time>
      </trkpt>
      <trkpt lat="35.3117797" lon="24.4570815">
        <ele>346.2120361</ele>
        <time>2010-05-03T07:18:54Z</time>
      </trkpt>
      <trkpt lat="35.3117605" lon="24.4570652">
        <ele>346.6926270</ele>
        <time>2010-05-03T07:19:03Z</time>
      </trkpt>
      <trkpt lat="35.3117610" lon="24.4570258">
        <ele>346.2120361</ele>
        <time>2010-05-03T07:19:14Z</time>
      </trkpt>
      <trkpt lat="35.3117858" lon="24.4569503">
        <ele>345.2506104</ele>
        <time>2010-05-03T07:19:21Z</time>
      </trkpt>
      <trkpt lat="35.3118055" lon="24.4568929">
        <ele>344.7700195</ele>
        <time>2010-05-03T07:19:26Z</time>
      </trkpt>
      <trkpt lat="35.3118312" lon="24.4568228">
        <ele>344.7700195</ele>
        <time>2010-05-03T07:19:32Z</time>
      </trkpt>
      <trkpt lat="35.3118901" lon="24.4567056">
        <ele>344.2894287</ele>
        <time>2010-05-03T07:19:44Z</time>
      </trkpt>
      <trkpt lat="35.3119008" lon="24.4566790">
        <ele>344.7700195</ele>
        <time>2010-05-03T07:19:51Z</time>
      </trkpt>
      <trkpt lat="35.3119066" lon="24.4566694">
        <ele>344.7700195</ele>
        <time>2010-05-03T07:20:03Z</time>
      </trkpt>
      <trkpt lat="35.3119071" lon="24.4566726">
        <ele>345.2506104</ele>
        <time>2010-05-03T07:20:13Z</time>
      </trkpt>
      <trkpt lat="35.3119200" lon="24.4566587">
        <ele>345.7313232</ele>
        <time>2010-05-03T07:20:26Z</time>
      </trkpt>
      <trkpt lat="35.3119623" lon="24.4565886">
        <ele>344.7700195</ele>
        <time>2010-05-03T07:20:35Z</time>
      </trkpt>
      <trkpt lat="35.3120153" lon="24.4565037">
        <ele>344.2894287</ele>
        <time>2010-05-03T07:20:45Z</time>
      </trkpt>
      <trkpt lat="35.3120761" lon="24.4564271">
        <ele>343.8085938</ele>
        <time>2010-05-03T07:20:55Z</time>
      </trkpt>
      <trkpt lat="35.3120960" lon="24.4564021">
        <ele>344.2894287</ele>
        <time>2010-05-03T07:21:01Z</time>
      </trkpt>
      <trkpt lat="35.3121506" lon="24.4563463">
        <ele>344.2894287</ele>
        <time>2010-05-03T07:21:10Z</time>
      </trkpt>
      <trkpt lat="35.3121949" lon="24.4562892">
        <ele>344.2894287</ele>
        <time>2010-05-03T07:21:18Z</time>
      </trkpt>
      <trkpt lat="35.3122521" lon="24.4562278">
        <ele>344.2894287</ele>
        <time>2010-05-03T07:21:27Z</time>
      </trkpt>
      <trkpt lat="35.3123348" lon="24.4561561">
        <ele>343.8085938</ele>
        <time>2010-05-03T07:21:38Z</time>
      </trkpt>
      <trkpt lat="35.3123805" lon="24.4560972">
        <ele>343.3278809</ele>
        <time>2010-05-03T07:21:46Z</time>
      </trkpt>
      <trkpt lat="35.3124407" lon="24.4560110">
        <ele>343.3278809</ele>
        <time>2010-05-03T07:21:56Z</time>
      </trkpt>
      <trkpt lat="35.3124891" lon="24.4559345">
        <ele>342.3666992</ele>
        <time>2010-05-03T07:22:05Z</time>
      </trkpt>
      <trkpt lat="35.3125136" lon="24.4558655">
        <ele>342.8472900</ele>
        <time>2010-05-03T07:22:13Z</time>
      </trkpt>
      <trkpt lat="35.3125379" lon="24.4557833">
        <ele>343.8085938</ele>
        <time>2010-05-03T07:22:21Z</time>
      </trkpt>
      <trkpt lat="35.3125485" lon="24.4557470">
        <ele>344.2894287</ele>
        <time>2010-05-03T07:22:26Z</time>
      </trkpt>
      <trkpt lat="35.3125494" lon="24.4557200">
        <ele>344.7700195</ele>
        <time>2010-05-03T07:22:31Z</time>
      </trkpt>
      <trkpt lat="35.3125452" lon="24.4557196">
        <ele>347.1732178</ele>
        <time>2010-05-03T07:22:39Z</time>
      </trkpt>
      <trkpt lat="35.3125453" lon="24.4557392">
        <ele>347.1732178</ele>
        <time>2010-05-03T07:22:45Z</time>
      </trkpt>
      <trkpt lat="35.3125451" lon="24.4557685">
        <ele>347.1732178</ele>
        <time>2010-05-03T07:22:54Z</time>
      </trkpt>
      <trkpt lat="35.3125448" lon="24.4557527">
        <ele>346.6926270</ele>
        <time>2010-05-03T07:23:00Z</time>
      </trkpt>
      <trkpt lat="35.3125521" lon="24.4557449">
        <ele>346.6926270</ele>
        <time>2010-05-03T07:23:13Z</time>
      </trkpt>
      <trkpt lat="35.3125514" lon="24.4557120">
        <ele>347.1732178</ele>
        <time>2010-05-03T07:23:30Z</time>
      </trkpt>
      <trkpt lat="35.3125488" lon="24.4556744">
        <ele>345.7313232</ele>
        <time>2010-05-03T07:23:37Z</time>
      </trkpt>
      <trkpt lat="35.3125556" lon="24.4556178">
        <ele>345.2506104</ele>
        <time>2010-05-03T07:23:43Z</time>
      </trkpt>
      <trkpt lat="35.3125567" lon="24.4555734">
        <ele>345.7313232</ele>
        <time>2010-05-03T07:23:49Z</time>
      </trkpt>
      <trkpt lat="35.3125603" lon="24.4555062">
        <ele>346.6926270</ele>
        <time>2010-05-03T07:23:56Z</time>
      </trkpt>
      <trkpt lat="35.3125639" lon="24.4554523">
        <ele>347.1732178</ele>
        <time>2010-05-03T07:24:02Z</time>
      </trkpt>
      <trkpt lat="35.3125535" lon="24.4554190">
        <ele>347.6539307</ele>
        <time>2010-05-03T07:24:08Z</time>
      </trkpt>
      <trkpt lat="35.3125510" lon="24.4553982">
        <ele>348.6152344</ele>
        <time>2010-05-03T07:24:16Z</time>
      </trkpt>
      <trkpt lat="35.3125609" lon="24.4553722">
        <ele>348.6152344</ele>
        <time>2010-05-03T07:24:22Z</time>
      </trkpt>
      <trkpt lat="35.3125582" lon="24.4552984">
        <ele>349.5765381</ele>
        <time>2010-05-03T07:24:31Z</time>
      </trkpt>
      <trkpt lat="35.3125627" lon="24.4553021">
        <ele>349.5765381</ele>
        <time>2010-05-03T07:24:39Z</time>
      </trkpt>
      <trkpt lat="35.3125660" lon="24.4552739">
        <ele>350.0572510</ele>
        <time>2010-05-03T07:24:46Z</time>
      </trkpt>
      <trkpt lat="35.3125572" lon="24.4552171">
        <ele>350.0572510</ele>
        <time>2010-05-03T07:24:53Z</time>
      </trkpt>
      <trkpt lat="35.3125571" lon="24.4551672">
        <ele>350.0572510</ele>
        <time>2010-05-03T07:24:58Z</time>
      </trkpt>
      <trkpt lat="35.3125593" lon="24.4550731">
        <ele>350.0572510</ele>
        <time>2010-05-03T07:25:05Z</time>
      </trkpt>
      <trkpt lat="35.3125467" lon="24.4549024">
        <ele>351.0184326</ele>
        <time>2010-05-03T07:25:17Z</time>
      </trkpt>
      <trkpt lat="35.3125467" lon="24.4547885">
        <ele>351.4991455</ele>
        <time>2010-05-03T07:25:26Z</time>
      </trkpt>
      <trkpt lat="35.3125376" lon="24.4547035">
        <ele>352.9411621</ele>
        <time>2010-05-03T07:25:34Z</time>
      </trkpt>
      <trkpt lat="35.3124981" lon="24.4546789">
        <ele>353.4218750</ele>
        <time>2010-05-03T07:25:40Z</time>
      </trkpt>
      <trkpt lat="35.3124764" lon="24.4546631">
        <ele>352.9411621</ele>
        <time>2010-05-03T07:25:46Z</time>
      </trkpt>
      <trkpt lat="35.3124780" lon="24.4546623">
        <ele>352.4605713</ele>
        <time>2010-05-03T07:25:52Z</time>
      </trkpt>
      <trkpt lat="35.3124918" lon="24.4546555">
        <ele>351.0184326</ele>
        <time>2010-05-03T07:26:05Z</time>
      </trkpt>
      <trkpt lat="35.3124710" lon="24.4546180">
        <ele>350.5378418</ele>
        <time>2010-05-03T07:26:11Z</time>
      </trkpt>
      <trkpt lat="35.3124303" lon="24.4545296">
        <ele>350.5378418</ele>
        <time>2010-05-03T07:26:20Z</time>
      </trkpt>
      <trkpt lat="35.3124266" lon="24.4544468">
        <ele>350.0572510</ele>
        <time>2010-05-03T07:26:28Z</time>
      </trkpt>
      <trkpt lat="35.3123966" lon="24.4543598">
        <ele>350.0572510</ele>
        <time>2010-05-03T07:26:36Z</time>
      </trkpt>
      <trkpt lat="35.3123630" lon="24.4542746">
        <ele>350.5378418</ele>
        <time>2010-05-03T07:26:44Z</time>
      </trkpt>
      <trkpt lat="35.3123193" lon="24.4542033">
        <ele>350.5378418</ele>
        <time>2010-05-03T07:26:52Z</time>
      </trkpt>
      <trkpt lat="35.3122561" lon="24.4542100">
        <ele>350.5378418</ele>
        <time>2010-05-03T07:26:58Z</time>
      </trkpt>
      <trkpt lat="35.3121380" lon="24.4542053">
        <ele>350.0572510</ele>
        <time>2010-05-03T07:27:09Z</time>
      </trkpt>
      <trkpt lat="35.3121278" lon="24.4541967">
        <ele>350.0572510</ele>
        <time>2010-05-03T07:27:10Z</time>
      </trkpt>
      <trkpt lat="35.3121076" lon="24.4541385">
        <ele>351.9798584</ele>
        <time>2010-05-03T07:27:16Z</time>
      </trkpt>
      <trkpt lat="35.3120991" lon="24.4540448">
        <ele>355.8251953</ele>
        <time>2010-05-03T07:27:22Z</time>
      </trkpt>
      <trkpt lat="35.3120982" lon="24.4539952">
        <ele>359.1896973</ele>
        <time>2010-05-03T07:27:32Z</time>
      </trkpt>
      <trkpt lat="35.3120902" lon="24.4540236">
        <ele>365.9189453</ele>
        <time>2010-05-03T07:28:02Z</time>
      </trkpt>
      <trkpt lat="35.3120942" lon="24.4540390">
        <ele>366.3995361</ele>
        <time>2010-05-03T07:28:14Z</time>
      </trkpt>
      <trkpt lat="35.3120873" lon="24.4540628">
        <ele>370.7255859</ele>
        <time>2010-05-03T07:28:28Z</time>
      </trkpt>
      <trkpt lat="35.3120765" lon="24.4540298">
        <ele>363.0350342</ele>
        <time>2010-05-03T07:29:27Z</time>
      </trkpt>
      <trkpt lat="35.3120997" lon="24.4539931">
        <ele>352.4605713</ele>
        <time>2010-05-03T07:30:30Z</time>
      </trkpt>
      <trkpt lat="35.3120825" lon="24.4540058">
        <ele>352.4605713</ele>
        <time>2010-05-03T07:30:49Z</time>
      </trkpt>
      <trkpt lat="35.3120857" lon="24.4539939">
        <ele>352.4605713</ele>
        <time>2010-05-03T07:31:05Z</time>
      </trkpt>
      <trkpt lat="35.3120879" lon="24.4539976">
        <ele>352.9411621</ele>
        <time>2010-05-03T07:31:13Z</time>
      </trkpt>
      <trkpt lat="35.3120861" lon="24.4540090">
        <ele>351.4991455</ele>
        <time>2010-05-03T07:31:27Z</time>
      </trkpt>
      <trkpt lat="35.3121143" lon="24.4539831">
        <ele>352.9411621</ele>
        <time>2010-05-03T07:31:43Z</time>
      </trkpt>
      <trkpt lat="35.3120703" lon="24.4540080">
        <ele>357.7478027</ele>
        <time>2010-05-03T07:31:56Z</time>
      </trkpt>
      <trkpt lat="35.3120875" lon="24.4539862">
        <ele>357.2670898</ele>
        <time>2010-05-03T07:32:02Z</time>
      </trkpt>
      <trkpt lat="35.3121056" lon="24.4539143">
        <ele>353.4218750</ele>
        <time>2010-05-03T07:32:10Z</time>
      </trkpt>
      <trkpt lat="35.3121158" lon="24.4538385">
        <ele>354.3831787</ele>
        <time>2010-05-03T07:32:18Z</time>
      </trkpt>
      <trkpt lat="35.3121215" lon="24.4538106">
        <ele>354.8637695</ele>
        <time>2010-05-03T07:32:25Z</time>
      </trkpt>
      <trkpt lat="35.3120905" lon="24.4537835">
        <ele>356.7863770</ele>
        <time>2010-05-03T07:32:31Z</time>
      </trkpt>
      <trkpt lat="35.3119955" lon="24.4537702">
        <ele>357.7478027</ele>
        <time>2010-05-03T07:32:40Z</time>
      </trkpt>
      <trkpt lat="35.3119237" lon="24.4537645">
        <ele>358.2283936</ele>
        <time>2010-05-03T07:32:50Z</time>
      </trkpt>
      <trkpt lat="35.3119548" lon="24.4537533">
        <ele>357.7478027</ele>
        <time>2010-05-03T07:32:57Z</time>
      </trkpt>
      <trkpt lat="35.3119488" lon="24.4537579">
        <ele>357.2670898</ele>
        <time>2010-05-03T07:33:07Z</time>
      </trkpt>
      <trkpt lat="35.3119137" lon="24.4537594">
        <ele>357.7478027</ele>
        <time>2010-05-03T07:33:15Z</time>
      </trkpt>
      <trkpt lat="35.3118936" lon="24.4537531">
        <ele>357.7478027</ele>
        <time>2010-05-03T07:33:21Z</time>
      </trkpt>
      <trkpt lat="35.3118863" lon="24.4537581">
        <ele>358.2283936</ele>
        <time>2010-05-03T07:33:30Z</time>
      </trkpt>
      <trkpt lat="35.3118396" lon="24.4537696">
        <ele>358.7089844</ele>
        <time>2010-05-03T07:33:39Z</time>
      </trkpt>
      <trkpt lat="35.3117364" lon="24.4537731">
        <ele>358.2283936</ele>
        <time>2010-05-03T07:33:48Z</time>
      </trkpt>
      <trkpt lat="35.3116438" lon="24.4537713">
        <ele>357.7478027</ele>
        <time>2010-05-03T07:33:56Z</time>
      </trkpt>
      <trkpt lat="35.3115262" lon="24.4537563">
        <ele>357.7478027</ele>
        <time>2010-05-03T07:34:06Z</time>
      </trkpt>
      <trkpt lat="35.3114313" lon="24.4537281">
        <ele>357.7478027</ele>
        <time>2010-05-03T07:34:16Z</time>
      </trkpt>
      <trkpt lat="35.3114304" lon="24.4537320">
        <ele>356.7863770</ele>
        <time>2010-05-03T07:34:25Z</time>
      </trkpt>
      <trkpt lat="35.3113844" lon="24.4536955">
        <ele>357.2670898</ele>
        <time>2010-05-03T07:34:32Z</time>
      </trkpt>
      <trkpt lat="35.3112959" lon="24.4536462">
        <ele>358.7089844</ele>
        <time>2010-05-03T07:34:41Z</time>
      </trkpt>
      <trkpt lat="35.3112098" lon="24.4536221">
        <ele>358.7089844</ele>
        <time>2010-05-03T07:34:50Z</time>
      </trkpt>
      <trkpt lat="35.3110869" lon="24.4535900">
        <ele>358.2283936</ele>
        <time>2010-05-03T07:35:01Z</time>
      </trkpt>
      <trkpt lat="35.3109910" lon="24.4535428">
        <ele>358.2283936</ele>
        <time>2010-05-03T07:35:10Z</time>
      </trkpt>
      <trkpt lat="35.3108975" lon="24.4534837">
        <ele>358.2283936</ele>
        <time>2010-05-03T07:35:19Z</time>
      </trkpt>
      <trkpt lat="35.3107954" lon="24.4534076">
        <ele>359.1896973</ele>
        <time>2010-05-03T07:35:29Z</time>
      </trkpt>
      <trkpt lat="35.3107560" lon="24.4533777">
        <ele>359.6704102</ele>
        <time>2010-05-03T07:35:33Z</time>
      </trkpt>
      <trkpt lat="35.3106892" lon="24.4533169">
        <ele>360.1511230</ele>
        <time>2010-05-03T07:35:41Z</time>
      </trkpt>
      <trkpt lat="35.3106054" lon="24.4532767">
        <ele>361.5931396</ele>
        <time>2010-05-03T07:35:49Z</time>
      </trkpt>
      <trkpt lat="35.3105077" lon="24.4532560">
        <ele>363.5157471</ele>
        <time>2010-05-03T07:35:59Z</time>
      </trkpt>
      <trkpt lat="35.3104701" lon="24.4532087">
        <ele>363.9963379</ele>
        <time>2010-05-03T07:36:06Z</time>
      </trkpt>
      <trkpt lat="35.3105124" lon="24.4531647">
        <ele>363.5157471</ele>
        <time>2010-05-03T07:36:13Z</time>
      </trkpt>
      <trkpt lat="35.3105529" lon="24.4531025">
        <ele>363.5157471</ele>
        <time>2010-05-03T07:36:19Z</time>
      </trkpt>
      <trkpt lat="35.3105409" lon="24.4530019">
        <ele>364.4769287</ele>
        <time>2010-05-03T07:36:28Z</time>
      </trkpt>
      <trkpt lat="35.3104625" lon="24.4529565">
        <ele>365.9189453</ele>
        <time>2010-05-03T07:36:37Z</time>
      </trkpt>
      <trkpt lat="35.3103796" lon="24.4529439">
        <ele>366.8802490</ele>
        <time>2010-05-03T07:36:46Z</time>
      </trkpt>
      <trkpt lat="35.3102965" lon="24.4529145">
        <ele>367.3609619</ele>
        <time>2010-05-03T07:36:55Z</time>
      </trkpt>
      <trkpt lat="35.3102076" lon="24.4528305">
        <ele>368.8029785</ele>
        <time>2010-05-03T07:37:05Z</time>
      </trkpt>
      <trkpt lat="35.3101605" lon="24.4527042">
        <ele>370.2448730</ele>
        <time>2010-05-03T07:37:15Z</time>
      </trkpt>
      <trkpt lat="35.3101739" lon="24.4525991">
        <ele>370.2448730</ele>
        <time>2010-05-03T07:37:24Z</time>
      </trkpt>
      <trkpt lat="35.3101831" lon="24.4525683">
        <ele>370.7255859</ele>
        <time>2010-05-03T07:37:29Z</time>
      </trkpt>
      <trkpt lat="35.3102101" lon="24.4525348">
        <ele>370.7255859</ele>
        <time>2010-05-03T07:37:35Z</time>
      </trkpt>
      <trkpt lat="35.3102888" lon="24.4524805">
        <ele>372.1674805</ele>
        <time>2010-05-03T07:37:44Z</time>
      </trkpt>
      <trkpt lat="35.3102988" lon="24.4524772">
        <ele>372.1674805</ele>
        <time>2010-05-03T07:37:45Z</time>
      </trkpt>
      <trkpt lat="35.3104265" lon="24.4524264">
        <ele>373.1289063</ele>
        <time>2010-05-03T07:37:57Z</time>
      </trkpt>
      <trkpt lat="35.3105349" lon="24.4523755">
        <ele>373.1289063</ele>
        <time>2010-05-03T07:38:07Z</time>
      </trkpt>
      <trkpt lat="35.3105846" lon="24.4522880">
        <ele>373.1289063</ele>
        <time>2010-05-03T07:38:16Z</time>
      </trkpt>
      <trkpt lat="35.3105499" lon="24.4521867">
        <ele>375.0515137</ele>
        <time>2010-05-03T07:38:24Z</time>
      </trkpt>
      <trkpt lat="35.3104582" lon="24.4521649">
        <ele>377.4548340</ele>
        <time>2010-05-03T07:38:33Z</time>
      </trkpt>
      <trkpt lat="35.3103625" lon="24.4521877">
        <ele>377.9354248</ele>
        <time>2010-05-03T07:38:42Z</time>
      </trkpt>
      <trkpt lat="35.3102684" lon="24.4522109">
        <ele>379.3774414</ele>
        <time>2010-05-03T07:38:51Z</time>
      </trkpt>
      <trkpt lat="35.3102467" lon="24.4522148">
        <ele>379.3774414</ele>
        <time>2010-05-03T07:38:57Z</time>
      </trkpt>
      <trkpt lat="35.3101510" lon="24.4521841">
        <ele>379.3774414</ele>
        <time>2010-05-03T07:39:05Z</time>
      </trkpt>
      <trkpt lat="35.3100973" lon="24.4520736">
        <ele>380.8194580</ele>
        <time>2010-05-03T07:39:14Z</time>
      </trkpt>
      <trkpt lat="35.3101395" lon="24.4519582">
        <ele>380.8194580</ele>
        <time>2010-05-03T07:39:23Z</time>
      </trkpt>
      <trkpt lat="35.3102488" lon="24.4518800">
        <ele>380.8194580</ele>
        <time>2010-05-03T07:39:33Z</time>
      </trkpt>
      <trkpt lat="35.3103396" lon="24.4518438">
        <ele>381.7806396</ele>
        <time>2010-05-03T07:39:43Z</time>
      </trkpt>
      <trkpt lat="35.3103993" lon="24.4518251">
        <ele>381.7806396</ele>
        <time>2010-05-03T07:39:49Z</time>
      </trkpt>
      <trkpt lat="35.3105084" lon="24.4517665">
        <ele>382.2613525</ele>
        <time>2010-05-03T07:40:00Z</time>
      </trkpt>
      <trkpt lat="35.3105300" lon="24.4517417">
        <ele>382.7420654</ele>
        <time>2010-05-03T07:40:05Z</time>
      </trkpt>
      <trkpt lat="35.3105224" lon="24.4517416">
        <ele>383.7032471</ele>
        <time>2010-05-03T07:40:11Z</time>
      </trkpt>
      <trkpt lat="35.3105384" lon="24.4517112">
        <ele>382.7420654</ele>
        <time>2010-05-03T07:40:25Z</time>
      </trkpt>
      <trkpt lat="35.3106275" lon="24.4516168">
        <ele>381.7806396</ele>
        <time>2010-05-03T07:40:36Z</time>
      </trkpt>
      <trkpt lat="35.3107134" lon="24.4514941">
        <ele>381.3000488</ele>
        <time>2010-05-03T07:40:48Z</time>
      </trkpt>
      <trkpt lat="35.3107662" lon="24.4513782">
        <ele>381.3000488</ele>
        <time>2010-05-03T07:40:59Z</time>
      </trkpt>
      <trkpt lat="35.3108063" lon="24.4513010">
        <ele>385.1453857</ele>
        <time>2010-05-03T07:41:06Z</time>
      </trkpt>
      <trkpt lat="35.3108518" lon="24.4512391">
        <ele>388.5100098</ele>
        <time>2010-05-03T07:41:16Z</time>
      </trkpt>
      <trkpt lat="35.3108555" lon="24.4512320">
        <ele>388.9906006</ele>
        <time>2010-05-03T07:41:24Z</time>
      </trkpt>
      <trkpt lat="35.3108576" lon="24.4512299">
        <ele>391.8745117</ele>
        <time>2010-05-03T07:41:45Z</time>
      </trkpt>
      <trkpt lat="35.3108679" lon="24.4512137">
        <ele>393.7972412</ele>
        <time>2010-05-03T07:42:13Z</time>
      </trkpt>
      <trkpt lat="35.3108990" lon="24.4512153">
        <ele>391.3937988</ele>
        <time>2010-05-03T07:42:20Z</time>
      </trkpt>
      <trkpt lat="35.3108990" lon="24.4512145">
        <ele>388.5100098</ele>
        <time>2010-05-03T07:42:28Z</time>
      </trkpt>
      <trkpt lat="35.3109016" lon="24.4511802">
        <ele>388.0292969</ele>
        <time>2010-05-03T07:42:34Z</time>
      </trkpt>
      <trkpt lat="35.3108945" lon="24.4511714">
        <ele>388.0292969</ele>
        <time>2010-05-03T07:42:42Z</time>
      </trkpt>
      <trkpt lat="35.3108772" lon="24.4511582">
        <ele>389.4711914</ele>
        <time>2010-05-03T07:42:49Z</time>
      </trkpt>
      <trkpt lat="35.3108724" lon="24.4511560">
        <ele>390.4326172</ele>
        <time>2010-05-03T07:42:56Z</time>
      </trkpt>
      <trkpt lat="35.3108776" lon="24.4511166">
        <ele>389.9519043</ele>
        <time>2010-05-03T07:43:04Z</time>
      </trkpt>
      <trkpt lat="35.3108737" lon="24.4510425">
        <ele>389.4711914</ele>
        <time>2010-05-03T07:43:11Z</time>
      </trkpt>
      <trkpt lat="35.3108595" lon="24.4509828">
        <ele>390.9132080</ele>
        <time>2010-05-03T07:43:18Z</time>
      </trkpt>
      <trkpt lat="35.3108488" lon="24.4509339">
        <ele>390.9132080</ele>
        <time>2010-05-03T07:43:25Z</time>
      </trkpt>
      <trkpt lat="35.3108348" lon="24.4509046">
        <ele>390.4326172</ele>
        <time>2010-05-03T07:43:30Z</time>
      </trkpt>
      <trkpt lat="35.3108364" lon="24.4508911">
        <ele>391.8745117</ele>
        <time>2010-05-03T07:43:38Z</time>
      </trkpt>
      <trkpt lat="35.3108467" lon="24.4508392">
        <ele>394.2779541</ele>
        <time>2010-05-03T07:43:45Z</time>
      </trkpt>
      <trkpt lat="35.3108727" lon="24.4507576">
        <ele>396.6811523</ele>
        <time>2010-05-03T07:43:54Z</time>
      </trkpt>
      <trkpt lat="35.3109294" lon="24.4507087">
        <ele>397.1617432</ele>
        <time>2010-05-03T07:44:03Z</time>
      </trkpt>
      <trkpt lat="35.3110038" lon="24.4506369">
        <ele>398.1231689</ele>
        <time>2010-05-03T07:44:13Z</time>
      </trkpt>
      <trkpt lat="35.3110705" lon="24.4505566">
        <ele>401.9685059</ele>
        <time>2010-05-03T07:44:22Z</time>
      </trkpt>
      <trkpt lat="35.3111378" lon="24.4504915">
        <ele>403.4104004</ele>
        <time>2010-05-03T07:44:32Z</time>
      </trkpt>
      <trkpt lat="35.3111979" lon="24.4503981">
        <ele>404.3717041</ele>
        <time>2010-05-03T07:44:43Z</time>
      </trkpt>
      <trkpt lat="35.3111956" lon="24.4502891">
        <ele>408.6976318</ele>
        <time>2010-05-03T07:44:52Z</time>
      </trkpt>
      <trkpt lat="35.3111990" lon="24.4502044">
        <ele>411.5816650</ele>
        <time>2010-05-03T07:44:59Z</time>
      </trkpt>
      <trkpt lat="35.3112110" lon="24.4501333">
        <ele>413.5042725</ele>
        <time>2010-05-03T07:45:05Z</time>
      </trkpt>
      <trkpt lat="35.3112286" lon="24.4500847">
        <ele>415.4268799</ele>
        <time>2010-05-03T07:45:09Z</time>
      </trkpt>
      <trkpt lat="35.3112492" lon="24.4500093">
        <ele>418.3107910</ele>
        <time>2010-05-03T07:45:16Z</time>
      </trkpt>
      <trkpt lat="35.3112580" lon="24.4499447">
        <ele>418.3107910</ele>
        <time>2010-05-03T07:45:23Z</time>
      </trkpt>
      <trkpt lat="35.3112441" lon="24.4498425">
        <ele>420.2333984</ele>
        <time>2010-05-03T07:45:32Z</time>
      </trkpt>
      <trkpt lat="35.3111814" lon="24.4497827">
        <ele>419.7528076</ele>
        <time>2010-05-03T07:45:41Z</time>
      </trkpt>
      <trkpt lat="35.3111020" lon="24.4497409">
        <ele>419.2722168</ele>
        <time>2010-05-03T07:45:50Z</time>
      </trkpt>
      <trkpt lat="35.3110425" lon="24.4497002">
        <ele>418.3107910</ele>
        <time>2010-05-03T07:45:57Z</time>
      </trkpt>
      <trkpt lat="35.3109686" lon="24.4496311">
        <ele>420.7141113</ele>
        <time>2010-05-03T07:46:07Z</time>
      </trkpt>
      <trkpt lat="35.3109051" lon="24.4496091">
        <ele>420.7141113</ele>
        <time>2010-05-03T07:46:15Z</time>
      </trkpt>
      <trkpt lat="35.3108242" lon="24.4495638">
        <ele>421.6754150</ele>
        <time>2010-05-03T07:46:24Z</time>
      </trkpt>
      <trkpt lat="35.3107548" lon="24.4494687">
        <ele>423.5980225</ele>
        <time>2010-05-03T07:46:35Z</time>
      </trkpt>
      <trkpt lat="35.3107192" lon="24.4494235">
        <ele>423.5980225</ele>
        <time>2010-05-03T07:46:40Z</time>
      </trkpt>
      <trkpt lat="35.3107020" lon="24.4493692">
        <ele>422.1560059</ele>
        <time>2010-05-03T07:46:44Z</time>
      </trkpt>
      <trkpt lat="35.3106419" lon="24.4492821">
        <ele>421.1948242</ele>
        <time>2010-05-03T07:46:53Z</time>
      </trkpt>
      <trkpt lat="35.3106217" lon="24.4492688">
        <ele>421.1948242</ele>
        <time>2010-05-03T07:46:55Z</time>
      </trkpt>
      <trkpt lat="35.3105612" lon="24.4492061">
        <ele>420.7141113</ele>
        <time>2010-05-03T07:47:03Z</time>
      </trkpt>
      <trkpt lat="35.3105094" lon="24.4491184">
        <ele>422.1560059</ele>
        <time>2010-05-03T07:47:12Z</time>
      </trkpt>
      <trkpt lat="35.3104857" lon="24.4490403">
        <ele>424.0787354</ele>
        <time>2010-05-03T07:47:20Z</time>
      </trkpt>
      <trkpt lat="35.3104815" lon="24.4490284">
        <ele>426.4820557</ele>
        <time>2010-05-03T07:47:37Z</time>
      </trkpt>
      <trkpt lat="35.3104619" lon="24.4490034">
        <ele>425.5207520</ele>
        <time>2010-05-03T07:47:44Z</time>
      </trkpt>
      <trkpt lat="35.3104530" lon="24.4489816">
        <ele>425.5207520</ele>
        <time>2010-05-03T07:47:50Z</time>
      </trkpt>
      <trkpt lat="35.3104634" lon="24.4489745">
        <ele>422.1560059</ele>
        <time>2010-05-03T07:48:05Z</time>
      </trkpt>
      <trkpt lat="35.3104412" lon="24.4489709">
        <ele>422.1560059</ele>
        <time>2010-05-03T07:48:18Z</time>
      </trkpt>
      <trkpt lat="35.3104243" lon="24.4489517">
        <ele>422.1560059</ele>
        <time>2010-05-03T07:48:25Z</time>
      </trkpt>
      <trkpt lat="35.3104381" lon="24.4489362">
        <ele>420.2333984</ele>
        <time>2010-05-03T07:48:36Z</time>
      </trkpt>
      <trkpt lat="35.3104381" lon="24.4488971">
        <ele>420.2333984</ele>
        <time>2010-05-03T07:48:44Z</time>
      </trkpt>
      <trkpt lat="35.3104274" lon="24.4487959">
        <ele>420.2333984</ele>
        <time>2010-05-03T07:48:52Z</time>
      </trkpt>
      <trkpt lat="35.3104287" lon="24.4487821">
        <ele>420.2333984</ele>
        <time>2010-05-03T07:48:53Z</time>
      </trkpt>
      <trkpt lat="35.3104219" lon="24.4486483">
        <ele>421.1948242</ele>
        <time>2010-05-03T07:49:03Z</time>
      </trkpt>
      <trkpt lat="35.3104183" lon="24.4486212">
        <ele>421.6754150</ele>
        <time>2010-05-03T07:49:05Z</time>
      </trkpt>
      <trkpt lat="35.3103907" lon="24.4485767">
        <ele>419.7528076</ele>
        <time>2010-05-03T07:49:10Z</time>
      </trkpt>
      <trkpt lat="35.3103645" lon="24.4485279">
        <ele>419.7528076</ele>
        <time>2010-05-03T07:49:14Z</time>
      </trkpt>
      <trkpt lat="35.3103361" lon="24.4484822">
        <ele>421.1948242</ele>
        <time>2010-05-03T07:49:18Z</time>
      </trkpt>
      <trkpt lat="35.3102940" lon="24.4484337">
        <ele>421.1948242</ele>
        <time>2010-05-03T07:49:23Z</time>
      </trkpt>
      <trkpt lat="35.3102505" lon="24.4483862">
        <ele>422.6367188</ele>
        <time>2010-05-03T07:49:28Z</time>
      </trkpt>
      <trkpt lat="35.3101737" lon="24.4483016">
        <ele>424.0787354</ele>
        <time>2010-05-03T07:49:37Z</time>
      </trkpt>
      <trkpt lat="35.3101530" lon="24.4482142">
        <ele>424.5594482</ele>
        <time>2010-05-03T07:49:44Z</time>
      </trkpt>
      <trkpt lat="35.3101726" lon="24.4481742">
        <ele>426.4820557</ele>
        <time>2010-05-03T07:49:48Z</time>
      </trkpt>
      <trkpt lat="35.3102013" lon="24.4481565">
        <ele>426.0013428</ele>
        <time>2010-05-03T07:49:56Z</time>
      </trkpt>
      <trkpt lat="35.3102158" lon="24.4481550">
        <ele>425.0401611</ele>
        <time>2010-05-03T07:50:03Z</time>
      </trkpt>
      <trkpt lat="35.3102392" lon="24.4481519">
        <ele>424.5594482</ele>
        <time>2010-05-03T07:50:15Z</time>
      </trkpt>
      <trkpt lat="35.3102785" lon="24.4481466">
        <ele>425.5207520</ele>
        <time>2010-05-03T07:50:20Z</time>
      </trkpt>
      <trkpt lat="35.3103062" lon="24.4481341">
        <ele>426.0013428</ele>
        <time>2010-05-03T07:50:25Z</time>
      </trkpt>
      <trkpt lat="35.3103899" lon="24.4481053">
        <ele>426.0013428</ele>
        <time>2010-05-03T07:50:34Z</time>
      </trkpt>
      <trkpt lat="35.3104399" lon="24.4480877">
        <ele>426.0013428</ele>
        <time>2010-05-03T07:50:39Z</time>
      </trkpt>
      <trkpt lat="35.3105345" lon="24.4481026">
        <ele>425.5207520</ele>
        <time>2010-05-03T07:50:48Z</time>
      </trkpt>
      <trkpt lat="35.3105872" lon="24.4481463">
        <ele>427.4433594</ele>
        <time>2010-05-03T07:50:54Z</time>
      </trkpt>
      <trkpt lat="35.3106517" lon="24.4482056">
        <ele>427.4433594</ele>
        <time>2010-05-03T07:51:01Z</time>
      </trkpt>
      <trkpt lat="35.3106908" lon="24.4482377">
        <ele>426.4820557</ele>
        <time>2010-05-03T07:51:06Z</time>
      </trkpt>
      <trkpt lat="35.3107001" lon="24.4482451">
        <ele>429.3659668</ele>
        <time>2010-05-03T07:51:14Z</time>
      </trkpt>
      <trkpt lat="35.3106876" lon="24.4482213">
        <ele>433.2113037</ele>
        <time>2010-05-03T07:51:22Z</time>
      </trkpt>
      <trkpt lat="35.3106960" lon="24.4482401">
        <ele>435.6145020</ele>
        <time>2010-05-03T07:51:30Z</time>
      </trkpt>
      <trkpt lat="35.3107219" lon="24.4483067">
        <ele>432.2500000</ele>
        <time>2010-05-03T07:51:42Z</time>
      </trkpt>
      <trkpt lat="35.3107219" lon="24.4483301">
        <ele>432.2500000</ele>
        <time>2010-05-03T07:51:49Z</time>
      </trkpt>
      <trkpt lat="35.3107369" lon="24.4483377">
        <ele>434.1726074</ele>
        <time>2010-05-03T07:52:06Z</time>
      </trkpt>
      <trkpt lat="35.3107421" lon="24.4483995">
        <ele>432.7307129</ele>
        <time>2010-05-03T07:52:17Z</time>
      </trkpt>
      <trkpt lat="35.3107509" lon="24.4485167">
        <ele>430.8079834</ele>
        <time>2010-05-03T07:52:27Z</time>
      </trkpt>
      <trkpt lat="35.3107854" lon="24.4485933">
        <ele>431.2885742</ele>
        <time>2010-05-03T07:52:34Z</time>
      </trkpt>
      <trkpt lat="35.3107994" lon="24.4486559">
        <ele>429.8465576</ele>
        <time>2010-05-03T07:52:40Z</time>
      </trkpt>
      <trkpt lat="35.3108172" lon="24.4487220">
        <ele>432.2500000</ele>
        <time>2010-05-03T07:52:49Z</time>
      </trkpt>
      <trkpt lat="35.3108276" lon="24.4487314">
        <ele>431.7691650</ele>
        <time>2010-05-03T07:53:00Z</time>
      </trkpt>
      <trkpt lat="35.3108472" lon="24.4487710">
        <ele>430.8079834</ele>
        <time>2010-05-03T07:53:08Z</time>
      </trkpt>
      <trkpt lat="35.3108760" lon="24.4488305">
        <ele>434.1726074</ele>
        <time>2010-05-03T07:53:15Z</time>
      </trkpt>
      <trkpt lat="35.3109123" lon="24.4488636">
        <ele>434.6533203</ele>
        <time>2010-05-03T07:53:22Z</time>
      </trkpt>
      <trkpt lat="35.3109436" lon="24.4489035">
        <ele>435.1339111</ele>
        <time>2010-05-03T07:53:29Z</time>
      </trkpt>
      <trkpt lat="35.3109679" lon="24.4489147">
        <ele>437.5371094</ele>
        <time>2010-05-03T07:53:37Z</time>
      </trkpt>
      <trkpt lat="35.3109652" lon="24.4488383">
        <ele>438.9791260</ele>
        <time>2010-05-03T07:53:46Z</time>
      </trkpt>
      <trkpt lat="35.3109710" lon="24.4487946">
        <ele>438.9791260</ele>
        <time>2010-05-03T07:53:52Z</time>
      </trkpt>
      <trkpt lat="35.3110059" lon="24.4487270">
        <ele>438.9791260</ele>
        <time>2010-05-03T07:53:59Z</time>
      </trkpt>
      <trkpt lat="35.3110669" lon="24.4486829">
        <ele>440.9018555</ele>
        <time>2010-05-03T07:54:06Z</time>
      </trkpt>
      <trkpt lat="35.3110938" lon="24.4487093">
        <ele>443.3050537</ele>
        <time>2010-05-03T07:54:13Z</time>
      </trkpt>
      <trkpt lat="35.3110730" lon="24.4487186">
        <ele>443.7857666</ele>
        <time>2010-05-03T07:54:19Z</time>
      </trkpt>
      <trkpt lat="35.3110771" lon="24.4487143">
        <ele>441.8631592</ele>
        <time>2010-05-03T07:54:28Z</time>
      </trkpt>
      <trkpt lat="35.3110745" lon="24.4487113">
        <ele>444.2664795</ele>
        <time>2010-05-03T07:54:37Z</time>
      </trkpt>
      <trkpt lat="35.3110801" lon="24.4486764">
        <ele>448.1118164</ele>
        <time>2010-05-03T07:54:48Z</time>
      </trkpt>
      <trkpt lat="35.3110424" lon="24.4486838">
        <ele>447.1502686</ele>
        <time>2010-05-03T07:54:56Z</time>
      </trkpt>
      <trkpt lat="35.3110579" lon="24.4486913">
        <ele>447.1502686</ele>
        <time>2010-05-03T07:55:03Z</time>
      </trkpt>
      <trkpt lat="35.3110461" lon="24.4486790">
        <ele>446.1890869</ele>
        <time>2010-05-03T07:55:11Z</time>
      </trkpt>
      <trkpt lat="35.3110705" lon="24.4487044">
        <ele>445.7083740</ele>
        <time>2010-05-03T07:55:21Z</time>
      </trkpt>
      <trkpt lat="35.3110729" lon="24.4486913">
        <ele>449.0729980</ele>
        <time>2010-05-03T07:55:29Z</time>
      </trkpt>
      <trkpt lat="35.3110570" lon="24.4487241">
        <ele>444.2664795</ele>
        <time>2010-05-03T07:55:51Z</time>
      </trkpt>
      <trkpt lat="35.3110503" lon="24.4487305">
        <ele>445.2276611</ele>
        <time>2010-05-03T07:55:59Z</time>
      </trkpt>
      <trkpt lat="35.3110409" lon="24.4487198">
        <ele>444.2664795</ele>
        <time>2010-05-03T07:56:09Z</time>
      </trkpt>
      <trkpt lat="35.3110931" lon="24.4487264">
        <ele>447.1502686</ele>
        <time>2010-05-03T07:56:33Z</time>
      </trkpt>
      <trkpt lat="35.3111036" lon="24.4487655">
        <ele>449.5537109</ele>
        <time>2010-05-03T07:56:54Z</time>
      </trkpt>
      <trkpt lat="35.3111518" lon="24.4486949">
        <ele>454.8408203</ele>
        <time>2010-05-03T07:58:14Z</time>
      </trkpt>
      <trkpt lat="35.3111125" lon="24.4487630">
        <ele>448.5924072</ele>
        <time>2010-05-03T07:58:37Z</time>
      </trkpt>
      <trkpt lat="35.3110975" lon="24.4487259">
        <ele>438.4985352</ele>
        <time>2010-05-03T07:59:42Z</time>
      </trkpt>
      <trkpt lat="35.3110819" lon="24.4487124">
        <ele>441.8631592</ele>
        <time>2010-05-03T07:59:54Z</time>
      </trkpt>
      <trkpt lat="35.3110871" lon="24.4486481">
        <ele>448.5924072</ele>
        <time>2010-05-03T08:00:06Z</time>
      </trkpt>
      <trkpt lat="35.3110765" lon="24.4486620">
        <ele>445.7083740</ele>
        <time>2010-05-03T08:00:18Z</time>
      </trkpt>
      <trkpt lat="35.3110877" lon="24.4486640">
        <ele>449.0729980</ele>
        <time>2010-05-03T08:00:29Z</time>
      </trkpt>
      <trkpt lat="35.3110881" lon="24.4486641">
        <ele>448.1118164</ele>
        <time>2010-05-03T08:00:39Z</time>
      </trkpt>
      <trkpt lat="35.3110695" lon="24.4486975">
        <ele>447.1502686</ele>
        <time>2010-05-03T08:00:44Z</time>
      </trkpt>
      <trkpt lat="35.3110513" lon="24.4487353">
        <ele>446.6696777</ele>
        <time>2010-05-03T08:00:50Z</time>
      </trkpt>
      <trkpt lat="35.3110477" lon="24.4487460">
        <ele>447.1502686</ele>
        <time>2010-05-03T08:00:57Z</time>
      </trkpt>
      <trkpt lat="35.3110292" lon="24.4487692">
        <ele>444.2664795</ele>
        <time>2010-05-03T08:01:44Z</time>
      </trkpt>
      <trkpt lat="35.3110351" lon="24.4487925">
        <ele>443.7857666</ele>
        <time>2010-05-03T08:01:53Z</time>
      </trkpt>
      <trkpt lat="35.3110240" lon="24.4488087">
        <ele>442.8244629</ele>
        <time>2010-05-03T08:02:02Z</time>
      </trkpt>
      <trkpt lat="35.3110471" lon="24.4488159">
        <ele>442.3438721</ele>
        <time>2010-05-03T08:02:12Z</time>
      </trkpt>
      <trkpt lat="35.3110737" lon="24.4488409">
        <ele>443.3050537</ele>
        <time>2010-05-03T08:02:19Z</time>
      </trkpt>
      <trkpt lat="35.3110622" lon="24.4488687">
        <ele>445.2276611</ele>
        <time>2010-05-03T08:02:33Z</time>
      </trkpt>
      <trkpt lat="35.3110694" lon="24.4488708">
        <ele>443.3050537</ele>
        <time>2010-05-03T08:02:46Z</time>
      </trkpt>
      <trkpt lat="35.3110393" lon="24.4488928">
        <ele>435.6145020</ele>
        <time>2010-05-03T08:03:08Z</time>
      </trkpt>
      <trkpt lat="35.3111000" lon="24.4488094">
        <ele>435.6145020</ele>
        <time>2010-05-03T08:03:48Z</time>
      </trkpt>
      <trkpt lat="35.3111016" lon="24.4488593">
        <ele>446.1890869</ele>
        <time>2010-05-03T08:03:57Z</time>
      </trkpt>
      <trkpt lat="35.3110897" lon="24.4489023">
        <ele>454.3602295</ele>
        <time>2010-05-03T08:04:06Z</time>
      </trkpt>
      <trkpt lat="35.3110524" lon="24.4489055">
        <ele>452.4376221</ele>
        <time>2010-05-03T08:04:27Z</time>
      </trkpt>
      <trkpt lat="35.3110547" lon="24.4488871">
        <ele>448.5924072</ele>
        <time>2010-05-03T08:04:39Z</time>
      </trkpt>
      <trkpt lat="35.3110551" lon="24.4488795">
        <ele>450.5150146</ele>
        <time>2010-05-03T08:04:53Z</time>
      </trkpt>
      <trkpt lat="35.3110788" lon="24.4488378">
        <ele>450.9956055</ele>
        <time>2010-05-03T08:05:15Z</time>
      </trkpt>
      <trkpt lat="35.3110720" lon="24.4488310">
        <ele>448.5924072</ele>
        <time>2010-05-03T08:05:29Z</time>
      </trkpt>
      <trkpt lat="35.3110678" lon="24.4488298">
        <ele>447.1502686</ele>
        <time>2010-05-03T08:05:38Z</time>
      </trkpt>
      <trkpt lat="35.3110555" lon="24.4488512">
        <ele>445.2276611</ele>
        <time>2010-05-03T08:06:10Z</time>
      </trkpt>
      <trkpt lat="35.3110611" lon="24.4488785">
        <ele>447.6309814</ele>
        <time>2010-05-03T08:06:27Z</time>
      </trkpt>
      <trkpt lat="35.3110607" lon="24.4488906">
        <ele>450.0344238</ele>
        <time>2010-05-03T08:06:50Z</time>
      </trkpt>
      <trkpt lat="35.3110597" lon="24.4488563">
        <ele>448.5924072</ele>
        <time>2010-05-03T08:08:08Z</time>
      </trkpt>
      <trkpt lat="35.3110611" lon="24.4488549">
        <ele>445.2276611</ele>
        <time>2010-05-03T08:08:18Z</time>
      </trkpt>
      <trkpt lat="35.3110656" lon="24.4488629">
        <ele>445.7083740</ele>
        <time>2010-05-03T08:08:29Z</time>
      </trkpt>
      <trkpt lat="35.3110501" lon="24.4489211">
        <ele>453.8796387</ele>
        <time>2010-05-03T08:09:23Z</time>
      </trkpt>
      <trkpt lat="35.3110424" lon="24.4488834">
        <ele>447.6309814</ele>
        <time>2010-05-03T08:09:33Z</time>
      </trkpt>
      <trkpt lat="35.3110434" lon="24.4488719">
        <ele>445.7083740</ele>
        <time>2010-05-03T08:09:41Z</time>
      </trkpt>
      <trkpt lat="35.3110497" lon="24.4489041">
        <ele>454.3602295</ele>
        <time>2010-05-03T08:09:51Z</time>
      </trkpt>
      <trkpt lat="35.3110487" lon="24.4489279">
        <ele>455.3215332</ele>
        <time>2010-05-03T08:10:07Z</time>
      </trkpt>
      <trkpt lat="35.3110486" lon="24.4489429">
        <ele>455.3215332</ele>
        <time>2010-05-03T08:10:48Z</time>
      </trkpt>
      <trkpt lat="35.3110420" lon="24.4489408">
        <ele>454.8408203</ele>
        <time>2010-05-03T08:10:59Z</time>
      </trkpt>
      <trkpt lat="35.3110331" lon="24.4489185">
        <ele>453.8796387</ele>
        <time>2010-05-03T08:11:29Z</time>
      </trkpt>
      <trkpt lat="35.3110353" lon="24.4488878">
        <ele>453.3989258</ele>
        <time>2010-05-03T08:11:39Z</time>
      </trkpt>
      <trkpt lat="35.3110665" lon="24.4488657">
        <ele>453.8796387</ele>
        <time>2010-05-03T08:11:46Z</time>
      </trkpt>
      <trkpt lat="35.3110937" lon="24.4487920">
        <ele>450.9956055</ele>
        <time>2010-05-03T08:11:52Z</time>
      </trkpt>
      <trkpt lat="35.3110955" lon="24.4487195">
        <ele>447.1502686</ele>
        <time>2010-05-03T08:12:00Z</time>
      </trkpt>
      <trkpt lat="35.3110772" lon="24.4486821">
        <ele>444.7470703</ele>
        <time>2010-05-03T08:12:08Z</time>
      </trkpt>
      <trkpt lat="35.3110353" lon="24.4486875">
        <ele>441.8631592</ele>
        <time>2010-05-03T08:12:17Z</time>
      </trkpt>
      <trkpt lat="35.3110208" lon="24.4487164">
        <ele>438.9791260</ele>
        <time>2010-05-03T08:12:24Z</time>
      </trkpt>
      <trkpt lat="35.3110035" lon="24.4487502">
        <ele>438.4985352</ele>
        <time>2010-05-03T08:12:32Z</time>
      </trkpt>
      <trkpt lat="35.3109814" lon="24.4487937">
        <ele>438.0178223</ele>
        <time>2010-05-03T08:12:37Z</time>
      </trkpt>
      <trkpt lat="35.3109817" lon="24.4488731">
        <ele>433.6918945</ele>
        <time>2010-05-03T08:12:46Z</time>
      </trkpt>
      <trkpt lat="35.3109556" lon="24.4489113">
        <ele>432.7307129</ele>
        <time>2010-05-03T08:12:51Z</time>
      </trkpt>
      <trkpt lat="35.3109306" lon="24.4488781">
        <ele>430.3272705</ele>
        <time>2010-05-03T08:12:58Z</time>
      </trkpt>
      <trkpt lat="35.3108869" lon="24.4488440">
        <ele>426.0013428</ele>
        <time>2010-05-03T08:13:05Z</time>
      </trkpt>
      <trkpt lat="35.3108527" lon="24.4487891">
        <ele>423.5980225</ele>
        <time>2010-05-03T08:13:12Z</time>
      </trkpt>
      <trkpt lat="35.3108080" lon="24.4487093">
        <ele>424.0787354</ele>
        <time>2010-05-03T08:13:21Z</time>
      </trkpt>
      <trkpt lat="35.3107711" lon="24.4486160">
        <ele>423.5980225</ele>
        <time>2010-05-03T08:13:30Z</time>
      </trkpt>
      <trkpt lat="35.3107456" lon="24.4485425">
        <ele>423.5980225</ele>
        <time>2010-05-03T08:13:38Z</time>
      </trkpt>
      <trkpt lat="35.3107318" lon="24.4484781">
        <ele>424.5594482</ele>
        <time>2010-05-03T08:13:45Z</time>
      </trkpt>
      <trkpt lat="35.3107240" lon="24.4484242">
        <ele>425.0401611</ele>
        <time>2010-05-03T08:13:50Z</time>
      </trkpt>
      <trkpt lat="35.3107085" lon="24.4483384">
        <ele>426.0013428</ele>
        <time>2010-05-03T08:13:57Z</time>
      </trkpt>
      <trkpt lat="35.3106647" lon="24.4482423">
        <ele>427.9239502</ele>
        <time>2010-05-03T08:14:05Z</time>
      </trkpt>
      <trkpt lat="35.3106049" lon="24.4481732">
        <ele>428.8853760</ele>
        <time>2010-05-03T08:14:13Z</time>
      </trkpt>
      <trkpt lat="35.3105373" lon="24.4481119">
        <ele>427.9239502</ele>
        <time>2010-05-03T08:14:22Z</time>
      </trkpt>
      <trkpt lat="35.3104479" lon="24.4480799">
        <ele>427.4433594</ele>
        <time>2010-05-03T08:14:32Z</time>
      </trkpt>
      <trkpt lat="35.3104297" lon="24.4480908">
        <ele>426.9627686</ele>
        <time>2010-05-03T08:14:34Z</time>
      </trkpt>
      <trkpt lat="35.3103676" lon="24.4481116">
        <ele>427.4433594</ele>
        <time>2010-05-03T08:14:40Z</time>
      </trkpt>
      <trkpt lat="35.3102700" lon="24.4481370">
        <ele>423.5980225</ele>
        <time>2010-05-03T08:14:51Z</time>
      </trkpt>
      <trkpt lat="35.3101847" lon="24.4481660">
        <ele>423.1174316</ele>
        <time>2010-05-03T08:15:01Z</time>
      </trkpt>
      <trkpt lat="35.3101187" lon="24.4481437">
        <ele>420.7141113</ele>
        <time>2010-05-03T08:15:09Z</time>
      </trkpt>
      <trkpt lat="35.3100644" lon="24.4480727">
        <ele>421.1948242</ele>
        <time>2010-05-03T08:15:17Z</time>
      </trkpt>
      <trkpt lat="35.3100511" lon="24.4480531">
        <ele>421.1948242</ele>
        <time>2010-05-03T08:15:19Z</time>
      </trkpt>
      <trkpt lat="35.3100220" lon="24.4480110">
        <ele>421.1948242</ele>
        <time>2010-05-03T08:15:23Z</time>
      </trkpt>
      <trkpt lat="35.3099412" lon="24.4479172">
        <ele>419.7528076</ele>
        <time>2010-05-03T08:15:34Z</time>
      </trkpt>
      <trkpt lat="35.3098954" lon="24.4478483">
        <ele>419.2722168</ele>
        <time>2010-05-03T08:15:42Z</time>
      </trkpt>
      <trkpt lat="35.3098447" lon="24.4477742">
        <ele>417.8302002</ele>
        <time>2010-05-03T08:15:51Z</time>
      </trkpt>
      <trkpt lat="35.3098343" lon="24.4477250">
        <ele>418.7915039</ele>
        <time>2010-05-03T08:15:57Z</time>
      </trkpt>
      <trkpt lat="35.3098293" lon="24.4476722">
        <ele>421.6754150</ele>
        <time>2010-05-03T08:16:34Z</time>
      </trkpt>
      <trkpt lat="35.3098241" lon="24.4476487">
        <ele>425.5207520</ele>
        <time>2010-05-03T08:16:49Z</time>
      </trkpt>
      <trkpt lat="35.3098422" lon="24.4476633">
        <ele>426.0013428</ele>
        <time>2010-05-03T08:17:06Z</time>
      </trkpt>
      <trkpt lat="35.3098256" lon="24.4476814">
        <ele>424.0787354</ele>
        <time>2010-05-03T08:17:41Z</time>
      </trkpt>
      <trkpt lat="35.3098086" lon="24.4476741">
        <ele>423.5980225</ele>
        <time>2010-05-03T08:17:48Z</time>
      </trkpt>
      <trkpt lat="35.3097255" lon="24.4476365">
        <ele>421.1948242</ele>
        <time>2010-05-03T08:17:57Z</time>
      </trkpt>
      <trkpt lat="35.3097023" lon="24.4476256">
        <ele>420.7141113</ele>
        <time>2010-05-03T08:17:59Z</time>
      </trkpt>
      <trkpt lat="35.3095893" lon="24.4475780">
        <ele>419.2722168</ele>
        <time>2010-05-03T08:18:10Z</time>
      </trkpt>
      <trkpt lat="35.3095059" lon="24.4475724">
        <ele>419.2722168</ele>
        <time>2010-05-03T08:18:19Z</time>
      </trkpt>
      <trkpt lat="35.3094280" lon="24.4476068">
        <ele>417.3496094</ele>
        <time>2010-05-03T08:18:28Z</time>
      </trkpt>
      <trkpt lat="35.3094035" lon="24.4475941">
        <ele>417.3496094</ele>
        <time>2010-05-03T08:18:33Z</time>
      </trkpt>
      <trkpt lat="35.3093880" lon="24.4476177">
        <ele>415.4268799</ele>
        <time>2010-05-03T08:18:42Z</time>
      </trkpt>
      <trkpt lat="35.3093205" lon="24.4476446">
        <ele>413.9848633</ele>
        <time>2010-05-03T08:18:49Z</time>
      </trkpt>
      <trkpt lat="35.3092264" lon="24.4476265">
        <ele>410.1396484</ele>
        <time>2010-05-03T08:18:57Z</time>
      </trkpt>
      <trkpt lat="35.3091725" lon="24.4476352">
        <ele>410.1396484</ele>
        <time>2010-05-03T08:19:03Z</time>
      </trkpt>
      <trkpt lat="35.3091601" lon="24.4476474">
        <ele>411.1009521</ele>
        <time>2010-05-03T08:19:04Z</time>
      </trkpt>
      <trkpt lat="35.3090740" lon="24.4477594">
        <ele>414.9461670</ele>
        <time>2010-05-03T08:19:12Z</time>
      </trkpt>
      <trkpt lat="35.3090381" lon="24.4478230">
        <ele>413.0235596</ele>
        <time>2010-05-03T08:19:18Z</time>
      </trkpt>
      <trkpt lat="35.3090228" lon="24.4479079">
        <ele>410.1396484</ele>
        <time>2010-05-03T08:19:26Z</time>
      </trkpt>
      <trkpt lat="35.3090238" lon="24.4479152">
        <ele>410.1396484</ele>
        <time>2010-05-03T08:19:33Z</time>
      </trkpt>
      <trkpt lat="35.3090300" lon="24.4479142">
        <ele>409.6590576</ele>
        <time>2010-05-03T08:19:40Z</time>
      </trkpt>
      <trkpt lat="35.3090371" lon="24.4479135">
        <ele>410.6202393</ele>
        <time>2010-05-03T08:20:00Z</time>
      </trkpt>
      <trkpt lat="35.3090452" lon="24.4479136">
        <ele>411.1009521</ele>
        <time>2010-05-03T08:20:10Z</time>
      </trkpt>
      <trkpt lat="35.3090431" lon="24.4479228">
        <ele>412.5428467</ele>
        <time>2010-05-03T08:20:26Z</time>
      </trkpt>
      <trkpt lat="35.3090376" lon="24.4479100">
        <ele>409.6590576</ele>
        <time>2010-05-03T08:21:02Z</time>
      </trkpt>
      <trkpt lat="35.3090244" lon="24.4478238">
        <ele>408.6976318</ele>
        <time>2010-05-03T08:21:10Z</time>
      </trkpt>
      <trkpt lat="35.3090145" lon="24.4477665">
        <ele>407.2556152</ele>
        <time>2010-05-03T08:21:18Z</time>
      </trkpt>
      <trkpt lat="35.3089970" lon="24.4477337">
        <ele>412.0622559</ele>
        <time>2010-05-03T08:21:47Z</time>
      </trkpt>
      <trkpt lat="35.3089972" lon="24.4477445">
        <ele>411.1009521</ele>
        <time>2010-05-03T08:21:54Z</time>
      </trkpt>
      <trkpt lat="35.3089988" lon="24.4477148">
        <ele>410.6202393</ele>
        <time>2010-05-03T08:22:26Z</time>
      </trkpt>
      <trkpt lat="35.3089696" lon="24.4476497">
        <ele>412.0622559</ele>
        <time>2010-05-03T08:22:34Z</time>
      </trkpt>
      <trkpt lat="35.3088999" lon="24.4476409">
        <ele>411.5816650</ele>
        <time>2010-05-03T08:22:42Z</time>
      </trkpt>
      <trkpt lat="35.3088684" lon="24.4476479">
        <ele>410.6202393</ele>
        <time>2010-05-03T08:22:48Z</time>
      </trkpt>
      <trkpt lat="35.3088483" lon="24.4476482">
        <ele>411.1009521</ele>
        <time>2010-05-03T08:22:55Z</time>
      </trkpt>
      <trkpt lat="35.3088141" lon="24.4476686">
        <ele>410.1396484</ele>
        <time>2010-05-03T08:23:13Z</time>
      </trkpt>
      <trkpt lat="35.3087308" lon="24.4477026">
        <ele>410.6202393</ele>
        <time>2010-05-03T08:23:22Z</time>
      </trkpt>
      <trkpt lat="35.3086836" lon="24.4477166">
        <ele>409.1783447</ele>
        <time>2010-05-03T08:23:29Z</time>
      </trkpt>
      <trkpt lat="35.3086461" lon="24.4477078">
        <ele>408.6976318</ele>
        <time>2010-05-03T08:23:37Z</time>
      </trkpt>
      <trkpt lat="35.3086312" lon="24.4477106">
        <ele>409.6590576</ele>
        <time>2010-05-03T08:23:45Z</time>
      </trkpt>
      <trkpt lat="35.3086124" lon="24.4477006">
        <ele>408.6976318</ele>
        <time>2010-05-03T08:23:52Z</time>
      </trkpt>
      <trkpt lat="35.3086042" lon="24.4476655">
        <ele>407.2556152</ele>
        <time>2010-05-03T08:24:01Z</time>
      </trkpt>
      <trkpt lat="35.3086385" lon="24.4475811">
        <ele>405.8137207</ele>
        <time>2010-05-03T08:24:10Z</time>
      </trkpt>
      <trkpt lat="35.3086834" lon="24.4475122">
        <ele>403.8911133</ele>
        <time>2010-05-03T08:24:18Z</time>
      </trkpt>
      <trkpt lat="35.3087287" lon="24.4473999">
        <ele>401.4877930</ele>
        <time>2010-05-03T08:24:29Z</time>
      </trkpt>
      <trkpt lat="35.3087332" lon="24.4473272">
        <ele>401.0070801</ele>
        <time>2010-05-03T08:24:37Z</time>
      </trkpt>
      <trkpt lat="35.3087405" lon="24.4472646">
        <ele>399.5650635</ele>
        <time>2010-05-03T08:24:44Z</time>
      </trkpt>
      <trkpt lat="35.3087434" lon="24.4472107">
        <ele>401.0070801</ele>
        <time>2010-05-03T08:24:53Z</time>
      </trkpt>
      <trkpt lat="35.3087534" lon="24.4472116">
        <ele>403.4104004</ele>
        <time>2010-05-03T08:25:04Z</time>
      </trkpt>
      <trkpt lat="35.3087453" lon="24.4471962">
        <ele>404.8522949</ele>
        <time>2010-05-03T08:25:44Z</time>
      </trkpt>
      <trkpt lat="35.3087401" lon="24.4471888">
        <ele>404.3717041</ele>
        <time>2010-05-03T08:26:00Z</time>
      </trkpt>
      <trkpt lat="35.3087244" lon="24.4471540">
        <ele>402.9296875</ele>
        <time>2010-05-03T08:26:20Z</time>
      </trkpt>
      <trkpt lat="35.3087311" lon="24.4471326">
        <ele>407.2556152</ele>
        <time>2010-05-03T08:26:30Z</time>
      </trkpt>
      <trkpt lat="35.3087607" lon="24.4471241">
        <ele>408.2170410</ele>
        <time>2010-05-03T08:26:56Z</time>
      </trkpt>
      <trkpt lat="35.3087518" lon="24.4471496">
        <ele>408.2170410</ele>
        <time>2010-05-03T08:27:04Z</time>
      </trkpt>
      <trkpt lat="35.3087695" lon="24.4471350">
        <ele>411.5816650</ele>
        <time>2010-05-03T08:27:18Z</time>
      </trkpt>
      <trkpt lat="35.3087487" lon="24.4471150">
        <ele>414.4654541</ele>
        <time>2010-05-03T08:27:55Z</time>
      </trkpt>
      <trkpt lat="35.3087027" lon="24.4471294">
        <ele>416.3881836</ele>
        <time>2010-05-03T08:28:03Z</time>
      </trkpt>
      <trkpt lat="35.3086955" lon="24.4471339">
        <ele>418.7915039</ele>
        <time>2010-05-03T08:28:16Z</time>
      </trkpt>
      <trkpt lat="35.3087379" lon="24.4471459">
        <ele>412.5428467</ele>
        <time>2010-05-03T08:28:50Z</time>
      </trkpt>
      <trkpt lat="35.3087561" lon="24.4471049">
        <ele>414.4654541</ele>
        <time>2010-05-03T08:29:02Z</time>
      </trkpt>
      <trkpt lat="35.3087589" lon="24.4471043">
        <ele>412.5428467</ele>
        <time>2010-05-03T08:29:25Z</time>
      </trkpt>
      <trkpt lat="35.3087382" lon="24.4470759">
        <ele>410.6202393</ele>
        <time>2010-05-03T08:29:31Z</time>
      </trkpt>
      <trkpt lat="35.3087233" lon="24.4470600">
        <ele>408.2170410</ele>
        <time>2010-05-03T08:29:38Z</time>
      </trkpt>
      <trkpt lat="35.3087107" lon="24.4470645">
        <ele>406.7749023</ele>
        <time>2010-05-03T08:29:57Z</time>
      </trkpt>
      <trkpt lat="35.3087102" lon="24.4470486">
        <ele>406.2943115</ele>
        <time>2010-05-03T08:30:05Z</time>
      </trkpt>
      <trkpt lat="35.3087025" lon="24.4470480">
        <ele>404.3717041</ele>
        <time>2010-05-03T08:30:27Z</time>
      </trkpt>
      <trkpt lat="35.3087045" lon="24.4470274">
        <ele>404.3717041</ele>
        <time>2010-05-03T08:30:34Z</time>
      </trkpt>
      <trkpt lat="35.3087002" lon="24.4470215">
        <ele>404.8522949</ele>
        <time>2010-05-03T08:30:47Z</time>
      </trkpt>
      <trkpt lat="35.3086985" lon="24.4470179">
        <ele>404.8522949</ele>
        <time>2010-05-03T08:30:57Z</time>
      </trkpt>
      <trkpt lat="35.3086851" lon="24.4470077">
        <ele>404.3717041</ele>
        <time>2010-05-03T08:31:08Z</time>
      </trkpt>
      <trkpt lat="35.3086843" lon="24.4470121">
        <ele>404.8522949</ele>
        <time>2010-05-03T08:31:16Z</time>
      </trkpt>
      <trkpt lat="35.3086738" lon="24.4469935">
        <ele>404.3717041</ele>
        <time>2010-05-03T08:31:28Z</time>
      </trkpt>
      <trkpt lat="35.3086676" lon="24.4469941">
        <ele>405.3330078</ele>
        <time>2010-05-03T08:31:42Z</time>
      </trkpt>
      <trkpt lat="35.3086301" lon="24.4469440">
        <ele>405.3330078</ele>
        <time>2010-05-03T08:31:51Z</time>
      </trkpt>
      <trkpt lat="35.3085689" lon="24.4468701">
        <ele>402.4490967</ele>
        <time>2010-05-03T08:32:02Z</time>
      </trkpt>
      <trkpt lat="35.3085053" lon="24.4468209">
        <ele>401.4877930</ele>
        <time>2010-05-03T08:32:11Z</time>
      </trkpt>
      <trkpt lat="35.3084060" lon="24.4467691">
        <ele>399.0843506</ele>
        <time>2010-05-03T08:32:22Z</time>
      </trkpt>
      <trkpt lat="35.3083953" lon="24.4467662">
        <ele>398.6037598</ele>
        <time>2010-05-03T08:32:23Z</time>
      </trkpt>
      <trkpt lat="35.3083805" lon="24.4467533">
        <ele>398.6037598</ele>
        <time>2010-05-03T08:32:30Z</time>
      </trkpt>
      <trkpt lat="35.3083370" lon="24.4467326">
        <ele>398.6037598</ele>
        <time>2010-05-03T08:32:36Z</time>
      </trkpt>
      <trkpt lat="35.3082928" lon="24.4467200">
        <ele>399.5650635</ele>
        <time>2010-05-03T08:32:44Z</time>
      </trkpt>
      <trkpt lat="35.3082930" lon="24.4467217">
        <ele>403.8911133</ele>
        <time>2010-05-03T08:32:53Z</time>
      </trkpt>
      <trkpt lat="35.3082321" lon="24.4466904">
        <ele>403.4104004</ele>
        <time>2010-05-03T08:33:01Z</time>
      </trkpt>
      <trkpt lat="35.3081739" lon="24.4466376">
        <ele>401.4877930</ele>
        <time>2010-05-03T08:33:11Z</time>
      </trkpt>
      <trkpt lat="35.3081219" lon="24.4465778">
        <ele>400.0458984</ele>
        <time>2010-05-03T08:33:20Z</time>
      </trkpt>
      <trkpt lat="35.3080397" lon="24.4464809">
        <ele>396.2005615</ele>
        <time>2010-05-03T08:33:32Z</time>
      </trkpt>
      <trkpt lat="35.3079821" lon="24.4464149">
        <ele>394.7585449</ele>
        <time>2010-05-03T08:33:41Z</time>
      </trkpt>
      <trkpt lat="35.3079516" lon="24.4463843">
        <ele>393.7972412</ele>
        <time>2010-05-03T08:33:50Z</time>
      </trkpt>
      <trkpt lat="35.3079505" lon="24.4463897">
        <ele>393.7972412</ele>
        <time>2010-05-03T08:34:19Z</time>
      </trkpt>
      <trkpt lat="35.3079249" lon="24.4463678">
        <ele>393.3165283</ele>
        <time>2010-05-03T08:34:36Z</time>
      </trkpt>
      <trkpt lat="35.3078976" lon="24.4463140">
        <ele>392.8359375</ele>
        <time>2010-05-03T08:34:44Z</time>
      </trkpt>
      <trkpt lat="35.3078878" lon="24.4462954">
        <ele>392.8359375</ele>
        <time>2010-05-03T08:34:51Z</time>
      </trkpt>
      <trkpt lat="35.3078826" lon="24.4462907">
        <ele>392.3553467</ele>
        <time>2010-05-03T08:35:17Z</time>
      </trkpt>
      <trkpt lat="35.3078610" lon="24.4462200">
        <ele>390.9132080</ele>
        <time>2010-05-03T08:35:25Z</time>
      </trkpt>
      <trkpt lat="35.3078291" lon="24.4461532">
        <ele>389.9519043</ele>
        <time>2010-05-03T08:35:31Z</time>
      </trkpt>
      <trkpt lat="35.3077491" lon="24.4460833">
        <ele>388.0292969</ele>
        <time>2010-05-03T08:35:42Z</time>
      </trkpt>
      <trkpt lat="35.3076615" lon="24.4460503">
        <ele>387.5485840</ele>
        <time>2010-05-03T08:35:51Z</time>
      </trkpt>
      <trkpt lat="35.3076432" lon="24.4460463">
        <ele>387.5485840</ele>
        <time>2010-05-03T08:35:53Z</time>
      </trkpt>
      <trkpt lat="35.3075630" lon="24.4460234">
        <ele>385.6259766</ele>
        <time>2010-05-03T08:36:01Z</time>
      </trkpt>
      <trkpt lat="35.3074718" lon="24.4459892">
        <ele>383.7032471</ele>
        <time>2010-05-03T08:36:10Z</time>
      </trkpt>
      <trkpt lat="35.3073834" lon="24.4459517">
        <ele>380.8194580</ele>
        <time>2010-05-03T08:36:19Z</time>
      </trkpt>
      <trkpt lat="35.3072977" lon="24.4458908">
        <ele>382.2613525</ele>
        <time>2010-05-03T08:36:27Z</time>
      </trkpt>
      <trkpt lat="35.3071936" lon="24.4458722">
        <ele>382.7420654</ele>
        <time>2010-05-03T08:36:36Z</time>
      </trkpt>
      <trkpt lat="35.3071016" lon="24.4458898">
        <ele>382.2613525</ele>
        <time>2010-05-03T08:36:44Z</time>
      </trkpt>
      <trkpt lat="35.3070565" lon="24.4458855">
        <ele>382.2613525</ele>
        <time>2010-05-03T08:36:48Z</time>
      </trkpt>
      <trkpt lat="35.3069414" lon="24.4458517">
        <ele>380.3387451</ele>
        <time>2010-05-03T08:36:59Z</time>
      </trkpt>
      <trkpt lat="35.3068150" lon="24.4458147">
        <ele>376.0128174</ele>
        <time>2010-05-03T08:37:11Z</time>
      </trkpt>
      <trkpt lat="35.3067249" lon="24.4457697">
        <ele>375.0515137</ele>
        <time>2010-05-03T08:37:20Z</time>
      </trkpt>
      <trkpt lat="35.3066389" lon="24.4456805">
        <ele>375.5321045</ele>
        <time>2010-05-03T08:37:29Z</time>
      </trkpt>
      <trkpt lat="35.3065743" lon="24.4456036">
        <ele>375.5321045</ele>
        <time>2010-05-03T08:37:38Z</time>
      </trkpt>
      <trkpt lat="35.3065084" lon="24.4455216">
        <ele>375.5321045</ele>
        <time>2010-05-03T08:37:47Z</time>
      </trkpt>
      <trkpt lat="35.3064416" lon="24.4454234">
        <ele>376.0128174</ele>
        <time>2010-05-03T08:37:57Z</time>
      </trkpt>
      <trkpt lat="35.3064237" lon="24.4453954">
        <ele>376.0128174</ele>
        <time>2010-05-03T08:38:00Z</time>
      </trkpt>
      <trkpt lat="35.3063639" lon="24.4453635">
        <ele>375.5321045</ele>
        <time>2010-05-03T08:38:07Z</time>
      </trkpt>
      <trkpt lat="35.3063039" lon="24.4453193">
        <ele>375.0515137</ele>
        <time>2010-05-03T08:38:15Z</time>
      </trkpt>
      <trkpt lat="35.3062768" lon="24.4452501">
        <ele>375.0515137</ele>
        <time>2010-05-03T08:38:23Z</time>
      </trkpt>
      <trkpt lat="35.3062722" lon="24.4451713">
        <ele>376.0128174</ele>
        <time>2010-05-03T08:38:29Z</time>
      </trkpt>
      <trkpt lat="35.3062634" lon="24.4451221">
        <ele>376.0128174</ele>
        <time>2010-05-03T08:38:33Z</time>
      </trkpt>
      <trkpt lat="35.3062275" lon="24.4450252">
        <ele>376.0128174</ele>
        <time>2010-05-03T08:38:41Z</time>
      </trkpt>
      <trkpt lat="35.3061981" lon="24.4449424">
        <ele>377.4548340</ele>
        <time>2010-05-03T08:38:48Z</time>
      </trkpt>
      <trkpt lat="35.3061493" lon="24.4448371">
        <ele>377.9354248</ele>
        <time>2010-05-03T08:38:58Z</time>
      </trkpt>
      <trkpt lat="35.3061075" lon="24.4447482">
        <ele>378.8968506</ele>
        <time>2010-05-03T08:39:07Z</time>
      </trkpt>
      <trkpt lat="35.3060821" lon="24.4446414">
        <ele>380.3387451</ele>
        <time>2010-05-03T08:39:17Z</time>
      </trkpt>
      <trkpt lat="35.3060541" lon="24.4445282">
        <ele>380.8194580</ele>
        <time>2010-05-03T08:39:28Z</time>
      </trkpt>
      <trkpt lat="35.3059992" lon="24.4444741">
        <ele>382.2613525</ele>
        <time>2010-05-03T08:39:37Z</time>
      </trkpt>
      <trkpt lat="35.3059255" lon="24.4444611">
        <ele>381.7806396</ele>
        <time>2010-05-03T08:39:45Z</time>
      </trkpt>
      <trkpt lat="35.3058250" lon="24.4444662">
        <ele>381.7806396</ele>
        <time>2010-05-03T08:39:55Z</time>
      </trkpt>
      <trkpt lat="35.3058061" lon="24.4444647">
        <ele>381.7806396</ele>
        <time>2010-05-03T08:39:57Z</time>
      </trkpt>
      <trkpt lat="35.3057340" lon="24.4444652">
        <ele>380.8194580</ele>
        <time>2010-05-03T08:40:06Z</time>
      </trkpt>
      <trkpt lat="35.3057082" lon="24.4444932">
        <ele>380.8194580</ele>
        <time>2010-05-03T08:40:14Z</time>
      </trkpt>
      <trkpt lat="35.3057049" lon="24.4444978">
        <ele>380.3387451</ele>
        <time>2010-05-03T08:40:22Z</time>
      </trkpt>
      <trkpt lat="35.3056920" lon="24.4445321">
        <ele>381.3000488</ele>
        <time>2010-05-03T08:40:29Z</time>
      </trkpt>
      <trkpt lat="35.3056804" lon="24.4445625">
        <ele>381.7806396</ele>
        <time>2010-05-03T08:40:36Z</time>
      </trkpt>
      <trkpt lat="35.3056773" lon="24.4445847">
        <ele>381.3000488</ele>
        <time>2010-05-03T08:40:45Z</time>
      </trkpt>
      <trkpt lat="35.3056370" lon="24.4446295">
        <ele>381.3000488</ele>
        <time>2010-05-03T08:40:53Z</time>
      </trkpt>
      <trkpt lat="35.3056313" lon="24.4446386">
        <ele>381.7806396</ele>
        <time>2010-05-03T08:41:02Z</time>
      </trkpt>
      <trkpt lat="35.3056164" lon="24.4446499">
        <ele>382.7420654</ele>
        <time>2010-05-03T08:41:10Z</time>
      </trkpt>
      <trkpt lat="35.3056180" lon="24.4446428">
        <ele>382.7420654</ele>
        <time>2010-05-03T08:41:19Z</time>
      </trkpt>
      <trkpt lat="35.3056215" lon="24.4446324">
        <ele>384.1840820</ele>
        <time>2010-05-03T08:41:38Z</time>
      </trkpt>
      <trkpt lat="35.3056283" lon="24.4446332">
        <ele>384.6647949</ele>
        <time>2010-05-03T08:41:47Z</time>
      </trkpt>
      <trkpt lat="35.3056191" lon="24.4446215">
        <ele>387.0679932</ele>
        <time>2010-05-03T08:43:09Z</time>
      </trkpt>
      <trkpt lat="35.3056241" lon="24.4446191">
        <ele>387.0679932</ele>
        <time>2010-05-03T08:43:32Z</time>
      </trkpt>
      <trkpt lat="35.3056195" lon="24.4446223">
        <ele>388.0292969</ele>
        <time>2010-05-03T08:43:51Z</time>
      </trkpt>
      <trkpt lat="35.3056193" lon="24.4446268">
        <ele>388.5100098</ele>
        <time>2010-05-03T08:44:02Z</time>
      </trkpt>
      <trkpt lat="35.3056208" lon="24.4446160">
        <ele>389.9519043</ele>
        <time>2010-05-03T08:44:22Z</time>
      </trkpt>
      <trkpt lat="35.3056074" lon="24.4446388">
        <ele>387.5485840</ele>
        <time>2010-05-03T08:45:45Z</time>
      </trkpt>
      <trkpt lat="35.3056076" lon="24.4446205">
        <ele>388.5100098</ele>
        <time>2010-05-03T08:46:00Z</time>
      </trkpt>
      <trkpt lat="35.3056014" lon="24.4446191">
        <ele>385.6259766</ele>
        <time>2010-05-03T08:46:26Z</time>
      </trkpt>
      <trkpt lat="35.3056013" lon="24.4446149">
        <ele>385.1453857</ele>
        <time>2010-05-03T08:46:34Z</time>
      </trkpt>
      <trkpt lat="35.3055924" lon="24.4446153">
        <ele>384.6647949</ele>
        <time>2010-05-03T08:46:47Z</time>
      </trkpt>
      <trkpt lat="35.3055915" lon="24.4446290">
        <ele>382.7420654</ele>
        <time>2010-05-03T08:47:55Z</time>
      </trkpt>
      <trkpt lat="35.3055957" lon="24.4446268">
        <ele>384.6647949</ele>
        <time>2010-05-03T08:48:12Z</time>
      </trkpt>
      <trkpt lat="35.3056232" lon="24.4446279">
        <ele>386.1066895</ele>
        <time>2010-05-03T08:48:34Z</time>
      </trkpt>
      <trkpt lat="35.3056717" lon="24.4446127">
        <ele>385.6259766</ele>
        <time>2010-05-03T08:48:43Z</time>
      </trkpt>
      <trkpt lat="35.3056740" lon="24.4446092">
        <ele>385.1453857</ele>
        <time>2010-05-03T08:48:50Z</time>
      </trkpt>
      <trkpt lat="35.3056707" lon="24.4445977">
        <ele>385.6259766</ele>
        <time>2010-05-03T08:49:04Z</time>
      </trkpt>
      <trkpt lat="35.3056506" lon="24.4446026">
        <ele>386.1066895</ele>
        <time>2010-05-03T08:49:12Z</time>
      </trkpt>
      <trkpt lat="35.3056449" lon="24.4446176">
        <ele>388.5100098</ele>
        <time>2010-05-03T08:49:25Z</time>
      </trkpt>
      <trkpt lat="35.3056452" lon="24.4446206">
        <ele>388.0292969</ele>
        <time>2010-05-03T08:49:35Z</time>
      </trkpt>
      <trkpt lat="35.3056369" lon="24.4446262">
        <ele>387.5485840</ele>
        <time>2010-05-03T08:49:43Z</time>
      </trkpt>
      <trkpt lat="35.3056096" lon="24.4446248">
        <ele>382.2613525</ele>
        <time>2010-05-03T08:50:15Z</time>
      </trkpt>
      <trkpt lat="35.3056125" lon="24.4446306">
        <ele>383.7032471</ele>
        <time>2010-05-03T08:50:22Z</time>
      </trkpt>
      <trkpt lat="35.3056329" lon="24.4446292">
        <ele>386.1066895</ele>
        <time>2010-05-03T08:50:33Z</time>
      </trkpt>
      <trkpt lat="35.3056359" lon="24.4446227">
        <ele>386.1066895</ele>
        <time>2010-05-03T08:50:39Z</time>
      </trkpt>
      <trkpt lat="35.3056345" lon="24.4446101">
        <ele>387.0679932</ele>
        <time>2010-05-03T08:50:48Z</time>
      </trkpt>
      <trkpt lat="35.3056408" lon="24.4445958">
        <ele>384.6647949</ele>
        <time>2010-05-03T08:51:03Z</time>
      </trkpt>
      <trkpt lat="35.3056604" lon="24.4445755">
        <ele>381.7806396</ele>
        <time>2010-05-03T08:51:27Z</time>
      </trkpt>
      <trkpt lat="35.3056674" lon="24.4445609">
        <ele>382.2613525</ele>
        <time>2010-05-03T08:51:34Z</time>
      </trkpt>
      <trkpt lat="35.3056861" lon="24.4445489">
        <ele>383.2226563</ele>
        <time>2010-05-03T08:51:41Z</time>
      </trkpt>
      <trkpt lat="35.3056826" lon="24.4445403">
        <ele>383.2226563</ele>
        <time>2010-05-03T08:51:46Z</time>
      </trkpt>
      <trkpt lat="35.3056965" lon="24.4445356">
        <ele>383.2226563</ele>
        <time>2010-05-03T08:51:52Z</time>
      </trkpt>
      <trkpt lat="35.3057011" lon="24.4445180">
        <ele>383.7032471</ele>
        <time>2010-05-03T08:52:00Z</time>
      </trkpt>
      <trkpt lat="35.3057151" lon="24.4444880">
        <ele>383.7032471</ele>
        <time>2010-05-03T08:52:05Z</time>
      </trkpt>
      <trkpt lat="35.3057210" lon="24.4444445">
        <ele>383.7032471</ele>
        <time>2010-05-03T08:52:13Z</time>
      </trkpt>
      <trkpt lat="35.3057215" lon="24.4444454">
        <ele>383.2226563</ele>
        <time>2010-05-03T08:52:20Z</time>
      </trkpt>
      <trkpt lat="35.3057349" lon="24.4444552">
        <ele>382.7420654</ele>
        <time>2010-05-03T08:52:32Z</time>
      </trkpt>
      <trkpt lat="35.3057494" lon="24.4444697">
        <ele>382.2613525</ele>
        <time>2010-05-03T08:52:39Z</time>
      </trkpt>
      <trkpt lat="35.3057657" lon="24.4444749">
        <ele>381.7806396</ele>
        <time>2010-05-03T08:52:46Z</time>
      </trkpt>
      <trkpt lat="35.3057742" lon="24.4444720">
        <ele>381.7806396</ele>
        <time>2010-05-03T08:52:55Z</time>
      </trkpt>
      <trkpt lat="35.3058080" lon="24.4444648">
        <ele>381.7806396</ele>
        <time>2010-05-03T08:53:03Z</time>
      </trkpt>
      <trkpt lat="35.3058311" lon="24.4444733">
        <ele>381.7806396</ele>
        <time>2010-05-03T08:53:09Z</time>
      </trkpt>
      <trkpt lat="35.3058603" lon="24.4444761">
        <ele>381.7806396</ele>
        <time>2010-05-03T08:53:16Z</time>
      </trkpt>
      <trkpt lat="35.3058967" lon="24.4444720">
        <ele>381.7806396</ele>
        <time>2010-05-03T08:53:22Z</time>
      </trkpt>
      <trkpt lat="35.3059374" lon="24.4444657">
        <ele>382.2613525</ele>
        <time>2010-05-03T08:53:28Z</time>
      </trkpt>
      <trkpt lat="35.3059878" lon="24.4444518">
        <ele>382.2613525</ele>
        <time>2010-05-03T08:53:36Z</time>
      </trkpt>
      <trkpt lat="35.3060246" lon="24.4444343">
        <ele>382.2613525</ele>
        <time>2010-05-03T08:53:44Z</time>
      </trkpt>
      <trkpt lat="35.3060297" lon="24.4444274">
        <ele>383.2226563</ele>
        <time>2010-05-03T08:53:52Z</time>
      </trkpt>
      <trkpt lat="35.3060375" lon="24.4444066">
        <ele>383.7032471</ele>
        <time>2010-05-03T08:53:58Z</time>
      </trkpt>
      <trkpt lat="35.3060654" lon="24.4443170">
        <ele>384.6647949</ele>
        <time>2010-05-03T08:54:08Z</time>
      </trkpt>
      <trkpt lat="35.3060958" lon="24.4442276">
        <ele>385.6259766</ele>
        <time>2010-05-03T08:54:17Z</time>
      </trkpt>
      <trkpt lat="35.3061205" lon="24.4441250">
        <ele>386.1066895</ele>
        <time>2010-05-03T08:54:26Z</time>
      </trkpt>
      <trkpt lat="35.3061378" lon="24.4440539">
        <ele>386.1066895</ele>
        <time>2010-05-03T08:54:32Z</time>
      </trkpt>
      <trkpt lat="35.3061494" lon="24.4439281">
        <ele>386.1066895</ele>
        <time>2010-05-03T08:54:42Z</time>
      </trkpt>
      <trkpt lat="35.3060965" lon="24.4438105">
        <ele>387.5485840</ele>
        <time>2010-05-03T08:54:52Z</time>
      </trkpt>
      <trkpt lat="35.3060479" lon="24.4437074">
        <ele>387.0679932</ele>
        <time>2010-05-03T08:55:01Z</time>
      </trkpt>
      <trkpt lat="35.3060252" lon="24.4436478">
        <ele>386.1066895</ele>
        <time>2010-05-03T08:55:07Z</time>
      </trkpt>
      <trkpt lat="35.3059856" lon="24.4435721">
        <ele>385.6259766</ele>
        <time>2010-05-03T08:55:15Z</time>
      </trkpt>
      <trkpt lat="35.3059375" lon="24.4434705">
        <ele>385.1453857</ele>
        <time>2010-05-03T08:55:25Z</time>
      </trkpt>
      <trkpt lat="35.3059089" lon="24.4433788">
        <ele>384.6647949</ele>
        <time>2010-05-03T08:55:32Z</time>
      </trkpt>
      <trkpt lat="35.3058904" lon="24.4433443">
        <ele>385.1453857</ele>
        <time>2010-05-03T08:55:35Z</time>
      </trkpt>
      <trkpt lat="35.3058578" lon="24.4432276">
        <ele>384.1840820</ele>
        <time>2010-05-03T08:55:44Z</time>
      </trkpt>
      <trkpt lat="35.3058199" lon="24.4431225">
        <ele>383.2226563</ele>
        <time>2010-05-03T08:55:54Z</time>
      </trkpt>
      <trkpt lat="35.3058080" lon="24.4430820">
        <ele>382.7420654</ele>
        <time>2010-05-03T08:56:01Z</time>
      </trkpt>
      <trkpt lat="35.3057867" lon="24.4430303">
        <ele>381.3000488</ele>
        <time>2010-05-03T08:56:09Z</time>
      </trkpt>
      <trkpt lat="35.3057578" lon="24.4428887">
        <ele>380.8194580</ele>
        <time>2010-05-03T08:56:18Z</time>
      </trkpt>
      <trkpt lat="35.3057733" lon="24.4427552">
        <ele>380.3387451</ele>
        <time>2010-05-03T08:56:27Z</time>
      </trkpt>
      <trkpt lat="35.3057993" lon="24.4426351">
        <ele>378.8968506</ele>
        <time>2010-05-03T08:56:36Z</time>
      </trkpt>
      <trkpt lat="35.3058338" lon="24.4425113">
        <ele>377.9354248</ele>
        <time>2010-05-03T08:56:45Z</time>
      </trkpt>
      <trkpt lat="35.3058940" lon="24.4423695">
        <ele>374.5708008</ele>
        <time>2010-05-03T08:56:56Z</time>
      </trkpt>
      <trkpt lat="35.3059505" lon="24.4423217">
        <ele>372.6481934</ele>
        <time>2010-05-03T08:57:02Z</time>
      </trkpt>
      <trkpt lat="35.3060292" lon="24.4422652">
        <ele>371.2062988</ele>
        <time>2010-05-03T08:57:10Z</time>
      </trkpt>
      <trkpt lat="35.3060993" lon="24.4421943">
        <ele>370.2448730</ele>
        <time>2010-05-03T08:57:18Z</time>
      </trkpt>
      <trkpt lat="35.3061644" lon="24.4420627">
        <ele>371.6868896</ele>
        <time>2010-05-03T08:57:28Z</time>
      </trkpt>
      <trkpt lat="35.3062467" lon="24.4419354">
        <ele>373.6094971</ele>
        <time>2010-05-03T08:57:38Z</time>
      </trkpt>
      <trkpt lat="35.3063280" lon="24.4418591">
        <ele>374.5708008</ele>
        <time>2010-05-03T08:57:47Z</time>
      </trkpt>
      <trkpt lat="35.3063976" lon="24.4417819">
        <ele>374.0900879</ele>
        <time>2010-05-03T08:57:56Z</time>
      </trkpt>
      <trkpt lat="35.3064333" lon="24.4416709">
        <ele>373.6094971</ele>
        <time>2010-05-03T08:58:05Z</time>
      </trkpt>
      <trkpt lat="35.3064623" lon="24.4415206">
        <ele>373.1289063</ele>
        <time>2010-05-03T08:58:16Z</time>
      </trkpt>
      <trkpt lat="35.3065023" lon="24.4414303">
        <ele>372.1674805</ele>
        <time>2010-05-03T08:58:23Z</time>
      </trkpt>
      <trkpt lat="35.3065756" lon="24.4413058">
        <ele>371.6868896</ele>
        <time>2010-05-03T08:58:33Z</time>
      </trkpt>
      <trkpt lat="35.3065978" lon="24.4411872">
        <ele>371.2062988</ele>
        <time>2010-05-03T08:58:42Z</time>
      </trkpt>
      <trkpt lat="35.3065865" lon="24.4411628">
        <ele>371.2062988</ele>
        <time>2010-05-03T08:58:44Z</time>
      </trkpt>
      <trkpt lat="35.3064771" lon="24.4411012">
        <ele>372.1674805</ele>
        <time>2010-05-03T08:58:54Z</time>
      </trkpt>
      <trkpt lat="35.3063730" lon="24.4410008">
        <ele>373.1289063</ele>
        <time>2010-05-03T08:59:05Z</time>
      </trkpt>
      <trkpt lat="35.3062690" lon="24.4410111">
        <ele>374.5708008</ele>
        <time>2010-05-03T08:59:15Z</time>
      </trkpt>
      <trkpt lat="35.3061566" lon="24.4410510">
        <ele>374.5708008</ele>
        <time>2010-05-03T08:59:25Z</time>
      </trkpt>
      <trkpt lat="35.3060327" lon="24.4410619">
        <ele>374.5708008</ele>
        <time>2010-05-03T08:59:35Z</time>
      </trkpt>
      <trkpt lat="35.3059236" lon="24.4409899">
        <ele>375.5321045</ele>
        <time>2010-05-03T08:59:45Z</time>
      </trkpt>
      <trkpt lat="35.3058342" lon="24.4409037">
        <ele>376.9742432</ele>
        <time>2010-05-03T08:59:55Z</time>
      </trkpt>
      <trkpt lat="35.3057977" lon="24.4408640">
        <ele>377.4548340</ele>
        <time>2010-05-03T09:00:02Z</time>
      </trkpt>
      <trkpt lat="35.3057626" lon="24.4408462">
        <ele>377.4548340</ele>
        <time>2010-05-03T09:00:09Z</time>
      </trkpt>
      <trkpt lat="35.3057412" lon="24.4408454">
        <ele>377.4548340</ele>
        <time>2010-05-03T09:00:13Z</time>
      </trkpt>
      <trkpt lat="35.3056677" lon="24.4408156">
        <ele>376.0128174</ele>
        <time>2010-05-03T09:00:20Z</time>
      </trkpt>
      <trkpt lat="35.3056573" lon="24.4408094">
        <ele>376.0128174</ele>
        <time>2010-05-03T09:00:21Z</time>
      </trkpt>
      <trkpt lat="35.3055930" lon="24.4407757">
        <ele>374.5708008</ele>
        <time>2010-05-03T09:00:27Z</time>
      </trkpt>
      <trkpt lat="35.3054691" lon="24.4406806">
        <ele>373.1289063</ele>
        <time>2010-05-03T09:00:40Z</time>
      </trkpt>
      <trkpt lat="35.3054149" lon="24.4406333">
        <ele>373.6094971</ele>
        <time>2010-05-03T09:00:47Z</time>
      </trkpt>
      <trkpt lat="35.3053419" lon="24.4405967">
        <ele>373.6094971</ele>
        <time>2010-05-03T09:00:55Z</time>
      </trkpt>
      <trkpt lat="35.3052771" lon="24.4405782">
        <ele>372.1674805</ele>
        <time>2010-05-03T09:01:02Z</time>
      </trkpt>
      <trkpt lat="35.3051713" lon="24.4405553">
        <ele>368.8029785</ele>
        <time>2010-05-03T09:01:13Z</time>
      </trkpt>
      <trkpt lat="35.3050736" lon="24.4405181">
        <ele>366.8802490</ele>
        <time>2010-05-03T09:01:22Z</time>
      </trkpt>
      <trkpt lat="35.3049769" lon="24.4404854">
        <ele>365.9189453</ele>
        <time>2010-05-03T09:01:31Z</time>
      </trkpt>
      <trkpt lat="35.3048597" lon="24.4404649">
        <ele>363.9963379</ele>
        <time>2010-05-03T09:01:42Z</time>
      </trkpt>
      <trkpt lat="35.3047736" lon="24.4404632">
        <ele>363.5157471</ele>
        <time>2010-05-03T09:01:50Z</time>
      </trkpt>
      <trkpt lat="35.3046540" lon="24.4404463">
        <ele>363.5157471</ele>
        <time>2010-05-03T09:02:01Z</time>
      </trkpt>
      <trkpt lat="35.3045395" lon="24.4404310">
        <ele>363.9963379</ele>
        <time>2010-05-03T09:02:12Z</time>
      </trkpt>
      <trkpt lat="35.3044398" lon="24.4404276">
        <ele>364.4769287</ele>
        <time>2010-05-03T09:02:21Z</time>
      </trkpt>
      <trkpt lat="35.3043461" lon="24.4404185">
        <ele>364.9576416</ele>
        <time>2010-05-03T09:02:30Z</time>
      </trkpt>
      <trkpt lat="35.3042520" lon="24.4404074">
        <ele>364.4769287</ele>
        <time>2010-05-03T09:02:39Z</time>
      </trkpt>
      <trkpt lat="35.3041757" lon="24.4403880">
        <ele>364.4769287</ele>
        <time>2010-05-03T09:02:47Z</time>
      </trkpt>
      <trkpt lat="35.3040823" lon="24.4403718">
        <ele>363.5157471</ele>
        <time>2010-05-03T09:02:56Z</time>
      </trkpt>
      <trkpt lat="35.3039998" lon="24.4403704">
        <ele>362.0737305</ele>
        <time>2010-05-03T09:03:04Z</time>
      </trkpt>
      <trkpt lat="35.3038938" lon="24.4403573">
        <ele>361.1124268</ele>
        <time>2010-05-03T09:03:14Z</time>
      </trkpt>
      <trkpt lat="35.3038101" lon="24.4403508">
        <ele>361.5931396</ele>
        <time>2010-05-03T09:03:22Z</time>
      </trkpt>
      <trkpt lat="35.3037645" lon="24.4403331">
        <ele>362.0737305</ele>
        <time>2010-05-03T09:03:29Z</time>
      </trkpt>
      <trkpt lat="35.3037655" lon="24.4403300">
        <ele>362.5543213</ele>
        <time>2010-05-03T09:03:45Z</time>
      </trkpt>
      <trkpt lat="35.3037423" lon="24.4403295">
        <ele>364.9576416</ele>
        <time>2010-05-03T09:04:16Z</time>
      </trkpt>
      <trkpt lat="35.3037511" lon="24.4403278">
        <ele>363.0350342</ele>
        <time>2010-05-03T09:04:32Z</time>
      </trkpt>
      <trkpt lat="35.3037120" lon="24.4403161">
        <ele>362.5543213</ele>
        <time>2010-05-03T09:04:56Z</time>
      </trkpt>
      <trkpt lat="35.3036443" lon="24.4402717">
        <ele>362.5543213</ele>
        <time>2010-05-03T09:05:03Z</time>
      </trkpt>
      <trkpt lat="35.3035561" lon="24.4401750">
        <ele>362.5543213</ele>
        <time>2010-05-03T09:05:13Z</time>
      </trkpt>
      <trkpt lat="35.3034822" lon="24.4400570">
        <ele>362.0737305</ele>
        <time>2010-05-03T09:05:23Z</time>
      </trkpt>
      <trkpt lat="35.3034707" lon="24.4400238">
        <ele>361.5931396</ele>
        <time>2010-05-03T09:05:26Z</time>
      </trkpt>
      <trkpt lat="35.3034412" lon="24.4400048">
        <ele>360.6317139</ele>
        <time>2010-05-03T09:05:33Z</time>
      </trkpt>
      <trkpt lat="35.3033521" lon="24.4400435">
        <ele>356.7863770</ele>
        <time>2010-05-03T09:05:43Z</time>
      </trkpt>
      <trkpt lat="35.3032590" lon="24.4400586">
        <ele>353.4218750</ele>
        <time>2010-05-03T09:05:53Z</time>
      </trkpt>
      <trkpt lat="35.3032201" lon="24.4400699">
        <ele>351.4991455</ele>
        <time>2010-05-03T09:05:57Z</time>
      </trkpt>
      <trkpt lat="35.3031186" lon="24.4400932">
        <ele>348.1346436</ele>
        <time>2010-05-03T09:06:07Z</time>
      </trkpt>
      <trkpt lat="35.3030184" lon="24.4401129">
        <ele>348.1346436</ele>
        <time>2010-05-03T09:06:15Z</time>
      </trkpt>
      <trkpt lat="35.3028818" lon="24.4401227">
        <ele>347.6539307</ele>
        <time>2010-05-03T09:06:26Z</time>
      </trkpt>
      <trkpt lat="35.3027279" lon="24.4400920">
        <ele>346.2120361</ele>
        <time>2010-05-03T09:06:39Z</time>
      </trkpt>
      <trkpt lat="35.3027031" lon="24.4400913">
        <ele>346.2120361</ele>
        <time>2010-05-03T09:06:41Z</time>
      </trkpt>
      <trkpt lat="35.3026685" lon="24.4401097">
        <ele>345.7313232</ele>
        <time>2010-05-03T09:06:45Z</time>
      </trkpt>
      <trkpt lat="35.3025555" lon="24.4401803">
        <ele>343.8085938</ele>
        <time>2010-05-03T09:06:56Z</time>
      </trkpt>
      <trkpt lat="35.3024419" lon="24.4402326">
        <ele>340.9246826</ele>
        <time>2010-05-03T09:07:07Z</time>
      </trkpt>
      <trkpt lat="35.3024326" lon="24.4402355">
        <ele>340.4440918</ele>
        <time>2010-05-03T09:07:08Z</time>
      </trkpt>
      <trkpt lat="35.3023353" lon="24.4403118">
        <ele>343.8085938</ele>
        <time>2010-05-03T09:07:17Z</time>
      </trkpt>
      <trkpt lat="35.3022498" lon="24.4403849">
        <ele>348.6152344</ele>
        <time>2010-05-03T09:07:24Z</time>
      </trkpt>
      <trkpt lat="35.3021639" lon="24.4404453">
        <ele>351.0184326</ele>
        <time>2010-05-03T09:07:33Z</time>
      </trkpt>
      <trkpt lat="35.3020761" lon="24.4405312">
        <ele>349.0958252</ele>
        <time>2010-05-03T09:07:43Z</time>
      </trkpt>
      <trkpt lat="35.3020022" lon="24.4405791">
        <ele>347.6539307</ele>
        <time>2010-05-03T09:07:50Z</time>
      </trkpt>
      <trkpt lat="35.3018559" lon="24.4406647">
        <ele>349.5765381</ele>
        <time>2010-05-03T09:08:02Z</time>
      </trkpt>
      <trkpt lat="35.3017427" lon="24.4407065">
        <ele>349.5765381</ele>
        <time>2010-05-03T09:08:11Z</time>
      </trkpt>
      <trkpt lat="35.3016935" lon="24.4407017">
        <ele>349.5765381</ele>
        <time>2010-05-03T09:08:19Z</time>
      </trkpt>
      <trkpt lat="35.3016767" lon="24.4407190">
        <ele>350.5378418</ele>
        <time>2010-05-03T09:08:30Z</time>
      </trkpt>
      <trkpt lat="35.3016660" lon="24.4407392">
        <ele>351.9798584</ele>
        <time>2010-05-03T09:08:42Z</time>
      </trkpt>
      <trkpt lat="35.3016681" lon="24.4407292">
        <ele>354.3831787</ele>
        <time>2010-05-03T09:08:59Z</time>
      </trkpt>
      <trkpt lat="35.3016954" lon="24.4407392">
        <ele>354.8637695</ele>
        <time>2010-05-03T09:09:13Z</time>
      </trkpt>
      <trkpt lat="35.3017295" lon="24.4407288">
        <ele>356.3057861</ele>
        <time>2010-05-03T09:09:29Z</time>
      </trkpt>
      <trkpt lat="35.3017124" lon="24.4407151">
        <ele>355.8251953</ele>
        <time>2010-05-03T09:09:35Z</time>
      </trkpt>
      <trkpt lat="35.3017014" lon="24.4406977">
        <ele>351.9798584</ele>
        <time>2010-05-03T09:09:48Z</time>
      </trkpt>
      <trkpt lat="35.3016900" lon="24.4406937">
        <ele>351.0184326</ele>
        <time>2010-05-03T09:10:17Z</time>
      </trkpt>
      <trkpt lat="35.3016739" lon="24.4406941">
        <ele>350.0572510</ele>
        <time>2010-05-03T09:10:27Z</time>
      </trkpt>
      <trkpt lat="35.3016389" lon="24.4406639">
        <ele>349.0958252</ele>
        <time>2010-05-03T09:10:35Z</time>
      </trkpt>
      <trkpt lat="35.3015966" lon="24.4406264">
        <ele>349.0958252</ele>
        <time>2010-05-03T09:10:42Z</time>
      </trkpt>
      <trkpt lat="35.3015749" lon="24.4406181">
        <ele>349.0958252</ele>
        <time>2010-05-03T09:10:48Z</time>
      </trkpt>
      <trkpt lat="35.3015293" lon="24.4406074">
        <ele>349.0958252</ele>
        <time>2010-05-03T09:10:53Z</time>
      </trkpt>
      <trkpt lat="35.3014983" lon="24.4406602">
        <ele>349.0958252</ele>
        <time>2010-05-03T09:10:58Z</time>
      </trkpt>
      <trkpt lat="35.3015391" lon="24.4407697">
        <ele>349.0958252</ele>
        <time>2010-05-03T09:11:07Z</time>
      </trkpt>
      <trkpt lat="35.3015640" lon="24.4408464">
        <ele>348.6152344</ele>
        <time>2010-05-03T09:11:14Z</time>
      </trkpt>
      <trkpt lat="35.3015686" lon="24.4408828">
        <ele>348.1346436</ele>
        <time>2010-05-03T09:11:17Z</time>
      </trkpt>
      <trkpt lat="35.3014861" lon="24.4409732">
        <ele>344.7700195</ele>
        <time>2010-05-03T09:11:26Z</time>
      </trkpt>
      <trkpt lat="35.3014065" lon="24.4410174">
        <ele>341.8859863</ele>
        <time>2010-05-03T09:11:33Z</time>
      </trkpt>
      <trkpt lat="35.3013168" lon="24.4410852">
        <ele>339.9633789</ele>
        <time>2010-05-03T09:11:41Z</time>
      </trkpt>
      <trkpt lat="35.3011794" lon="24.4411940">
        <ele>340.4440918</ele>
        <time>2010-05-03T09:11:53Z</time>
      </trkpt>
      <trkpt lat="35.3010867" lon="24.4411862">
        <ele>341.8859863</ele>
        <time>2010-05-03T09:12:01Z</time>
      </trkpt>
      <trkpt lat="35.3010237" lon="24.4411504">
        <ele>341.4052734</ele>
        <time>2010-05-03T09:12:08Z</time>
      </trkpt>
      <trkpt lat="35.3010143" lon="24.4411464">
        <ele>341.4052734</ele>
        <time>2010-05-03T09:12:09Z</time>
      </trkpt>
      <trkpt lat="35.3009211" lon="24.4411270">
        <ele>341.4052734</ele>
        <time>2010-05-03T09:12:19Z</time>
      </trkpt>
      <trkpt lat="35.3008134" lon="24.4411054">
        <ele>340.9246826</ele>
        <time>2010-05-03T09:12:29Z</time>
      </trkpt>
      <trkpt lat="35.3007191" lon="24.4410795">
        <ele>339.4826660</ele>
        <time>2010-05-03T09:12:38Z</time>
      </trkpt>
      <trkpt lat="35.3006009" lon="24.4410777">
        <ele>340.9246826</ele>
        <time>2010-05-03T09:12:48Z</time>
      </trkpt>
      <trkpt lat="35.3004699" lon="24.4410861">
        <ele>339.9633789</ele>
        <time>2010-05-03T09:12:58Z</time>
      </trkpt>
      <trkpt lat="35.3003430" lon="24.4410971">
        <ele>339.0020752</ele>
        <time>2010-05-03T09:13:08Z</time>
      </trkpt>
      <trkpt lat="35.3002565" lon="24.4411577">
        <ele>338.0407715</ele>
        <time>2010-05-03T09:13:16Z</time>
      </trkpt>
      <trkpt lat="35.3002213" lon="24.4412479">
        <ele>339.0020752</ele>
        <time>2010-05-03T09:13:23Z</time>
      </trkpt>
      <trkpt lat="35.3001932" lon="24.4412908">
        <ele>339.4826660</ele>
        <time>2010-05-03T09:13:27Z</time>
      </trkpt>
      <trkpt lat="35.3001550" lon="24.4412902">
        <ele>339.0020752</ele>
        <time>2010-05-03T09:13:36Z</time>
      </trkpt>
      <trkpt lat="35.3001248" lon="24.4412923">
        <ele>340.4440918</ele>
        <time>2010-05-03T09:13:50Z</time>
      </trkpt>
      <trkpt lat="35.3001063" lon="24.4412929">
        <ele>342.3666992</ele>
        <time>2010-05-03T09:13:58Z</time>
      </trkpt>
      <trkpt lat="35.3000918" lon="24.4412928">
        <ele>345.2506104</ele>
        <time>2010-05-03T09:14:10Z</time>
      </trkpt>
      <trkpt lat="35.3000667" lon="24.4412566">
        <ele>344.2894287</ele>
        <time>2010-05-03T09:14:17Z</time>
      </trkpt>
      <trkpt lat="35.3000146" lon="24.4412132">
        <ele>341.8859863</ele>
        <time>2010-05-03T09:14:27Z</time>
      </trkpt>
      <trkpt lat="35.2999581" lon="24.4411897">
        <ele>340.4440918</ele>
        <time>2010-05-03T09:14:36Z</time>
      </trkpt>
      <trkpt lat="35.2998940" lon="24.4412239">
        <ele>340.9246826</ele>
        <time>2010-05-03T09:14:45Z</time>
      </trkpt>
      <trkpt lat="35.2998696" lon="24.4412965">
        <ele>341.4052734</ele>
        <time>2010-05-03T09:14:53Z</time>
      </trkpt>
      <trkpt lat="35.2998426" lon="24.4413837">
        <ele>341.8859863</ele>
        <time>2010-05-03T09:15:01Z</time>
      </trkpt>
      <trkpt lat="35.2998248" lon="24.4414414">
        <ele>341.4052734</ele>
        <time>2010-05-03T09:15:06Z</time>
      </trkpt>
      <trkpt lat="35.2997575" lon="24.4415621">
        <ele>335.6373291</ele>
        <time>2010-05-03T09:15:17Z</time>
      </trkpt>
      <trkpt lat="35.2997235" lon="24.4416908">
        <ele>333.7147217</ele>
        <time>2010-05-03T09:15:26Z</time>
      </trkpt>
      <trkpt lat="35.2997364" lon="24.4418286">
        <ele>333.2341309</ele>
        <time>2010-05-03T09:15:37Z</time>
      </trkpt>
      <trkpt lat="35.2997399" lon="24.4418570">
        <ele>333.7147217</ele>
        <time>2010-05-03T09:15:44Z</time>
      </trkpt>
      <trkpt lat="35.2997376" lon="24.4418572">
        <ele>333.7147217</ele>
        <time>2010-05-03T09:15:55Z</time>
      </trkpt>
      <trkpt lat="35.2997448" lon="24.4419083">
        <ele>332.2728271</ele>
        <time>2010-05-03T09:16:08Z</time>
      </trkpt>
      <trkpt lat="35.2997684" lon="24.4420257">
        <ele>330.3502197</ele>
        <time>2010-05-03T09:16:17Z</time>
      </trkpt>
      <trkpt lat="35.2998080" lon="24.4421272">
        <ele>326.9855957</ele>
        <time>2010-05-03T09:16:25Z</time>
      </trkpt>
      <trkpt lat="35.2998535" lon="24.4422137">
        <ele>323.6209717</ele>
        <time>2010-05-03T09:16:32Z</time>
      </trkpt>
      <trkpt lat="35.2999095" lon="24.4422817">
        <ele>321.2177734</ele>
        <time>2010-05-03T09:16:39Z</time>
      </trkpt>
      <trkpt lat="35.2999637" lon="24.4423293">
        <ele>318.8143311</ele>
        <time>2010-05-03T09:16:46Z</time>
      </trkpt>
      <trkpt lat="35.2999918" lon="24.4423523">
        <ele>317.3724365</ele>
        <time>2010-05-03T09:16:49Z</time>
      </trkpt>
      <trkpt lat="35.3000021" lon="24.4424005">
        <ele>317.8530273</ele>
        <time>2010-05-03T09:16:53Z</time>
      </trkpt>
      <trkpt lat="35.2999367" lon="24.4424919">
        <ele>318.3336182</ele>
        <time>2010-05-03T09:17:02Z</time>
      </trkpt>
      <trkpt lat="35.2998628" lon="24.4424926">
        <ele>316.4110107</ele>
        <time>2010-05-03T09:17:09Z</time>
      </trkpt>
      <trkpt lat="35.2997751" lon="24.4424640">
        <ele>314.9691162</ele>
        <time>2010-05-03T09:17:17Z</time>
      </trkpt>
      <trkpt lat="35.2996611" lon="24.4424236">
        <ele>314.9691162</ele>
        <time>2010-05-03T09:17:27Z</time>
      </trkpt>
      <trkpt lat="35.2996075" lon="24.4424097">
        <ele>314.4884033</ele>
        <time>2010-05-03T09:17:34Z</time>
      </trkpt>
      <trkpt lat="35.2995889" lon="24.4423999">
        <ele>316.8917236</ele>
        <time>2010-05-03T09:17:48Z</time>
      </trkpt>
      <trkpt lat="35.2995856" lon="24.4423926">
        <ele>315.9304199</ele>
        <time>2010-05-03T09:18:01Z</time>
      </trkpt>
      <trkpt lat="35.2995708" lon="24.4424149">
        <ele>319.7756348</ele>
        <time>2010-05-03T09:18:17Z</time>
      </trkpt>
      <trkpt lat="35.2995396" lon="24.4424088">
        <ele>318.3336182</ele>
        <time>2010-05-03T09:18:26Z</time>
      </trkpt>
      <trkpt lat="35.2994667" lon="24.4423809">
        <ele>317.8530273</ele>
        <time>2010-05-03T09:18:34Z</time>
      </trkpt>
      <trkpt lat="35.2993923" lon="24.4423471">
        <ele>317.8530273</ele>
        <time>2010-05-03T09:18:41Z</time>
      </trkpt>
      <trkpt lat="35.2993438" lon="24.4423372">
        <ele>322.1789551</ele>
        <time>2010-05-03T09:18:45Z</time>
      </trkpt>
      <trkpt lat="35.2992775" lon="24.4423217">
        <ele>332.2728271</ele>
        <time>2010-05-03T09:18:55Z</time>
      </trkpt>
      <trkpt lat="35.2992778" lon="24.4423179">
        <ele>331.3115234</ele>
        <time>2010-05-03T09:18:57Z</time>
      </trkpt>
      <trkpt lat="35.2992687" lon="24.4423006">
        <ele>331.7921143</ele>
        <time>2010-05-03T09:19:05Z</time>
      </trkpt>
      <trkpt lat="35.2992532" lon="24.4422683">
        <ele>329.3889160</ele>
        <time>2010-05-03T09:19:08Z</time>
      </trkpt>
      <trkpt lat="35.2992348" lon="24.4421778">
        <ele>329.3889160</ele>
        <time>2010-05-03T09:19:15Z</time>
      </trkpt>
      <trkpt lat="35.2992298" lon="24.4421648">
        <ele>329.8695068</ele>
        <time>2010-05-03T09:19:16Z</time>
      </trkpt>
      <trkpt lat="35.2992262" lon="24.4421418">
        <ele>328.9083252</ele>
        <time>2010-05-03T09:19:18Z</time>
      </trkpt>
      <trkpt lat="35.2992597" lon="24.4420667">
        <ele>326.9855957</ele>
        <time>2010-05-03T09:19:25Z</time>
      </trkpt>
      <trkpt lat="35.2992904" lon="24.4420311">
        <ele>325.5435791</ele>
        <time>2010-05-03T09:19:29Z</time>
      </trkpt>
      <trkpt lat="35.2993712" lon="24.4419040">
        <ele>323.6209717</ele>
        <time>2010-05-03T09:19:40Z</time>
      </trkpt>
      <trkpt lat="35.2993914" lon="24.4418230">
        <ele>322.6596680</ele>
        <time>2010-05-03T09:19:46Z</time>
      </trkpt>
      <trkpt lat="35.2993712" lon="24.4417173">
        <ele>322.1789551</ele>
        <time>2010-05-03T09:19:53Z</time>
      </trkpt>
      <trkpt lat="35.2993060" lon="24.4416016">
        <ele>322.6596680</ele>
        <time>2010-05-03T09:20:02Z</time>
      </trkpt>
      <trkpt lat="35.2992428" lon="24.4415807">
        <ele>320.7370605</ele>
        <time>2010-05-03T09:20:09Z</time>
      </trkpt>
      <trkpt lat="35.2991595" lon="24.4416329">
        <ele>318.3336182</ele>
        <time>2010-05-03T09:20:18Z</time>
      </trkpt>
      <trkpt lat="35.2990698" lon="24.4416663">
        <ele>316.8917236</ele>
        <time>2010-05-03T09:20:27Z</time>
      </trkpt>
      <trkpt lat="35.2989801" lon="24.4416581">
        <ele>318.3336182</ele>
        <time>2010-05-03T09:20:35Z</time>
      </trkpt>
      <trkpt lat="35.2988596" lon="24.4416224">
        <ele>325.5435791</ele>
        <time>2010-05-03T09:20:44Z</time>
      </trkpt>
      <trkpt lat="35.2987769" lon="24.4415826">
        <ele>327.9467773</ele>
        <time>2010-05-03T09:20:52Z</time>
      </trkpt>
      <trkpt lat="35.2986952" lon="24.4415153">
        <ele>328.4276123</ele>
        <time>2010-05-03T09:20:59Z</time>
      </trkpt>
      <trkpt lat="35.2986429" lon="24.4413955">
        <ele>326.0241699</ele>
        <time>2010-05-03T09:21:08Z</time>
      </trkpt>
      <trkpt lat="35.2985569" lon="24.4412965">
        <ele>325.0629883</ele>
        <time>2010-05-03T09:21:18Z</time>
      </trkpt>
      <trkpt lat="35.2984616" lon="24.4412291">
        <ele>325.0629883</ele>
        <time>2010-05-03T09:21:27Z</time>
      </trkpt>
      <trkpt lat="35.2983533" lon="24.4411969">
        <ele>323.6209717</ele>
        <time>2010-05-03T09:21:36Z</time>
      </trkpt>
      <trkpt lat="35.2982357" lon="24.4411423">
        <ele>322.6596680</ele>
        <time>2010-05-03T09:21:46Z</time>
      </trkpt>
      <trkpt lat="35.2981346" lon="24.4411565">
        <ele>321.2177734</ele>
        <time>2010-05-03T09:21:55Z</time>
      </trkpt>
      <trkpt lat="35.2980721" lon="24.4411923">
        <ele>321.2177734</ele>
        <time>2010-05-03T09:22:03Z</time>
      </trkpt>
      <trkpt lat="35.2980354" lon="24.4411391">
        <ele>321.6983643</ele>
        <time>2010-05-03T09:22:09Z</time>
      </trkpt>
      <trkpt lat="35.2980341" lon="24.4410826">
        <ele>322.1789551</ele>
        <time>2010-05-03T09:22:13Z</time>
      </trkpt>
      <trkpt lat="35.2980411" lon="24.4410085">
        <ele>322.1789551</ele>
        <time>2010-05-03T09:22:22Z</time>
      </trkpt>
      <trkpt lat="35.2980538" lon="24.4409495">
        <ele>321.6983643</ele>
        <time>2010-05-03T09:22:29Z</time>
      </trkpt>
      <trkpt lat="35.2980898" lon="24.4408946">
        <ele>320.2563477</ele>
        <time>2010-05-03T09:22:37Z</time>
      </trkpt>
      <trkpt lat="35.2981268" lon="24.4408260">
        <ele>320.7370605</ele>
        <time>2010-05-03T09:22:45Z</time>
      </trkpt>
      <trkpt lat="35.2981467" lon="24.4407613">
        <ele>321.6983643</ele>
        <time>2010-05-03T09:22:50Z</time>
      </trkpt>
      <trkpt lat="35.2981897" lon="24.4406271">
        <ele>323.6209717</ele>
        <time>2010-05-03T09:23:00Z</time>
      </trkpt>
      <trkpt lat="35.2982376" lon="24.4405598">
        <ele>325.0629883</ele>
        <time>2010-05-03T09:23:07Z</time>
      </trkpt>
      <trkpt lat="35.2982977" lon="24.4404755">
        <ele>325.0629883</ele>
        <time>2010-05-03T09:23:15Z</time>
      </trkpt>
      <trkpt lat="35.2983566" lon="24.4403916">
        <ele>326.5048828</ele>
        <time>2010-05-03T09:23:23Z</time>
      </trkpt>
      <trkpt lat="35.2984200" lon="24.4402978">
        <ele>326.5048828</ele>
        <time>2010-05-03T09:23:32Z</time>
      </trkpt>
      <trkpt lat="35.2984342" lon="24.4402569">
        <ele>326.5048828</ele>
        <time>2010-05-03T09:23:36Z</time>
      </trkpt>
      <trkpt lat="35.2984733" lon="24.4401682">
        <ele>330.3502197</ele>
        <time>2010-05-03T09:23:45Z</time>
      </trkpt>
      <trkpt lat="35.2984678" lon="24.4401001">
        <ele>331.7921143</ele>
        <time>2010-05-03T09:23:51Z</time>
      </trkpt>
      <trkpt lat="35.2984915" lon="24.4400295">
        <ele>333.2341309</ele>
        <time>2010-05-03T09:23:58Z</time>
      </trkpt>
      <trkpt lat="35.2985399" lon="24.4399564">
        <ele>334.6761475</ele>
        <time>2010-05-03T09:24:06Z</time>
      </trkpt>
      <trkpt lat="35.2985834" lon="24.4399232">
        <ele>335.6373291</ele>
        <time>2010-05-03T09:24:11Z</time>
      </trkpt>
      <trkpt lat="35.2986336" lon="24.4398969">
        <ele>334.6761475</ele>
        <time>2010-05-03T09:24:16Z</time>
      </trkpt>
      <trkpt lat="35.2987034" lon="24.4398354">
        <ele>334.6761475</ele>
        <time>2010-05-03T09:24:26Z</time>
      </trkpt>
      <trkpt lat="35.2987019" lon="24.4397627">
        <ele>336.5988770</ele>
        <time>2010-05-03T09:24:34Z</time>
      </trkpt>
      <trkpt lat="35.2987002" lon="24.4396928">
        <ele>338.5214844</ele>
        <time>2010-05-03T09:24:42Z</time>
      </trkpt>
      <trkpt lat="35.2987002" lon="24.4396068">
        <ele>338.0407715</ele>
        <time>2010-05-03T09:24:51Z</time>
      </trkpt>
      <trkpt lat="35.2987294" lon="24.4395617">
        <ele>336.5988770</ele>
        <time>2010-05-03T09:24:57Z</time>
      </trkpt>
      <trkpt lat="35.2987539" lon="24.4395613">
        <ele>334.6761475</ele>
        <time>2010-05-03T09:25:02Z</time>
      </trkpt>
      <trkpt lat="35.2987707" lon="24.4395266">
        <ele>336.5988770</ele>
        <time>2010-05-03T09:25:10Z</time>
      </trkpt>
      <trkpt lat="35.2987735" lon="24.4395276">
        <ele>338.0407715</ele>
        <time>2010-05-03T09:25:16Z</time>
      </trkpt>
      <trkpt lat="35.2988160" lon="24.4395571">
        <ele>339.4826660</ele>
        <time>2010-05-03T09:25:26Z</time>
      </trkpt>
      <trkpt lat="35.2988087" lon="24.4395755">
        <ele>340.9246826</ele>
        <time>2010-05-03T09:25:36Z</time>
      </trkpt>
      <trkpt lat="35.2987948" lon="24.4395328">
        <ele>341.4052734</ele>
        <time>2010-05-03T09:25:45Z</time>
      </trkpt>
      <trkpt lat="35.2988164" lon="24.4395369">
        <ele>340.4440918</ele>
        <time>2010-05-03T09:25:46Z</time>
      </trkpt>
      <trkpt lat="35.2988432" lon="24.4395182">
        <ele>338.5214844</ele>
        <time>2010-05-03T09:25:51Z</time>
      </trkpt>
      <trkpt lat="35.2989609" lon="24.4395237">
        <ele>341.4052734</ele>
        <time>2010-05-03T09:25:59Z</time>
      </trkpt>
      <trkpt lat="35.2988377" lon="24.4394943">
        <ele>348.1346436</ele>
        <time>2010-05-03T09:26:08Z</time>
      </trkpt>
      <trkpt lat="35.2975577" lon="24.4393548">
        <ele>296.2235107</ele>
        <time>2010-05-03T09:27:20Z</time>
      </trkpt>
      <trkpt lat="35.2982262" lon="24.4397182">
        <ele>270.7484131</ele>
        <time>2010-05-03T09:27:22Z</time>
      </trkpt>
      <trkpt lat="35.2987761" lon="24.4397234">
        <ele>278.9196777</ele>
        <time>2010-05-03T09:27:41Z</time>
      </trkpt>
      <trkpt lat="35.2988004" lon="24.4393455">
        <ele>329.3889160</ele>
        <time>2010-05-03T09:29:41Z</time>
      </trkpt>
      <trkpt lat="35.2988175" lon="24.4394815">
        <ele>334.6761475</ele>
        <time>2010-05-03T09:29:47Z</time>
      </trkpt>
      <trkpt lat="35.2988548" lon="24.4395321">
        <ele>345.7313232</ele>
        <time>2010-05-03T09:29:58Z</time>
      </trkpt>
      <trkpt lat="35.2989061" lon="24.4396348">
        <ele>340.4440918</ele>
        <time>2010-05-03T09:30:05Z</time>
      </trkpt>
      <trkpt lat="35.2989049" lon="24.4396471">
        <ele>339.4826660</ele>
        <time>2010-05-03T09:30:13Z</time>
      </trkpt>
      <trkpt lat="35.2988755" lon="24.4396549">
        <ele>337.0794678</ele>
        <time>2010-05-03T09:30:34Z</time>
      </trkpt>
      <trkpt lat="35.2988719" lon="24.4396569">
        <ele>337.0794678</ele>
        <time>2010-05-03T09:30:52Z</time>
      </trkpt>
      <trkpt lat="35.2988727" lon="24.4396594">
        <ele>336.5988770</ele>
        <time>2010-05-03T09:30:54Z</time>
      </trkpt>
      <trkpt lat="35.2988687" lon="24.4396445">
        <ele>340.4440918</ele>
        <time>2010-05-03T09:31:14Z</time>
      </trkpt>
      <trkpt lat="35.2988253" lon="24.4397019">
        <ele>345.2506104</ele>
        <time>2010-05-03T09:31:22Z</time>
      </trkpt>
      <trkpt lat="35.2988228" lon="24.4397601">
        <ele>345.2506104</ele>
        <time>2010-05-03T09:31:30Z</time>
      </trkpt>
      <trkpt lat="35.2988817" lon="24.4397537">
        <ele>343.3278809</ele>
        <time>2010-05-03T09:31:38Z</time>
      </trkpt>
      <trkpt lat="35.2989334" lon="24.4397035">
        <ele>338.0407715</ele>
        <time>2010-05-03T09:31:45Z</time>
      </trkpt>
      <trkpt lat="35.2989637" lon="24.4396610">
        <ele>339.9633789</ele>
        <time>2010-05-03T09:31:51Z</time>
      </trkpt>
      <trkpt lat="35.2989936" lon="24.4396489">
        <ele>339.0020752</ele>
        <time>2010-05-03T09:31:57Z</time>
      </trkpt>
      <trkpt lat="35.2990066" lon="24.4396632">
        <ele>337.0794678</ele>
        <time>2010-05-03T09:32:07Z</time>
      </trkpt>
      <trkpt lat="35.2990256" lon="24.4396607">
        <ele>334.6761475</ele>
        <time>2010-05-03T09:32:22Z</time>
      </trkpt>
      <trkpt lat="35.2990294" lon="24.4396461">
        <ele>333.7147217</ele>
        <time>2010-05-03T09:32:27Z</time>
      </trkpt>
      <trkpt lat="35.2990046" lon="24.4396499">
        <ele>338.0407715</ele>
        <time>2010-05-03T09:32:35Z</time>
      </trkpt>
      <trkpt lat="35.2990132" lon="24.4396328">
        <ele>338.0407715</ele>
        <time>2010-05-03T09:32:45Z</time>
      </trkpt>
      <trkpt lat="35.2989952" lon="24.4396256">
        <ele>340.4440918</ele>
        <time>2010-05-03T09:32:57Z</time>
      </trkpt>
      <trkpt lat="35.2989412" lon="24.4396731">
        <ele>345.2506104</ele>
        <time>2010-05-03T09:33:17Z</time>
      </trkpt>
      <trkpt lat="35.2989097" lon="24.4395810">
        <ele>352.9411621</ele>
        <time>2010-05-03T09:33:31Z</time>
      </trkpt>
      <trkpt lat="35.2989413" lon="24.4395814">
        <ele>348.1346436</ele>
        <time>2010-05-03T09:33:44Z</time>
      </trkpt>
      <trkpt lat="35.2989967" lon="24.4396534">
        <ele>335.6373291</ele>
        <time>2010-05-03T09:34:06Z</time>
      </trkpt>
      <trkpt lat="35.2989775" lon="24.4396566">
        <ele>337.5600586</ele>
        <time>2010-05-03T09:34:21Z</time>
      </trkpt>
      <trkpt lat="35.2989889" lon="24.4396559">
        <ele>337.0794678</ele>
        <time>2010-05-03T09:34:28Z</time>
      </trkpt>
      <trkpt lat="35.2989977" lon="24.4396544">
        <ele>337.5600586</ele>
        <time>2010-05-03T09:34:43Z</time>
      </trkpt>
      <trkpt lat="35.2990180" lon="24.4397342">
        <ele>326.5048828</ele>
        <time>2010-05-03T09:35:19Z</time>
      </trkpt>
      <trkpt lat="35.2990071" lon="24.4397028">
        <ele>332.2728271</ele>
        <time>2010-05-03T09:35:38Z</time>
      </trkpt>
      <trkpt lat="35.2990361" lon="24.4396263">
        <ele>327.9467773</ele>
        <time>2010-05-03T09:36:23Z</time>
      </trkpt>
      <trkpt lat="35.2990266" lon="24.4396529">
        <ele>320.7370605</ele>
        <time>2010-05-03T09:36:46Z</time>
      </trkpt>
      <trkpt lat="35.2990267" lon="24.4396517">
        <ele>320.7370605</ele>
        <time>2010-05-03T09:36:47Z</time>
      </trkpt>
      <trkpt lat="35.2989973" lon="24.4396269">
        <ele>327.4661865</ele>
        <time>2010-05-03T09:36:55Z</time>
      </trkpt>
      <trkpt lat="35.2989927" lon="24.4396064">
        <ele>335.6373291</ele>
        <time>2010-05-03T09:37:13Z</time>
      </trkpt>
      <trkpt lat="35.2990278" lon="24.4396348">
        <ele>331.3115234</ele>
        <time>2010-05-03T09:38:10Z</time>
      </trkpt>
      <trkpt lat="35.2990097" lon="24.4396286">
        <ele>333.7147217</ele>
        <time>2010-05-03T09:38:37Z</time>
      </trkpt>
      <trkpt lat="35.2990071" lon="24.4396373">
        <ele>330.8309326</ele>
        <time>2010-05-03T09:38:52Z</time>
      </trkpt>
      <trkpt lat="35.2989833" lon="24.4396307">
        <ele>331.7921143</ele>
        <time>2010-05-03T09:39:13Z</time>
      </trkpt>
      <trkpt lat="35.2990238" lon="24.4396317">
        <ele>331.7921143</ele>
        <time>2010-05-03T09:39:38Z</time>
      </trkpt>
      <trkpt lat="35.2990739" lon="24.4396745">
        <ele>324.5822754</ele>
        <time>2010-05-03T09:41:02Z</time>
      </trkpt>
      <trkpt lat="35.2990433" lon="24.4396154">
        <ele>323.6209717</ele>
        <time>2010-05-03T09:41:19Z</time>
      </trkpt>
      <trkpt lat="35.2990075" lon="24.4396378">
        <ele>330.3502197</ele>
        <time>2010-05-03T09:41:50Z</time>
      </trkpt>
      <trkpt lat="35.2990313" lon="24.4395607">
        <ele>327.4661865</ele>
        <time>2010-05-03T09:42:08Z</time>
      </trkpt>
      <trkpt lat="35.2990164" lon="24.4395320">
        <ele>330.3502197</ele>
        <time>2010-05-03T09:42:22Z</time>
      </trkpt>
      <trkpt lat="35.2989528" lon="24.4395768">
        <ele>344.7700195</ele>
        <time>2010-05-03T09:42:36Z</time>
      </trkpt>
      <trkpt lat="35.2989543" lon="24.4395891">
        <ele>347.6539307</ele>
        <time>2010-05-03T09:42:47Z</time>
      </trkpt>
      <trkpt lat="35.2989531" lon="24.4396326">
        <ele>341.8859863</ele>
        <time>2010-05-03T09:43:05Z</time>
      </trkpt>
      <trkpt lat="35.2989838" lon="24.4396227">
        <ele>331.7921143</ele>
        <time>2010-05-03T09:43:19Z</time>
      </trkpt>
      <trkpt lat="35.2989879" lon="24.4396353">
        <ele>331.7921143</ele>
        <time>2010-05-03T09:43:27Z</time>
      </trkpt>
      <trkpt lat="35.2989972" lon="24.4396250">
        <ele>330.8309326</ele>
        <time>2010-05-03T09:43:49Z</time>
      </trkpt>
      <trkpt lat="35.2989821" lon="24.4396115">
        <ele>328.9083252</ele>
        <time>2010-05-03T09:43:55Z</time>
      </trkpt>
      <trkpt lat="35.2989651" lon="24.4395738">
        <ele>328.4276123</ele>
        <time>2010-05-03T09:44:01Z</time>
      </trkpt>
      <trkpt lat="35.2989584" lon="24.4395606">
        <ele>329.8695068</ele>
        <time>2010-05-03T09:44:05Z</time>
      </trkpt>
      <trkpt lat="35.2989708" lon="24.4395637">
        <ele>331.7921143</ele>
        <time>2010-05-03T09:44:12Z</time>
      </trkpt>
      <trkpt lat="35.2989952" lon="24.4396238">
        <ele>333.2341309</ele>
        <time>2010-05-03T09:44:19Z</time>
      </trkpt>
      <trkpt lat="35.2990152" lon="24.4396586">
        <ele>333.2341309</ele>
        <time>2010-05-03T09:44:27Z</time>
      </trkpt>
      <trkpt lat="35.2990217" lon="24.4396363">
        <ele>333.2341309</ele>
        <time>2010-05-03T09:44:35Z</time>
      </trkpt>
      <trkpt lat="35.2990048" lon="24.4396403">
        <ele>331.7921143</ele>
        <time>2010-05-03T09:44:43Z</time>
      </trkpt>
      <trkpt lat="35.2989996" lon="24.4396405">
        <ele>331.7921143</ele>
        <time>2010-05-03T09:44:50Z</time>
      </trkpt>
      <trkpt lat="35.2989773" lon="24.4396425">
        <ele>334.6761475</ele>
        <time>2010-05-03T09:45:02Z</time>
      </trkpt>
      <trkpt lat="35.2989418" lon="24.4396368">
        <ele>336.1181641</ele>
        <time>2010-05-03T09:45:24Z</time>
      </trkpt>
      <trkpt lat="35.2988977" lon="24.4396564">
        <ele>342.3666992</ele>
        <time>2010-05-03T09:45:55Z</time>
      </trkpt>
      <trkpt lat="35.2989340" lon="24.4396368">
        <ele>343.3278809</ele>
        <time>2010-05-03T09:46:42Z</time>
      </trkpt>
      <trkpt lat="35.2989455" lon="24.4396563">
        <ele>341.8859863</ele>
        <time>2010-05-03T09:46:47Z</time>
      </trkpt>
      <trkpt lat="35.2989869" lon="24.4396444">
        <ele>339.9633789</ele>
        <time>2010-05-03T09:46:59Z</time>
      </trkpt>
      <trkpt lat="35.2989853" lon="24.4396318">
        <ele>336.1181641</ele>
        <time>2010-05-03T09:47:08Z</time>
      </trkpt>
      <trkpt lat="35.2990040" lon="24.4396301">
        <ele>331.3115234</ele>
        <time>2010-05-03T09:47:21Z</time>
      </trkpt>
      <trkpt lat="35.2989941" lon="24.4396002">
        <ele>330.8309326</ele>
        <time>2010-05-03T09:47:42Z</time>
      </trkpt>
      <trkpt lat="35.2989562" lon="24.4396658">
        <ele>337.0794678</ele>
        <time>2010-05-03T09:48:16Z</time>
      </trkpt>
      <trkpt lat="35.2989832" lon="24.4396612">
        <ele>334.6761475</ele>
        <time>2010-05-03T09:48:48Z</time>
      </trkpt>
      <trkpt lat="35.2989862" lon="24.4396208">
        <ele>331.7921143</ele>
        <time>2010-05-03T09:49:12Z</time>
      </trkpt>
      <trkpt lat="35.2989862" lon="24.4396389">
        <ele>333.2341309</ele>
        <time>2010-05-03T09:49:21Z</time>
      </trkpt>
      <trkpt lat="35.2989654" lon="24.4396551">
        <ele>343.3278809</ele>
        <time>2010-05-03T09:49:37Z</time>
      </trkpt>
      <trkpt lat="35.2990086" lon="24.4396380">
        <ele>339.4826660</ele>
        <time>2010-05-03T09:50:03Z</time>
      </trkpt>
      <trkpt lat="35.2990374" lon="24.4396405">
        <ele>331.7921143</ele>
        <time>2010-05-03T09:50:48Z</time>
      </trkpt>
      <trkpt lat="35.2989900" lon="24.4396503">
        <ele>337.5600586</ele>
        <time>2010-05-03T09:52:30Z</time>
      </trkpt>
      <trkpt lat="35.2989929" lon="24.4396357">
        <ele>334.6761475</ele>
        <time>2010-05-03T09:53:08Z</time>
      </trkpt>
      <trkpt lat="35.2989986" lon="24.4396229">
        <ele>338.5214844</ele>
        <time>2010-05-03T09:53:28Z</time>
      </trkpt>
      <trkpt lat="35.2990041" lon="24.4396263">
        <ele>338.5214844</ele>
        <time>2010-05-03T09:53:44Z</time>
      </trkpt>
      <trkpt lat="35.2989813" lon="24.4396742">
        <ele>342.3666992</ele>
        <time>2010-05-03T09:54:08Z</time>
      </trkpt>
      <trkpt lat="35.2989956" lon="24.4396592">
        <ele>341.8859863</ele>
        <time>2010-05-03T09:54:35Z</time>
      </trkpt>
      <trkpt lat="35.2990072" lon="24.4396446">
        <ele>344.7700195</ele>
        <time>2010-05-03T09:55:05Z</time>
      </trkpt>
      <trkpt lat="35.2990370" lon="24.4396032">
        <ele>332.2728271</ele>
        <time>2010-05-03T09:55:47Z</time>
      </trkpt>
      <trkpt lat="35.2989580" lon="24.4395576">
        <ele>325.0629883</ele>
        <time>2010-05-03T09:56:33Z</time>
      </trkpt>
      <trkpt lat="35.2989252" lon="24.4395460">
        <ele>333.7147217</ele>
        <time>2010-05-03T09:57:17Z</time>
      </trkpt>
      <trkpt lat="35.2989988" lon="24.4396097">
        <ele>336.1181641</ele>
        <time>2010-05-03T09:57:29Z</time>
      </trkpt>
      <trkpt lat="35.2990029" lon="24.4396467">
        <ele>336.1181641</ele>
        <time>2010-05-03T09:57:47Z</time>
      </trkpt>
      <trkpt lat="35.2990066" lon="24.4396626">
        <ele>338.5214844</ele>
        <time>2010-05-03T09:58:18Z</time>
      </trkpt>
      <trkpt lat="35.2989965" lon="24.4396470">
        <ele>337.0794678</ele>
        <time>2010-05-03T09:58:33Z</time>
      </trkpt>
      <trkpt lat="35.2990015" lon="24.4396498">
        <ele>335.6373291</ele>
        <time>2010-05-03T09:59:03Z</time>
      </trkpt>
      <trkpt lat="35.2989847" lon="24.4396347">
        <ele>336.5988770</ele>
        <time>2010-05-03T09:59:24Z</time>
      </trkpt>
      <trkpt lat="35.2989867" lon="24.4396406">
        <ele>338.0407715</ele>
        <time>2010-05-03T09:59:43Z</time>
      </trkpt>
      <trkpt lat="35.2989911" lon="24.4396450">
        <ele>338.0407715</ele>
        <time>2010-05-03T09:59:50Z</time>
      </trkpt>
      <trkpt lat="35.2989893" lon="24.4396539">
        <ele>337.5600586</ele>
        <time>2010-05-03T09:59:57Z</time>
      </trkpt>
      <trkpt lat="35.2989948" lon="24.4396435">
        <ele>335.6373291</ele>
        <time>2010-05-03T10:00:06Z</time>
      </trkpt>
      <trkpt lat="35.2989869" lon="24.4396384">
        <ele>335.1567383</ele>
        <time>2010-05-03T10:00:18Z</time>
      </trkpt>
      <trkpt lat="35.2989900" lon="24.4396400">
        <ele>333.7147217</ele>
        <time>2010-05-03T10:00:28Z</time>
      </trkpt>
      <trkpt lat="35.2989875" lon="24.4396405">
        <ele>330.3502197</ele>
        <time>2010-05-03T10:00:42Z</time>
      </trkpt>
      <trkpt lat="35.2989816" lon="24.4396328">
        <ele>328.4276123</ele>
        <time>2010-05-03T10:00:50Z</time>
      </trkpt>
      <trkpt lat="35.2989940" lon="24.4396307">
        <ele>329.8695068</ele>
        <time>2010-05-03T10:00:57Z</time>
      </trkpt>
      <trkpt lat="35.2990221" lon="24.4395964">
        <ele>327.9467773</ele>
        <time>2010-05-03T10:01:06Z</time>
      </trkpt>
      <trkpt lat="35.2990647" lon="24.4395782">
        <ele>328.4276123</ele>
        <time>2010-05-03T10:01:13Z</time>
      </trkpt>
      <trkpt lat="35.2991149" lon="24.4395467">
        <ele>328.9083252</ele>
        <time>2010-05-03T10:01:20Z</time>
      </trkpt>
      <trkpt lat="35.2991408" lon="24.4395116">
        <ele>329.8695068</ele>
        <time>2010-05-03T10:01:26Z</time>
      </trkpt>
      <trkpt lat="35.2991467" lon="24.4394446">
        <ele>332.2728271</ele>
        <time>2010-05-03T10:01:35Z</time>
      </trkpt>
      <trkpt lat="35.2991376" lon="24.4393969">
        <ele>333.7147217</ele>
        <time>2010-05-03T10:01:40Z</time>
      </trkpt>
      <trkpt lat="35.2991288" lon="24.4393549">
        <ele>334.1954346</ele>
        <time>2010-05-03T10:01:45Z</time>
      </trkpt>
      <trkpt lat="35.2991107" lon="24.4392991">
        <ele>334.6761475</ele>
        <time>2010-05-03T10:01:51Z</time>
      </trkpt>
      <trkpt lat="35.2990611" lon="24.4392490">
        <ele>335.1567383</ele>
        <time>2010-05-03T10:01:58Z</time>
      </trkpt>
      <trkpt lat="35.2989913" lon="24.4392359">
        <ele>335.6373291</ele>
        <time>2010-05-03T10:02:05Z</time>
      </trkpt>
      <trkpt lat="35.2989812" lon="24.4392368">
        <ele>335.6373291</ele>
        <time>2010-05-03T10:02:06Z</time>
      </trkpt>
      <trkpt lat="35.2988725" lon="24.4392587">
        <ele>336.5988770</ele>
        <time>2010-05-03T10:02:16Z</time>
      </trkpt>
      <trkpt lat="35.2987894" lon="24.4392494">
        <ele>337.0794678</ele>
        <time>2010-05-03T10:02:26Z</time>
      </trkpt>
      <trkpt lat="35.2987618" lon="24.4392431">
        <ele>339.4826660</ele>
        <time>2010-05-03T10:02:36Z</time>
      </trkpt>
      <trkpt lat="35.2987251" lon="24.4392286">
        <ele>345.2506104</ele>
        <time>2010-05-03T10:02:51Z</time>
      </trkpt>
      <trkpt lat="35.2986756" lon="24.4391835">
        <ele>345.2506104</ele>
        <time>2010-05-03T10:02:59Z</time>
      </trkpt>
      <trkpt lat="35.2986072" lon="24.4391836">
        <ele>346.2120361</ele>
        <time>2010-05-03T10:03:07Z</time>
      </trkpt>
      <trkpt lat="35.2985246" lon="24.4391754">
        <ele>346.6926270</ele>
        <time>2010-05-03T10:03:16Z</time>
      </trkpt>
      <trkpt lat="35.2984879" lon="24.4390784">
        <ele>345.2506104</ele>
        <time>2010-05-03T10:03:25Z</time>
      </trkpt>
      <trkpt lat="35.2984809" lon="24.4390433">
        <ele>344.2894287</ele>
        <time>2010-05-03T10:03:28Z</time>
      </trkpt>
      <trkpt lat="35.2984741" lon="24.4389826">
        <ele>342.8472900</ele>
        <time>2010-05-03T10:03:33Z</time>
      </trkpt>
      <trkpt lat="35.2984832" lon="24.4388459">
        <ele>339.9633789</ele>
        <time>2010-05-03T10:03:44Z</time>
      </trkpt>
      <trkpt lat="35.2985086" lon="24.4386942">
        <ele>337.0794678</ele>
        <time>2010-05-03T10:03:56Z</time>
      </trkpt>
      <trkpt lat="35.2985273" lon="24.4385713">
        <ele>334.1954346</ele>
        <time>2010-05-03T10:04:06Z</time>
      </trkpt>
      <trkpt lat="35.2985305" lon="24.4385480">
        <ele>333.7147217</ele>
        <time>2010-05-03T10:04:08Z</time>
      </trkpt>
      <trkpt lat="35.2985295" lon="24.4384703">
        <ele>332.2728271</ele>
        <time>2010-05-03T10:04:14Z</time>
      </trkpt>
      <trkpt lat="35.2985119" lon="24.4383413">
        <ele>333.2341309</ele>
        <time>2010-05-03T10:04:24Z</time>
      </trkpt>
      <trkpt lat="35.2984772" lon="24.4382287">
        <ele>334.6761475</ele>
        <time>2010-05-03T10:04:33Z</time>
      </trkpt>
      <trkpt lat="35.2984424" lon="24.4381305">
        <ele>335.6373291</ele>
        <time>2010-05-03T10:04:41Z</time>
      </trkpt>
      <trkpt lat="35.2984172" lon="24.4380285">
        <ele>335.1567383</ele>
        <time>2010-05-03T10:04:50Z</time>
      </trkpt>
      <trkpt lat="35.2983922" lon="24.4379352">
        <ele>333.2341309</ele>
        <time>2010-05-03T10:04:59Z</time>
      </trkpt>
      <trkpt lat="35.2983718" lon="24.4378466">
        <ele>339.4826660</ele>
        <time>2010-05-03T10:05:06Z</time>
      </trkpt>
      <trkpt lat="35.2983724" lon="24.4378249">
        <ele>340.4440918</ele>
        <time>2010-05-03T10:05:08Z</time>
      </trkpt>
      <trkpt lat="35.2983938" lon="24.4377138">
        <ele>343.3278809</ele>
        <time>2010-05-03T10:05:20Z</time>
      </trkpt>
      <trkpt lat="35.2984191" lon="24.4376243">
        <ele>343.8085938</ele>
        <time>2010-05-03T10:05:29Z</time>
      </trkpt>
      <trkpt lat="35.2984567" lon="24.4375279">
        <ele>344.2894287</ele>
        <time>2010-05-03T10:05:39Z</time>
      </trkpt>
      <trkpt lat="35.2984777" lon="24.4374426">
        <ele>345.7313232</ele>
        <time>2010-05-03T10:05:47Z</time>
      </trkpt>
      <trkpt lat="35.2984832" lon="24.4374037">
        <ele>347.1732178</ele>
        <time>2010-05-03T10:05:53Z</time>
      </trkpt>
      <trkpt lat="35.2984818" lon="24.4373789">
        <ele>348.1346436</ele>
        <time>2010-05-03T10:06:02Z</time>
      </trkpt>
      <trkpt lat="35.2984782" lon="24.4373717">
        <ele>349.0958252</ele>
        <time>2010-05-03T10:06:11Z</time>
      </trkpt>
      <trkpt lat="35.2984773" lon="24.4373726">
        <ele>350.5378418</ele>
        <time>2010-05-03T10:06:17Z</time>
      </trkpt>
      <trkpt lat="35.2984806" lon="24.4373688">
        <ele>352.9411621</ele>
        <time>2010-05-03T10:06:31Z</time>
      </trkpt>
      <trkpt lat="35.2984951" lon="24.4373760">
        <ele>352.9411621</ele>
        <time>2010-05-03T10:06:37Z</time>
      </trkpt>
      <trkpt lat="35.2985160" lon="24.4373636">
        <ele>352.9411621</ele>
        <time>2010-05-03T10:06:45Z</time>
      </trkpt>
      <trkpt lat="35.2984854" lon="24.4373468">
        <ele>354.8637695</ele>
        <time>2010-05-03T10:06:52Z</time>
      </trkpt>
      <trkpt lat="35.2984968" lon="24.4373043">
        <ele>354.8637695</ele>
        <time>2010-05-03T10:06:58Z</time>
      </trkpt>
      <trkpt lat="35.2984999" lon="24.4372844">
        <ele>355.3444824</ele>
        <time>2010-05-03T10:07:05Z</time>
      </trkpt>
      <trkpt lat="35.2984433" lon="24.4372637">
        <ele>355.3444824</ele>
        <time>2010-05-03T10:07:14Z</time>
      </trkpt>
      <trkpt lat="35.2983762" lon="24.4372120">
        <ele>355.3444824</ele>
        <time>2010-05-03T10:07:23Z</time>
      </trkpt>
      <trkpt lat="35.2983254" lon="24.4371531">
        <ele>355.8251953</ele>
        <time>2010-05-03T10:07:31Z</time>
      </trkpt>
      <trkpt lat="35.2982653" lon="24.4370854">
        <ele>356.3057861</ele>
        <time>2010-05-03T10:07:40Z</time>
      </trkpt>
      <trkpt lat="35.2982092" lon="24.4370217">
        <ele>357.7478027</ele>
        <time>2010-05-03T10:07:49Z</time>
      </trkpt>
      <trkpt lat="35.2981399" lon="24.4369525">
        <ele>359.1896973</ele>
        <time>2010-05-03T10:07:59Z</time>
      </trkpt>
      <trkpt lat="35.2980766" lon="24.4368887">
        <ele>361.1124268</ele>
        <time>2010-05-03T10:08:08Z</time>
      </trkpt>
      <trkpt lat="35.2980102" lon="24.4368299">
        <ele>362.5543213</ele>
        <time>2010-05-03T10:08:17Z</time>
      </trkpt>
      <trkpt lat="35.2980094" lon="24.4368136">
        <ele>362.0737305</ele>
        <time>2010-05-03T10:08:23Z</time>
      </trkpt>
      <trkpt lat="35.2979766" lon="24.4367841">
        <ele>362.5543213</ele>
        <time>2010-05-03T10:08:31Z</time>
      </trkpt>
      <trkpt lat="35.2979149" lon="24.4367377">
        <ele>363.9963379</ele>
        <time>2010-05-03T10:08:40Z</time>
      </trkpt>
      <trkpt lat="35.2978846" lon="24.4367174">
        <ele>364.4769287</ele>
        <time>2010-05-03T10:08:48Z</time>
      </trkpt>
      <trkpt lat="35.2978798" lon="24.4367164">
        <ele>365.9189453</ele>
        <time>2010-05-03T10:09:07Z</time>
      </trkpt>
      <trkpt lat="35.2978772" lon="24.4367114">
        <ele>366.3995361</ele>
        <time>2010-05-03T10:09:25Z</time>
      </trkpt>
      <trkpt lat="35.2978748" lon="24.4367115">
        <ele>367.3609619</ele>
        <time>2010-05-03T10:09:36Z</time>
      </trkpt>
      <trkpt lat="35.2978707" lon="24.4367065">
        <ele>365.9189453</ele>
        <time>2010-05-03T10:10:38Z</time>
      </trkpt>
      <trkpt lat="35.2978628" lon="24.4367101">
        <ele>364.9576416</ele>
        <time>2010-05-03T10:11:39Z</time>
      </trkpt>
      <trkpt lat="35.2978569" lon="24.4367171">
        <ele>367.8415527</ele>
        <time>2010-05-03T10:11:46Z</time>
      </trkpt>
      <trkpt lat="35.2978610" lon="24.4367232">
        <ele>368.3222656</ele>
        <time>2010-05-03T10:11:55Z</time>
      </trkpt>
      <trkpt lat="35.2978672" lon="24.4366885">
        <ele>361.1124268</ele>
        <time>2010-05-03T10:12:27Z</time>
      </trkpt>
      <trkpt lat="35.2978693" lon="24.4366923">
        <ele>361.5931396</ele>
        <time>2010-05-03T10:12:34Z</time>
      </trkpt>
      <trkpt lat="35.2978709" lon="24.4366908">
        <ele>360.6317139</ele>
        <time>2010-05-03T10:12:46Z</time>
      </trkpt>
      <trkpt lat="35.2978732" lon="24.4366935">
        <ele>361.1124268</ele>
        <time>2010-05-03T10:12:54Z</time>
      </trkpt>
      <trkpt lat="35.2978404" lon="24.4367092">
        <ele>367.3609619</ele>
        <time>2010-05-03T10:14:10Z</time>
      </trkpt>
      <trkpt lat="35.2977973" lon="24.4366693">
        <ele>365.9189453</ele>
        <time>2010-05-03T10:14:19Z</time>
      </trkpt>
      <trkpt lat="35.2977536" lon="24.4366204">
        <ele>367.8415527</ele>
        <time>2010-05-03T10:14:28Z</time>
      </trkpt>
      <trkpt lat="35.2977214" lon="24.4365872">
        <ele>369.2836914</ele>
        <time>2010-05-03T10:14:35Z</time>
      </trkpt>
      <trkpt lat="35.2976851" lon="24.4365423">
        <ele>372.1674805</ele>
        <time>2010-05-03T10:14:44Z</time>
      </trkpt>
      <trkpt lat="35.2976441" lon="24.4365089">
        <ele>374.0900879</ele>
        <time>2010-05-03T10:14:51Z</time>
      </trkpt>
      <trkpt lat="35.2975995" lon="24.4364714">
        <ele>375.5321045</ele>
        <time>2010-05-03T10:14:58Z</time>
      </trkpt>
      <trkpt lat="35.2975665" lon="24.4364250">
        <ele>375.5321045</ele>
        <time>2010-05-03T10:15:06Z</time>
      </trkpt>
      <trkpt lat="35.2975632" lon="24.4364175">
        <ele>376.4935303</ele>
        <time>2010-05-03T10:15:15Z</time>
      </trkpt>
      <trkpt lat="35.2975483" lon="24.4363905">
        <ele>377.4548340</ele>
        <time>2010-05-03T10:15:21Z</time>
      </trkpt>
      <trkpt lat="35.2975323" lon="24.4363848">
        <ele>377.4548340</ele>
        <time>2010-05-03T10:15:28Z</time>
      </trkpt>
      <trkpt lat="35.2975182" lon="24.4363857">
        <ele>378.4161377</ele>
        <time>2010-05-03T10:15:37Z</time>
      </trkpt>
      <trkpt lat="35.2975064" lon="24.4363692">
        <ele>379.3774414</ele>
        <time>2010-05-03T10:15:50Z</time>
      </trkpt>
      <trkpt lat="35.2974997" lon="24.4363486">
        <ele>378.4161377</ele>
        <time>2010-05-03T10:15:56Z</time>
      </trkpt>
      <trkpt lat="35.2974748" lon="24.4363231">
        <ele>378.4161377</ele>
        <time>2010-05-03T10:16:03Z</time>
      </trkpt>
      <trkpt lat="35.2974561" lon="24.4363009">
        <ele>379.8580322</ele>
        <time>2010-05-03T10:16:11Z</time>
      </trkpt>
      <trkpt lat="35.2974350" lon="24.4362971">
        <ele>380.8194580</ele>
        <time>2010-05-03T10:16:19Z</time>
      </trkpt>
      <trkpt lat="35.2974281" lon="24.4362978">
        <ele>380.8194580</ele>
        <time>2010-05-03T10:16:26Z</time>
      </trkpt>
      <trkpt lat="35.2974143" lon="24.4363034">
        <ele>380.8194580</ele>
        <time>2010-05-03T10:16:33Z</time>
      </trkpt>
      <trkpt lat="35.2974122" lon="24.4362890">
        <ele>380.8194580</ele>
        <time>2010-05-03T10:16:40Z</time>
      </trkpt>
      <trkpt lat="35.2974138" lon="24.4362474">
        <ele>380.3387451</ele>
        <time>2010-05-03T10:16:46Z</time>
      </trkpt>
      <trkpt lat="35.2974044" lon="24.4362364">
        <ele>381.3000488</ele>
        <time>2010-05-03T10:16:53Z</time>
      </trkpt>
      <trkpt lat="35.2973789" lon="24.4362240">
        <ele>382.7420654</ele>
        <time>2010-05-03T10:17:00Z</time>
      </trkpt>
      <trkpt lat="35.2973443" lon="24.4361890">
        <ele>383.7032471</ele>
        <time>2010-05-03T10:17:08Z</time>
      </trkpt>
      <trkpt lat="35.2973177" lon="24.4361842">
        <ele>384.1840820</ele>
        <time>2010-05-03T10:17:15Z</time>
      </trkpt>
      <trkpt lat="35.2972926" lon="24.4361579">
        <ele>385.6259766</ele>
        <time>2010-05-03T10:17:22Z</time>
      </trkpt>
      <trkpt lat="35.2972698" lon="24.4361341">
        <ele>387.0679932</ele>
        <time>2010-05-03T10:17:28Z</time>
      </trkpt>
      <trkpt lat="35.2972192" lon="24.4361033">
        <ele>388.9906006</ele>
        <time>2010-05-03T10:17:37Z</time>
      </trkpt>
      <trkpt lat="35.2971982" lon="24.4361020">
        <ele>389.9519043</ele>
        <time>2010-05-03T10:17:42Z</time>
      </trkpt>
      <trkpt lat="35.2971443" lon="24.4361026">
        <ele>390.9132080</ele>
        <time>2010-05-03T10:17:48Z</time>
      </trkpt>
      <trkpt lat="35.2971064" lon="24.4360972">
        <ele>392.3553467</ele>
        <time>2010-05-03T10:17:54Z</time>
      </trkpt>
      <trkpt lat="35.2970992" lon="24.4360907">
        <ele>392.3553467</ele>
        <time>2010-05-03T10:18:01Z</time>
      </trkpt>
      <trkpt lat="35.2971081" lon="24.4360767">
        <ele>391.8745117</ele>
        <time>2010-05-03T10:18:14Z</time>
      </trkpt>
      <trkpt lat="35.2971130" lon="24.4360616">
        <ele>392.3553467</ele>
        <time>2010-05-03T10:18:22Z</time>
      </trkpt>
      <trkpt lat="35.2970903" lon="24.4360221">
        <ele>393.3165283</ele>
        <time>2010-05-03T10:18:30Z</time>
      </trkpt>
      <trkpt lat="35.2970797" lon="24.4359875">
        <ele>394.2779541</ele>
        <time>2010-05-03T10:18:36Z</time>
      </trkpt>
      <trkpt lat="35.2971003" lon="24.4359319">
        <ele>396.2005615</ele>
        <time>2010-05-03T10:18:43Z</time>
      </trkpt>
      <trkpt lat="35.2970970" lon="24.4358832">
        <ele>398.1231689</ele>
        <time>2010-05-03T10:18:50Z</time>
      </trkpt>
      <trkpt lat="35.2970876" lon="24.4358211">
        <ele>400.0458984</ele>
        <time>2010-05-03T10:18:58Z</time>
      </trkpt>
      <trkpt lat="35.2970815" lon="24.4357733">
        <ele>400.5264893</ele>
        <time>2010-05-03T10:19:04Z</time>
      </trkpt>
      <trkpt lat="35.2970563" lon="24.4357055">
        <ele>400.5264893</ele>
        <time>2010-05-03T10:19:11Z</time>
      </trkpt>
      <trkpt lat="35.2970433" lon="24.4356418">
        <ele>401.0070801</ele>
        <time>2010-05-03T10:19:18Z</time>
      </trkpt>
      <trkpt lat="35.2970268" lon="24.4355845">
        <ele>401.4877930</ele>
        <time>2010-05-03T10:19:24Z</time>
      </trkpt>
      <trkpt lat="35.2970043" lon="24.4355170">
        <ele>401.4877930</ele>
        <time>2010-05-03T10:19:32Z</time>
      </trkpt>
      <trkpt lat="35.2969937" lon="24.4354682">
        <ele>401.9685059</ele>
        <time>2010-05-03T10:19:38Z</time>
      </trkpt>
      <trkpt lat="35.2969769" lon="24.4354436">
        <ele>401.9685059</ele>
        <time>2010-05-03T10:19:43Z</time>
      </trkpt>
      <trkpt lat="35.2969512" lon="24.4353926">
        <ele>402.9296875</ele>
        <time>2010-05-03T10:19:49Z</time>
      </trkpt>
      <trkpt lat="35.2969169" lon="24.4353394">
        <ele>403.4104004</ele>
        <time>2010-05-03T10:19:56Z</time>
      </trkpt>
      <trkpt lat="35.2968879" lon="24.4353126">
        <ele>403.4104004</ele>
        <time>2010-05-03T10:20:03Z</time>
      </trkpt>
      <trkpt lat="35.2968727" lon="24.4352722">
        <ele>403.8911133</ele>
        <time>2010-05-03T10:20:09Z</time>
      </trkpt>
      <trkpt lat="35.2968530" lon="24.4352130">
        <ele>405.3330078</ele>
        <time>2010-05-03T10:20:15Z</time>
      </trkpt>
      <trkpt lat="35.2968141" lon="24.4351518">
        <ele>406.2943115</ele>
        <time>2010-05-03T10:20:23Z</time>
      </trkpt>
      <trkpt lat="35.2967645" lon="24.4351155">
        <ele>407.2556152</ele>
        <time>2010-05-03T10:20:30Z</time>
      </trkpt>
      <trkpt lat="35.2967139" lon="24.4350939">
        <ele>408.2170410</ele>
        <time>2010-05-03T10:20:37Z</time>
      </trkpt>
      <trkpt lat="35.2966438" lon="24.4350805">
        <ele>408.6976318</ele>
        <time>2010-05-03T10:20:45Z</time>
      </trkpt>
      <trkpt lat="35.2965745" lon="24.4350390">
        <ele>410.1396484</ele>
        <time>2010-05-03T10:20:54Z</time>
      </trkpt>
      <trkpt lat="35.2965403" lon="24.4350187">
        <ele>410.6202393</ele>
        <time>2010-05-03T10:20:59Z</time>
      </trkpt>
      <trkpt lat="35.2965114" lon="24.4349735">
        <ele>411.5816650</ele>
        <time>2010-05-03T10:21:06Z</time>
      </trkpt>
      <trkpt lat="35.2964609" lon="24.4349447">
        <ele>412.5428467</ele>
        <time>2010-05-03T10:21:13Z</time>
      </trkpt>
      <trkpt lat="35.2964241" lon="24.4348901">
        <ele>413.5042725</ele>
        <time>2010-05-03T10:21:21Z</time>
      </trkpt>
      <trkpt lat="35.2964315" lon="24.4348402">
        <ele>414.9461670</ele>
        <time>2010-05-03T10:21:27Z</time>
      </trkpt>
      <trkpt lat="35.2964505" lon="24.4347868">
        <ele>415.9074707</ele>
        <time>2010-05-03T10:21:34Z</time>
      </trkpt>
      <trkpt lat="35.2964572" lon="24.4347303">
        <ele>416.8688965</ele>
        <time>2010-05-03T10:21:41Z</time>
      </trkpt>
      <trkpt lat="35.2964409" lon="24.4346779">
        <ele>417.3496094</ele>
        <time>2010-05-03T10:21:47Z</time>
      </trkpt>
      <trkpt lat="35.2964288" lon="24.4346168">
        <ele>417.3496094</ele>
        <time>2010-05-03T10:21:54Z</time>
      </trkpt>
      <trkpt lat="35.2964090" lon="24.4345695">
        <ele>416.8688965</ele>
        <time>2010-05-03T10:22:01Z</time>
      </trkpt>
      <trkpt lat="35.2964303" lon="24.4345790">
        <ele>416.8688965</ele>
        <time>2010-05-03T10:22:09Z</time>
      </trkpt>
      <trkpt lat="35.2964838" lon="24.4345748">
        <ele>417.3496094</ele>
        <time>2010-05-03T10:22:17Z</time>
      </trkpt>
      <trkpt lat="35.2964958" lon="24.4345722">
        <ele>418.3107910</ele>
        <time>2010-05-03T10:22:22Z</time>
      </trkpt>
      <trkpt lat="35.2964730" lon="24.4345023">
        <ele>418.7915039</ele>
        <time>2010-05-03T10:22:29Z</time>
      </trkpt>
      <trkpt lat="35.2964320" lon="24.4344599">
        <ele>419.7528076</ele>
        <time>2010-05-03T10:22:35Z</time>
      </trkpt>
      <trkpt lat="35.2963853" lon="24.4343982">
        <ele>421.1948242</ele>
        <time>2010-05-03T10:22:42Z</time>
      </trkpt>
      <trkpt lat="35.2963158" lon="24.4343377">
        <ele>422.6367188</ele>
        <time>2010-05-03T10:22:51Z</time>
      </trkpt>
      <trkpt lat="35.2962692" lon="24.4343217">
        <ele>423.5980225</ele>
        <time>2010-05-03T10:22:59Z</time>
      </trkpt>
      <trkpt lat="35.2962668" lon="24.4343180">
        <ele>422.6367188</ele>
        <time>2010-05-03T10:23:07Z</time>
      </trkpt>
      <trkpt lat="35.2962580" lon="24.4343349">
        <ele>422.6367188</ele>
        <time>2010-05-03T10:23:19Z</time>
      </trkpt>
      <trkpt lat="35.2962449" lon="24.4343070">
        <ele>423.1174316</ele>
        <time>2010-05-03T10:23:24Z</time>
      </trkpt>
      <trkpt lat="35.2962368" lon="24.4342593">
        <ele>423.5980225</ele>
        <time>2010-05-03T10:23:30Z</time>
      </trkpt>
      <trkpt lat="35.2962218" lon="24.4342336">
        <ele>423.5980225</ele>
        <time>2010-05-03T10:23:37Z</time>
      </trkpt>
      <trkpt lat="35.2962203" lon="24.4341957">
        <ele>424.0787354</ele>
        <time>2010-05-03T10:23:44Z</time>
      </trkpt>
      <trkpt lat="35.2962231" lon="24.4341931">
        <ele>423.5980225</ele>
        <time>2010-05-03T10:23:53Z</time>
      </trkpt>
      <trkpt lat="35.2962294" lon="24.4342020">
        <ele>423.5980225</ele>
        <time>2010-05-03T10:24:01Z</time>
      </trkpt>
      <trkpt lat="35.2962163" lon="24.4341732">
        <ele>424.0787354</ele>
        <time>2010-05-03T10:24:11Z</time>
      </trkpt>
      <trkpt lat="35.2962097" lon="24.4341891">
        <ele>424.5594482</ele>
        <time>2010-05-03T10:24:17Z</time>
      </trkpt>
      <trkpt lat="35.2962065" lon="24.4341483">
        <ele>425.0401611</ele>
        <time>2010-05-03T10:24:43Z</time>
      </trkpt>
      <trkpt lat="35.2962067" lon="24.4340864">
        <ele>424.5594482</ele>
        <time>2010-05-03T10:24:50Z</time>
      </trkpt>
      <trkpt lat="35.2962046" lon="24.4340079">
        <ele>423.1174316</ele>
        <time>2010-05-03T10:24:57Z</time>
      </trkpt>
      <trkpt lat="35.2962011" lon="24.4338796">
        <ele>422.6367188</ele>
        <time>2010-05-03T10:25:07Z</time>
      </trkpt>
      <trkpt lat="35.2961975" lon="24.4337709">
        <ele>425.0401611</ele>
        <time>2010-05-03T10:25:16Z</time>
      </trkpt>
      <trkpt lat="35.2961839" lon="24.4336709">
        <ele>426.9627686</ele>
        <time>2010-05-03T10:25:24Z</time>
      </trkpt>
      <trkpt lat="35.2961616" lon="24.4335303">
        <ele>426.4820557</ele>
        <time>2010-05-03T10:25:34Z</time>
      </trkpt>
      <trkpt lat="35.2961834" lon="24.4333855">
        <ele>426.0013428</ele>
        <time>2010-05-03T10:25:44Z</time>
      </trkpt>
      <trkpt lat="35.2962129" lon="24.4332711">
        <ele>424.0787354</ele>
        <time>2010-05-03T10:25:53Z</time>
      </trkpt>
      <trkpt lat="35.2962465" lon="24.4331370">
        <ele>422.6367188</ele>
        <time>2010-05-03T10:26:03Z</time>
      </trkpt>
      <trkpt lat="35.2962937" lon="24.4330141">
        <ele>421.6754150</ele>
        <time>2010-05-03T10:26:12Z</time>
      </trkpt>
      <trkpt lat="35.2963477" lon="24.4328680">
        <ele>421.1948242</ele>
        <time>2010-05-03T10:26:23Z</time>
      </trkpt>
      <trkpt lat="35.2963518" lon="24.4328109">
        <ele>420.7141113</ele>
        <time>2010-05-03T10:26:28Z</time>
      </trkpt>
      <trkpt lat="35.2962979" lon="24.4328426">
        <ele>418.3107910</ele>
        <time>2010-05-03T10:26:35Z</time>
      </trkpt>
      <trkpt lat="35.2962169" lon="24.4329214">
        <ele>416.3881836</ele>
        <time>2010-05-03T10:26:44Z</time>
      </trkpt>
      <trkpt lat="35.2961141" lon="24.4330473">
        <ele>414.4654541</ele>
        <time>2010-05-03T10:26:57Z</time>
      </trkpt>
      <trkpt lat="35.2960446" lon="24.4331550">
        <ele>413.0235596</ele>
        <time>2010-05-03T10:27:07Z</time>
      </trkpt>
      <trkpt lat="35.2959954" lon="24.4332561">
        <ele>413.0235596</ele>
        <time>2010-05-03T10:27:15Z</time>
      </trkpt>
      <trkpt lat="35.2959395" lon="24.4333682">
        <ele>412.5428467</ele>
        <time>2010-05-03T10:27:24Z</time>
      </trkpt>
      <trkpt lat="35.2958682" lon="24.4334975">
        <ele>409.1783447</ele>
        <time>2010-05-03T10:27:36Z</time>
      </trkpt>
      <trkpt lat="35.2958123" lon="24.4336015">
        <ele>407.2556152</ele>
        <time>2010-05-03T10:27:45Z</time>
      </trkpt>
      <trkpt lat="35.2957471" lon="24.4337351">
        <ele>406.7749023</ele>
        <time>2010-05-03T10:27:56Z</time>
      </trkpt>
      <trkpt lat="35.2956597" lon="24.4338398">
        <ele>406.2943115</ele>
        <time>2010-05-03T10:28:07Z</time>
      </trkpt>
      <trkpt lat="35.2955966" lon="24.4339192">
        <ele>402.9296875</ele>
        <time>2010-05-03T10:28:16Z</time>
      </trkpt>
      <trkpt lat="35.2955274" lon="24.4340154">
        <ele>400.0458984</ele>
        <time>2010-05-03T10:28:26Z</time>
      </trkpt>
      <trkpt lat="35.2954445" lon="24.4341478">
        <ele>397.1617432</ele>
        <time>2010-05-03T10:28:39Z</time>
      </trkpt>
      <trkpt lat="35.2954127" lon="24.4342189">
        <ele>395.7198486</ele>
        <time>2010-05-03T10:28:46Z</time>
      </trkpt>
      <trkpt lat="35.2953765" lon="24.4342983">
        <ele>395.2391357</ele>
        <time>2010-05-03T10:28:55Z</time>
      </trkpt>
      <trkpt lat="35.2953544" lon="24.4342827">
        <ele>394.2779541</ele>
        <time>2010-05-03T10:29:02Z</time>
      </trkpt>
      <trkpt lat="35.2953331" lon="24.4342329">
        <ele>392.8359375</ele>
        <time>2010-05-03T10:29:10Z</time>
      </trkpt>
      <trkpt lat="35.2953274" lon="24.4341730">
        <ele>391.8745117</ele>
        <time>2010-05-03T10:29:16Z</time>
      </trkpt>
      <trkpt lat="35.2953373" lon="24.4340744">
        <ele>390.4326172</ele>
        <time>2010-05-03T10:29:25Z</time>
      </trkpt>
      <trkpt lat="35.2953430" lon="24.4340066">
        <ele>389.4711914</ele>
        <time>2010-05-03T10:29:32Z</time>
      </trkpt>
      <trkpt lat="35.2953164" lon="24.4340160">
        <ele>388.5100098</ele>
        <time>2010-05-03T10:29:39Z</time>
      </trkpt>
      <trkpt lat="35.2952867" lon="24.4340387">
        <ele>388.0292969</ele>
        <time>2010-05-03T10:29:45Z</time>
      </trkpt>
      <trkpt lat="35.2952820" lon="24.4340207">
        <ele>387.5485840</ele>
        <time>2010-05-03T10:29:50Z</time>
      </trkpt>
      <trkpt lat="35.2952867" lon="24.4339850">
        <ele>386.5874023</ele>
        <time>2010-05-03T10:29:58Z</time>
      </trkpt>
      <trkpt lat="35.2952660" lon="24.4339656">
        <ele>386.5874023</ele>
        <time>2010-05-03T10:30:06Z</time>
      </trkpt>
      <trkpt lat="35.2952309" lon="24.4339595">
        <ele>386.1066895</ele>
        <time>2010-05-03T10:30:12Z</time>
      </trkpt>
      <trkpt lat="35.2952156" lon="24.4339187">
        <ele>385.1453857</ele>
        <time>2010-05-03T10:30:19Z</time>
      </trkpt>
      <trkpt lat="35.2952167" lon="24.4338619">
        <ele>384.6647949</ele>
        <time>2010-05-03T10:30:26Z</time>
      </trkpt>
      <trkpt lat="35.2951803" lon="24.4338087">
        <ele>385.1453857</ele>
        <time>2010-05-03T10:30:34Z</time>
      </trkpt>
      <trkpt lat="35.2951601" lon="24.4338014">
        <ele>385.1453857</ele>
        <time>2010-05-03T10:30:39Z</time>
      </trkpt>
      <trkpt lat="35.2950905" lon="24.4337791">
        <ele>385.6259766</ele>
        <time>2010-05-03T10:30:48Z</time>
      </trkpt>
      <trkpt lat="35.2950345" lon="24.4337726">
        <ele>386.5874023</ele>
        <time>2010-05-03T10:30:56Z</time>
      </trkpt>
      <trkpt lat="35.2949770" lon="24.4337735">
        <ele>387.5485840</ele>
        <time>2010-05-03T10:31:04Z</time>
      </trkpt>
      <trkpt lat="35.2949131" lon="24.4338037">
        <ele>388.0292969</ele>
        <time>2010-05-03T10:31:11Z</time>
      </trkpt>
      <trkpt lat="35.2948400" lon="24.4338425">
        <ele>387.5485840</ele>
        <time>2010-05-03T10:31:19Z</time>
      </trkpt>
      <trkpt lat="35.2947402" lon="24.4338810">
        <ele>387.5485840</ele>
        <time>2010-05-03T10:31:28Z</time>
      </trkpt>
      <trkpt lat="35.2946440" lon="24.4339090">
        <ele>388.5100098</ele>
        <time>2010-05-03T10:31:38Z</time>
      </trkpt>
      <trkpt lat="35.2945649" lon="24.4339253">
        <ele>389.4711914</ele>
        <time>2010-05-03T10:31:46Z</time>
      </trkpt>
      <trkpt lat="35.2944705" lon="24.4339536">
        <ele>389.4711914</ele>
        <time>2010-05-03T10:31:55Z</time>
      </trkpt>
      <trkpt lat="35.2943734" lon="24.4339658">
        <ele>388.5100098</ele>
        <time>2010-05-03T10:32:03Z</time>
      </trkpt>
      <trkpt lat="35.2942691" lon="24.4339528">
        <ele>388.9906006</ele>
        <time>2010-05-03T10:32:12Z</time>
      </trkpt>
      <trkpt lat="35.2941797" lon="24.4339615">
        <ele>388.9906006</ele>
        <time>2010-05-03T10:32:20Z</time>
      </trkpt>
      <trkpt lat="35.2940658" lon="24.4339823">
        <ele>389.4711914</ele>
        <time>2010-05-03T10:32:30Z</time>
      </trkpt>
      <trkpt lat="35.2939736" lon="24.4340176">
        <ele>389.4711914</ele>
        <time>2010-05-03T10:32:39Z</time>
      </trkpt>
      <trkpt lat="35.2938954" lon="24.4340636">
        <ele>388.0292969</ele>
        <time>2010-05-03T10:32:47Z</time>
      </trkpt>
      <trkpt lat="35.2937965" lon="24.4340905">
        <ele>387.0679932</ele>
        <time>2010-05-03T10:32:56Z</time>
      </trkpt>
      <trkpt lat="35.2937286" lon="24.4341346">
        <ele>385.6259766</ele>
        <time>2010-05-03T10:33:03Z</time>
      </trkpt>
      <trkpt lat="35.2936088" lon="24.4342265">
        <ele>385.6259766</ele>
        <time>2010-05-03T10:33:15Z</time>
      </trkpt>
      <trkpt lat="35.2935222" lon="24.4342937">
        <ele>386.5874023</ele>
        <time>2010-05-03T10:33:24Z</time>
      </trkpt>
      <trkpt lat="35.2934359" lon="24.4343771">
        <ele>386.5874023</ele>
        <time>2010-05-03T10:33:34Z</time>
      </trkpt>
      <trkpt lat="35.2933481" lon="24.4344442">
        <ele>387.5485840</ele>
        <time>2010-05-03T10:33:43Z</time>
      </trkpt>
      <trkpt lat="35.2932390" lon="24.4344479">
        <ele>388.5100098</ele>
        <time>2010-05-03T10:33:53Z</time>
      </trkpt>
      <trkpt lat="35.2931183" lon="24.4344312">
        <ele>388.5100098</ele>
        <time>2010-05-03T10:34:03Z</time>
      </trkpt>
      <trkpt lat="35.2930199" lon="24.4343970">
        <ele>387.5485840</ele>
        <time>2010-05-03T10:34:12Z</time>
      </trkpt>
      <trkpt lat="35.2929443" lon="24.4343445">
        <ele>387.0679932</ele>
        <time>2010-05-03T10:34:20Z</time>
      </trkpt>
      <trkpt lat="35.2928825" lon="24.4342744">
        <ele>386.5874023</ele>
        <time>2010-05-03T10:34:28Z</time>
      </trkpt>
      <trkpt lat="35.2928099" lon="24.4341834">
        <ele>386.1066895</ele>
        <time>2010-05-03T10:34:37Z</time>
      </trkpt>
      <trkpt lat="35.2927270" lon="24.4341155">
        <ele>385.6259766</ele>
        <time>2010-05-03T10:34:46Z</time>
      </trkpt>
      <trkpt lat="35.2926540" lon="24.4340698">
        <ele>385.1453857</ele>
        <time>2010-05-03T10:34:54Z</time>
      </trkpt>
      <trkpt lat="35.2925768" lon="24.4340340">
        <ele>384.6647949</ele>
        <time>2010-05-03T10:35:02Z</time>
      </trkpt>
      <trkpt lat="35.2924921" lon="24.4339484">
        <ele>384.1840820</ele>
        <time>2010-05-03T10:35:12Z</time>
      </trkpt>
      <trkpt lat="35.2924489" lon="24.4338551">
        <ele>384.1840820</ele>
        <time>2010-05-03T10:35:20Z</time>
      </trkpt>
      <trkpt lat="35.2924360" lon="24.4337572">
        <ele>384.6647949</ele>
        <time>2010-05-03T10:35:28Z</time>
      </trkpt>
      <trkpt lat="35.2924238" lon="24.4336635">
        <ele>385.1453857</ele>
        <time>2010-05-03T10:35:36Z</time>
      </trkpt>
      <trkpt lat="35.2924330" lon="24.4335713">
        <ele>384.6647949</ele>
        <time>2010-05-03T10:35:43Z</time>
      </trkpt>
      <trkpt lat="35.2924718" lon="24.4334773">
        <ele>383.7032471</ele>
        <time>2010-05-03T10:35:51Z</time>
      </trkpt>
      <trkpt lat="35.2924931" lon="24.4333977">
        <ele>382.2613525</ele>
        <time>2010-05-03T10:35:58Z</time>
      </trkpt>
      <trkpt lat="35.2924739" lon="24.4333052">
        <ele>380.8194580</ele>
        <time>2010-05-03T10:36:06Z</time>
      </trkpt>
      <trkpt lat="35.2924300" lon="24.4332102">
        <ele>379.8580322</ele>
        <time>2010-05-03T10:36:15Z</time>
      </trkpt>
      <trkpt lat="35.2923905" lon="24.4331339">
        <ele>379.8580322</ele>
        <time>2010-05-03T10:36:22Z</time>
      </trkpt>
      <trkpt lat="35.2923406" lon="24.4331068">
        <ele>379.3774414</ele>
        <time>2010-05-03T10:36:28Z</time>
      </trkpt>
      <trkpt lat="35.2922543" lon="24.4330551">
        <ele>378.8968506</ele>
        <time>2010-05-03T10:36:37Z</time>
      </trkpt>
      <trkpt lat="35.2921995" lon="24.4330239">
        <ele>378.4161377</ele>
        <time>2010-05-03T10:36:44Z</time>
      </trkpt>
      <trkpt lat="35.2921358" lon="24.4329643">
        <ele>377.9354248</ele>
        <time>2010-05-03T10:36:52Z</time>
      </trkpt>
      <trkpt lat="35.2920787" lon="24.4329281">
        <ele>376.9742432</ele>
        <time>2010-05-03T10:36:59Z</time>
      </trkpt>
      <trkpt lat="35.2920581" lon="24.4329176">
        <ele>376.9742432</ele>
        <time>2010-05-03T10:37:01Z</time>
      </trkpt>
      <trkpt lat="35.2919894" lon="24.4328520">
        <ele>376.0128174</ele>
        <time>2010-05-03T10:37:10Z</time>
      </trkpt>
      <trkpt lat="35.2919216" lon="24.4328010">
        <ele>375.0515137</ele>
        <time>2010-05-03T10:37:18Z</time>
      </trkpt>
      <trkpt lat="35.2918367" lon="24.4327541">
        <ele>374.5708008</ele>
        <time>2010-05-03T10:37:27Z</time>
      </trkpt>
      <trkpt lat="35.2917538" lon="24.4327036">
        <ele>374.5708008</ele>
        <time>2010-05-03T10:37:36Z</time>
      </trkpt>
      <trkpt lat="35.2916591" lon="24.4326670">
        <ele>375.0515137</ele>
        <time>2010-05-03T10:37:45Z</time>
      </trkpt>
      <trkpt lat="35.2915860" lon="24.4326045">
        <ele>374.0900879</ele>
        <time>2010-05-03T10:37:53Z</time>
      </trkpt>
      <trkpt lat="35.2915805" lon="24.4325950">
        <ele>374.0900879</ele>
        <time>2010-05-03T10:37:54Z</time>
      </trkpt>
      <trkpt lat="35.2915032" lon="24.4325290">
        <ele>373.1289063</ele>
        <time>2010-05-03T10:38:03Z</time>
      </trkpt>
      <trkpt lat="35.2914566" lon="24.4324682">
        <ele>373.6094971</ele>
        <time>2010-05-03T10:38:10Z</time>
      </trkpt>
      <trkpt lat="35.2914296" lon="24.4324327">
        <ele>373.6094971</ele>
        <time>2010-05-03T10:38:15Z</time>
      </trkpt>
      <trkpt lat="35.2913741" lon="24.4323505">
        <ele>373.1289063</ele>
        <time>2010-05-03T10:38:23Z</time>
      </trkpt>
      <trkpt lat="35.2912939" lon="24.4322862">
        <ele>373.1289063</ele>
        <time>2010-05-03T10:38:32Z</time>
      </trkpt>
      <trkpt lat="35.2911997" lon="24.4322309">
        <ele>373.6094971</ele>
        <time>2010-05-03T10:38:42Z</time>
      </trkpt>
      <trkpt lat="35.2911329" lon="24.4321528">
        <ele>374.0900879</ele>
        <time>2010-05-03T10:38:52Z</time>
      </trkpt>
      <trkpt lat="35.2910967" lon="24.4321211">
        <ele>374.5708008</ele>
        <time>2010-05-03T10:38:59Z</time>
      </trkpt>
      <trkpt lat="35.2910561" lon="24.4321552">
        <ele>375.0515137</ele>
        <time>2010-05-03T10:39:06Z</time>
      </trkpt>
      <trkpt lat="35.2910407" lon="24.4321998">
        <ele>374.0900879</ele>
        <time>2010-05-03T10:39:12Z</time>
      </trkpt>
      <trkpt lat="35.2910245" lon="24.4322262">
        <ele>373.1289063</ele>
        <time>2010-05-03T10:39:20Z</time>
      </trkpt>
      <trkpt lat="35.2909852" lon="24.4322706">
        <ele>373.1289063</ele>
        <time>2010-05-03T10:39:26Z</time>
      </trkpt>
      <trkpt lat="35.2909158" lon="24.4323341">
        <ele>373.6094971</ele>
        <time>2010-05-03T10:39:35Z</time>
      </trkpt>
      <trkpt lat="35.2908568" lon="24.4323530">
        <ele>375.0515137</ele>
        <time>2010-05-03T10:39:42Z</time>
      </trkpt>
      <trkpt lat="35.2907959" lon="24.4322985">
        <ele>375.5321045</ele>
        <time>2010-05-03T10:39:51Z</time>
      </trkpt>
      <trkpt lat="35.2907454" lon="24.4322702">
        <ele>376.0128174</ele>
        <time>2010-05-03T10:39:59Z</time>
      </trkpt>
      <trkpt lat="35.2906996" lon="24.4322667">
        <ele>375.5321045</ele>
        <time>2010-05-03T10:40:06Z</time>
      </trkpt>
      <trkpt lat="35.2906719" lon="24.4322346">
        <ele>377.9354248</ele>
        <time>2010-05-03T10:40:13Z</time>
      </trkpt>
      <trkpt lat="35.2906317" lon="24.4322195">
        <ele>378.4161377</ele>
        <time>2010-05-03T10:40:19Z</time>
      </trkpt>
      <trkpt lat="35.2905849" lon="24.4322270">
        <ele>378.8968506</ele>
        <time>2010-05-03T10:40:26Z</time>
      </trkpt>
      <trkpt lat="35.2905517" lon="24.4322427">
        <ele>379.3774414</ele>
        <time>2010-05-03T10:40:35Z</time>
      </trkpt>
      <trkpt lat="35.2905169" lon="24.4322329">
        <ele>381.7806396</ele>
        <time>2010-05-03T10:40:42Z</time>
      </trkpt>
      <trkpt lat="35.2904909" lon="24.4322322">
        <ele>385.1453857</ele>
        <time>2010-05-03T10:40:49Z</time>
      </trkpt>
      <trkpt lat="35.2904566" lon="24.4322225">
        <ele>386.1066895</ele>
        <time>2010-05-03T10:40:55Z</time>
      </trkpt>
      <trkpt lat="35.2904340" lon="24.4322413">
        <ele>386.5874023</ele>
        <time>2010-05-03T10:41:02Z</time>
      </trkpt>
      <trkpt lat="35.2904180" lon="24.4322323">
        <ele>389.4711914</ele>
        <time>2010-05-03T10:41:08Z</time>
      </trkpt>
      <trkpt lat="35.2903887" lon="24.4322196">
        <ele>390.4326172</ele>
        <time>2010-05-03T10:41:13Z</time>
      </trkpt>
      <trkpt lat="35.2903611" lon="24.4322187">
        <ele>394.2779541</ele>
        <time>2010-05-03T10:41:20Z</time>
      </trkpt>
      <trkpt lat="35.2903563" lon="24.4322282">
        <ele>396.6811523</ele>
        <time>2010-05-03T10:41:25Z</time>
      </trkpt>
      <trkpt lat="35.2903557" lon="24.4321951">
        <ele>400.0458984</ele>
        <time>2010-05-03T10:41:30Z</time>
      </trkpt>
      <trkpt lat="35.2903346" lon="24.4321362">
        <ele>400.0458984</ele>
        <time>2010-05-03T10:41:39Z</time>
      </trkpt>
      <trkpt lat="35.2903112" lon="24.4320894">
        <ele>400.5264893</ele>
        <time>2010-05-03T10:41:47Z</time>
      </trkpt>
      <trkpt lat="35.2902756" lon="24.4320558">
        <ele>400.5264893</ele>
        <time>2010-05-03T10:41:54Z</time>
      </trkpt>
      <trkpt lat="35.2902530" lon="24.4320278">
        <ele>401.0070801</ele>
        <time>2010-05-03T10:41:59Z</time>
      </trkpt>
      <trkpt lat="35.2902319" lon="24.4320137">
        <ele>401.4877930</ele>
        <time>2010-05-03T10:42:04Z</time>
      </trkpt>
      <trkpt lat="35.2902025" lon="24.4320055">
        <ele>402.9296875</ele>
        <time>2010-05-03T10:42:12Z</time>
      </trkpt>
      <trkpt lat="35.2901869" lon="24.4320133">
        <ele>402.9296875</ele>
        <time>2010-05-03T10:42:19Z</time>
      </trkpt>
      <trkpt lat="35.2901588" lon="24.4320069">
        <ele>403.8911133</ele>
        <time>2010-05-03T10:42:26Z</time>
      </trkpt>
      <trkpt lat="35.2901362" lon="24.4319890">
        <ele>404.8522949</ele>
        <time>2010-05-03T10:42:32Z</time>
      </trkpt>
      <trkpt lat="35.2901240" lon="24.4320211">
        <ele>405.3330078</ele>
        <time>2010-05-03T10:42:39Z</time>
      </trkpt>
      <trkpt lat="35.2901181" lon="24.4320630">
        <ele>406.2943115</ele>
        <time>2010-05-03T10:42:48Z</time>
      </trkpt>
      <trkpt lat="35.2901103" lon="24.4320838">
        <ele>407.7363281</ele>
        <time>2010-05-03T10:42:53Z</time>
      </trkpt>
      <trkpt lat="35.2901183" lon="24.4321236">
        <ele>410.1396484</ele>
        <time>2010-05-03T10:42:59Z</time>
      </trkpt>
      <trkpt lat="35.2901242" lon="24.4321563">
        <ele>411.5816650</ele>
        <time>2010-05-03T10:43:05Z</time>
      </trkpt>
      <trkpt lat="35.2901360" lon="24.4321954">
        <ele>413.5042725</ele>
        <time>2010-05-03T10:43:11Z</time>
      </trkpt>
      <trkpt lat="35.2901309" lon="24.4322303">
        <ele>414.4654541</ele>
        <time>2010-05-03T10:43:17Z</time>
      </trkpt>
      <trkpt lat="35.2901077" lon="24.4321862">
        <ele>415.9074707</ele>
        <time>2010-05-03T10:43:24Z</time>
      </trkpt>
      <trkpt lat="35.2901113" lon="24.4321836">
        <ele>416.3881836</ele>
        <time>2010-05-03T10:43:30Z</time>
      </trkpt>
      <trkpt lat="35.2901144" lon="24.4321754">
        <ele>417.3496094</ele>
        <time>2010-05-03T10:43:49Z</time>
      </trkpt>
      <trkpt lat="35.2901226" lon="24.4322032">
        <ele>417.3496094</ele>
        <time>2010-05-03T10:44:01Z</time>
      </trkpt>
      <trkpt lat="35.2901470" lon="24.4322558">
        <ele>416.3881836</ele>
        <time>2010-05-03T10:44:09Z</time>
      </trkpt>
      <trkpt lat="35.2901678" lon="24.4323237">
        <ele>415.9074707</ele>
        <time>2010-05-03T10:44:18Z</time>
      </trkpt>
      <trkpt lat="35.2901710" lon="24.4323231">
        <ele>414.9461670</ele>
        <time>2010-05-03T10:44:25Z</time>
      </trkpt>
      <trkpt lat="35.2901741" lon="24.4323272">
        <ele>415.4268799</ele>
        <time>2010-05-03T10:44:40Z</time>
      </trkpt>
      <trkpt lat="35.2901744" lon="24.4323291">
        <ele>416.3881836</ele>
        <time>2010-05-03T10:44:46Z</time>
      </trkpt>
      <trkpt lat="35.2901832" lon="24.4323280">
        <ele>417.3496094</ele>
        <time>2010-05-03T10:44:54Z</time>
      </trkpt>
      <trkpt lat="35.2901839" lon="24.4323310">
        <ele>416.3881836</ele>
        <time>2010-05-03T10:45:01Z</time>
      </trkpt>
      <trkpt lat="35.2901955" lon="24.4323262">
        <ele>414.4654541</ele>
        <time>2010-05-03T10:45:36Z</time>
      </trkpt>
      <trkpt lat="35.2901926" lon="24.4323267">
        <ele>413.9848633</ele>
        <time>2010-05-03T10:45:47Z</time>
      </trkpt>
      <trkpt lat="35.2901936" lon="24.4323334">
        <ele>413.0235596</ele>
        <time>2010-05-03T10:46:05Z</time>
      </trkpt>
      <trkpt lat="35.2901868" lon="24.4323796">
        <ele>412.5428467</ele>
        <time>2010-05-03T10:46:13Z</time>
      </trkpt>
      <trkpt lat="35.2902257" lon="24.4324230">
        <ele>412.0622559</ele>
        <time>2010-05-03T10:46:20Z</time>
      </trkpt>
      <trkpt lat="35.2901938" lon="24.4324713">
        <ele>411.5816650</ele>
        <time>2010-05-03T10:46:26Z</time>
      </trkpt>
      <trkpt lat="35.2901473" lon="24.4324928">
        <ele>412.0622559</ele>
        <time>2010-05-03T10:46:33Z</time>
      </trkpt>
      <trkpt lat="35.2901026" lon="24.4325342">
        <ele>412.5428467</ele>
        <time>2010-05-03T10:46:41Z</time>
      </trkpt>
      <trkpt lat="35.2900774" lon="24.4325915">
        <ele>413.0235596</ele>
        <time>2010-05-03T10:46:48Z</time>
      </trkpt>
      <trkpt lat="35.2900560" lon="24.4326471">
        <ele>413.9848633</ele>
        <time>2010-05-03T10:46:54Z</time>
      </trkpt>
      <trkpt lat="35.2900176" lon="24.4326975">
        <ele>414.4654541</ele>
        <time>2010-05-03T10:47:01Z</time>
      </trkpt>
      <trkpt lat="35.2900040" lon="24.4327727">
        <ele>414.9461670</ele>
        <time>2010-05-03T10:47:09Z</time>
      </trkpt>
      <trkpt lat="35.2900014" lon="24.4328179">
        <ele>414.9461670</ele>
        <time>2010-05-03T10:47:17Z</time>
      </trkpt>
      <trkpt lat="35.2900010" lon="24.4328217">
        <ele>415.9074707</ele>
        <time>2010-05-03T10:47:23Z</time>
      </trkpt>
      <trkpt lat="35.2900018" lon="24.4328236">
        <ele>415.9074707</ele>
        <time>2010-05-03T10:47:32Z</time>
      </trkpt>
      <trkpt lat="35.2900067" lon="24.4328312">
        <ele>415.9074707</ele>
        <time>2010-05-03T10:47:39Z</time>
      </trkpt>
      <trkpt lat="35.2900050" lon="24.4328297">
        <ele>415.9074707</ele>
        <time>2010-05-03T10:47:46Z</time>
      </trkpt>
      <trkpt lat="35.2900088" lon="24.4328261">
        <ele>417.3496094</ele>
        <time>2010-05-03T10:47:55Z</time>
      </trkpt>
      <trkpt lat="35.2900231" lon="24.4328214">
        <ele>421.1948242</ele>
        <time>2010-05-03T10:48:24Z</time>
      </trkpt>
      <trkpt lat="35.2900362" lon="24.4328295">
        <ele>423.1174316</ele>
        <time>2010-05-03T10:48:40Z</time>
      </trkpt>
      <trkpt lat="35.2900336" lon="24.4328358">
        <ele>422.1560059</ele>
        <time>2010-05-03T10:48:49Z</time>
      </trkpt>
      <trkpt lat="35.2900222" lon="24.4328432">
        <ele>421.6754150</ele>
        <time>2010-05-03T10:49:05Z</time>
      </trkpt>
      <trkpt lat="35.2900178" lon="24.4328514">
        <ele>421.1948242</ele>
        <time>2010-05-03T10:49:22Z</time>
      </trkpt>
      <trkpt lat="35.2900156" lon="24.4328497">
        <ele>420.7141113</ele>
        <time>2010-05-03T10:49:38Z</time>
      </trkpt>
      <trkpt lat="35.2900244" lon="24.4328319">
        <ele>419.2722168</ele>
        <time>2010-05-03T10:49:44Z</time>
      </trkpt>
      <trkpt lat="35.2900222" lon="24.4328213">
        <ele>418.7915039</ele>
        <time>2010-05-03T10:50:15Z</time>
      </trkpt>
      <trkpt lat="35.2900372" lon="24.4327943">
        <ele>420.2333984</ele>
        <time>2010-05-03T10:51:12Z</time>
      </trkpt>
      <trkpt lat="35.2900294" lon="24.4327943">
        <ele>420.2333984</ele>
        <time>2010-05-03T10:51:24Z</time>
      </trkpt>
      <trkpt lat="35.2900251" lon="24.4327945">
        <ele>420.7141113</ele>
        <time>2010-05-03T10:51:36Z</time>
      </trkpt>
      <trkpt lat="35.2900076" lon="24.4328023">
        <ele>420.7141113</ele>
        <time>2010-05-03T10:52:03Z</time>
      </trkpt>
      <trkpt lat="35.2900153" lon="24.4328069">
        <ele>422.1560059</ele>
        <time>2010-05-03T10:52:25Z</time>
      </trkpt>
      <trkpt lat="35.2900144" lon="24.4328067">
        <ele>422.1560059</ele>
        <time>2010-05-03T10:52:32Z</time>
      </trkpt>
      <trkpt lat="35.2900051" lon="24.4328103">
        <ele>421.1948242</ele>
        <time>2010-05-03T10:52:50Z</time>
      </trkpt>
      <trkpt lat="35.2900008" lon="24.4328162">
        <ele>421.1948242</ele>
        <time>2010-05-03T10:53:02Z</time>
      </trkpt>
      <trkpt lat="35.2900068" lon="24.4328224">
        <ele>420.7141113</ele>
        <time>2010-05-03T10:53:26Z</time>
      </trkpt>
      <trkpt lat="35.2900085" lon="24.4328177">
        <ele>420.2333984</ele>
        <time>2010-05-03T10:53:33Z</time>
      </trkpt>
      <trkpt lat="35.2900197" lon="24.4328015">
        <ele>421.6754150</ele>
        <time>2010-05-03T10:54:04Z</time>
      </trkpt>
      <trkpt lat="35.2900268" lon="24.4327991">
        <ele>421.6754150</ele>
        <time>2010-05-03T10:54:25Z</time>
      </trkpt>
      <trkpt lat="35.2900165" lon="24.4327987">
        <ele>420.7141113</ele>
        <time>2010-05-03T10:54:40Z</time>
      </trkpt>
      <trkpt lat="35.2900122" lon="24.4327965">
        <ele>420.2333984</ele>
        <time>2010-05-03T10:54:51Z</time>
      </trkpt>
      <trkpt lat="35.2900114" lon="24.4327968">
        <ele>419.7528076</ele>
        <time>2010-05-03T10:55:00Z</time>
      </trkpt>
      <trkpt lat="35.2900098" lon="24.4327959">
        <ele>419.7528076</ele>
        <time>2010-05-03T10:55:28Z</time>
      </trkpt>
      <trkpt lat="35.2900145" lon="24.4328039">
        <ele>420.2333984</ele>
        <time>2010-05-03T10:55:50Z</time>
      </trkpt>
      <trkpt lat="35.2900266" lon="24.4328075">
        <ele>421.6754150</ele>
        <time>2010-05-03T10:56:14Z</time>
      </trkpt>
      <trkpt lat="35.2900259" lon="24.4328189">
        <ele>421.1948242</ele>
        <time>2010-05-03T10:56:25Z</time>
      </trkpt>
      <trkpt lat="35.2900151" lon="24.4328191">
        <ele>420.7141113</ele>
        <time>2010-05-03T10:56:43Z</time>
      </trkpt>
      <trkpt lat="35.2900041" lon="24.4328385">
        <ele>420.7141113</ele>
        <time>2010-05-03T10:56:50Z</time>
      </trkpt>
      <trkpt lat="35.2899993" lon="24.4328292">
        <ele>420.7141113</ele>
        <time>2010-05-03T10:57:00Z</time>
      </trkpt>
      <trkpt lat="35.2899999" lon="24.4328131">
        <ele>420.7141113</ele>
        <time>2010-05-03T10:57:11Z</time>
      </trkpt>
      <trkpt lat="35.2899958" lon="24.4327964">
        <ele>421.1948242</ele>
        <time>2010-05-03T10:58:13Z</time>
      </trkpt>
      <trkpt lat="35.2900004" lon="24.4327950">
        <ele>421.1948242</ele>
        <time>2010-05-03T10:58:23Z</time>
      </trkpt>
      <trkpt lat="35.2900033" lon="24.4327867">
        <ele>421.1948242</ele>
        <time>2010-05-03T10:58:30Z</time>
      </trkpt>
      <trkpt lat="35.2900159" lon="24.4328032">
        <ele>420.7141113</ele>
        <time>2010-05-03T10:58:52Z</time>
      </trkpt>
      <trkpt lat="35.2900292" lon="24.4328374">
        <ele>418.7915039</ele>
        <time>2010-05-03T10:59:23Z</time>
      </trkpt>
      <trkpt lat="35.2900206" lon="24.4328276">
        <ele>418.3107910</ele>
        <time>2010-05-03T10:59:34Z</time>
      </trkpt>
      <trkpt lat="35.2900103" lon="24.4327923">
        <ele>418.3107910</ele>
        <time>2010-05-03T11:00:25Z</time>
      </trkpt>
      <trkpt lat="35.2900248" lon="24.4327850">
        <ele>419.2722168</ele>
        <time>2010-05-03T11:00:41Z</time>
      </trkpt>
      <trkpt lat="35.2900450" lon="24.4327535">
        <ele>418.7915039</ele>
        <time>2010-05-03T11:00:48Z</time>
      </trkpt>
      <trkpt lat="35.2900797" lon="24.4327453">
        <ele>418.3107910</ele>
        <time>2010-05-03T11:00:55Z</time>
      </trkpt>
      <trkpt lat="35.2900839" lon="24.4327281">
        <ele>419.7528076</ele>
        <time>2010-05-03T11:01:02Z</time>
      </trkpt>
      <trkpt lat="35.2900522" lon="24.4326847">
        <ele>419.7528076</ele>
        <time>2010-05-03T11:01:09Z</time>
      </trkpt>
      <trkpt lat="35.2900476" lon="24.4326585">
        <ele>419.7528076</ele>
        <time>2010-05-03T11:01:17Z</time>
      </trkpt>
      <trkpt lat="35.2900674" lon="24.4326083">
        <ele>418.7915039</ele>
        <time>2010-05-03T11:01:25Z</time>
      </trkpt>
      <trkpt lat="35.2900880" lon="24.4325339">
        <ele>416.8688965</ele>
        <time>2010-05-03T11:01:34Z</time>
      </trkpt>
      <trkpt lat="35.2901232" lon="24.4324889">
        <ele>415.4268799</ele>
        <time>2010-05-03T11:01:41Z</time>
      </trkpt>
      <trkpt lat="35.2901626" lon="24.4324603">
        <ele>414.4654541</ele>
        <time>2010-05-03T11:01:47Z</time>
      </trkpt>
      <trkpt lat="35.2901615" lon="24.4323935">
        <ele>414.4654541</ele>
        <time>2010-05-03T11:01:54Z</time>
      </trkpt>
      <trkpt lat="35.2901696" lon="24.4322935">
        <ele>414.4654541</ele>
        <time>2010-05-03T11:02:02Z</time>
      </trkpt>
      <trkpt lat="35.2901631" lon="24.4322553">
        <ele>413.5042725</ele>
        <time>2010-05-03T11:02:07Z</time>
      </trkpt>
      <trkpt lat="35.2901642" lon="24.4321982">
        <ele>412.5428467</ele>
        <time>2010-05-03T11:02:14Z</time>
      </trkpt>
      <trkpt lat="35.2901516" lon="24.4321584">
        <ele>412.0622559</ele>
        <time>2010-05-03T11:02:20Z</time>
      </trkpt>
      <trkpt lat="35.2901459" lon="24.4321246">
        <ele>411.1009521</ele>
        <time>2010-05-03T11:02:26Z</time>
      </trkpt>
      <trkpt lat="35.2901328" lon="24.4320966">
        <ele>410.6202393</ele>
        <time>2010-05-03T11:02:32Z</time>
      </trkpt>
      <trkpt lat="35.2901328" lon="24.4320690">
        <ele>409.1783447</ele>
        <time>2010-05-03T11:02:39Z</time>
      </trkpt>
      <trkpt lat="35.2901300" lon="24.4320538">
        <ele>409.1783447</ele>
        <time>2010-05-03T11:02:49Z</time>
      </trkpt>
      <trkpt lat="35.2901409" lon="24.4320309">
        <ele>409.6590576</ele>
        <time>2010-05-03T11:03:00Z</time>
      </trkpt>
      <trkpt lat="35.2901559" lon="24.4320102">
        <ele>409.1783447</ele>
        <time>2010-05-03T11:03:07Z</time>
      </trkpt>
      <trkpt lat="35.2901802" lon="24.4320034">
        <ele>408.6976318</ele>
        <time>2010-05-03T11:03:13Z</time>
      </trkpt>
      <trkpt lat="35.2902092" lon="24.4320003">
        <ele>407.7363281</ele>
        <time>2010-05-03T11:03:19Z</time>
      </trkpt>
      <trkpt lat="35.2902320" lon="24.4319921">
        <ele>406.2943115</ele>
        <time>2010-05-03T11:03:28Z</time>
      </trkpt>
      <trkpt lat="35.2902535" lon="24.4319981">
        <ele>403.8911133</ele>
        <time>2010-05-03T11:03:33Z</time>
      </trkpt>
      <trkpt lat="35.2902855" lon="24.4320350">
        <ele>400.5264893</ele>
        <time>2010-05-03T11:03:41Z</time>
      </trkpt>
      <trkpt lat="35.2903237" lon="24.4320659">
        <ele>400.5264893</ele>
        <time>2010-05-03T11:03:47Z</time>
      </trkpt>
      <trkpt lat="35.2903443" lon="24.4321009">
        <ele>399.5650635</ele>
        <time>2010-05-03T11:03:54Z</time>
      </trkpt>
      <trkpt lat="35.2903621" lon="24.4321470">
        <ele>397.6424561</ele>
        <time>2010-05-03T11:04:02Z</time>
      </trkpt>
      <trkpt lat="35.2903687" lon="24.4321809">
        <ele>397.1617432</ele>
        <time>2010-05-03T11:04:08Z</time>
      </trkpt>
      <trkpt lat="35.2903713" lon="24.4322195">
        <ele>397.1617432</ele>
        <time>2010-05-03T11:04:24Z</time>
      </trkpt>
      <trkpt lat="35.2903827" lon="24.4322287">
        <ele>399.0843506</ele>
        <time>2010-05-03T11:04:32Z</time>
      </trkpt>
      <trkpt lat="35.2904225" lon="24.4322376">
        <ele>396.2005615</ele>
        <time>2010-05-03T11:04:43Z</time>
      </trkpt>
      <trkpt lat="35.2904497" lon="24.4322302">
        <ele>394.7585449</ele>
        <time>2010-05-03T11:04:50Z</time>
      </trkpt>
      <trkpt lat="35.2904712" lon="24.4322061">
        <ele>393.7972412</ele>
        <time>2010-05-03T11:04:57Z</time>
      </trkpt>
      <trkpt lat="35.2905006" lon="24.4322180">
        <ele>391.3937988</ele>
        <time>2010-05-03T11:05:04Z</time>
      </trkpt>
      <trkpt lat="35.2905278" lon="24.4322190">
        <ele>390.4326172</ele>
        <time>2010-05-03T11:05:11Z</time>
      </trkpt>
      <trkpt lat="35.2905506" lon="24.4322360">
        <ele>388.5100098</ele>
        <time>2010-05-03T11:05:19Z</time>
      </trkpt>
      <trkpt lat="35.2905708" lon="24.4322419">
        <ele>387.5485840</ele>
        <time>2010-05-03T11:05:25Z</time>
      </trkpt>
      <trkpt lat="35.2905923" lon="24.4322301">
        <ele>386.5874023</ele>
        <time>2010-05-03T11:05:31Z</time>
      </trkpt>
      <trkpt lat="35.2906386" lon="24.4322121">
        <ele>385.1453857</ele>
        <time>2010-05-03T11:05:36Z</time>
      </trkpt>
      <trkpt lat="35.2907060" lon="24.4322287">
        <ele>384.6647949</ele>
        <time>2010-05-03T11:05:43Z</time>
      </trkpt>
      <trkpt lat="35.2907483" lon="24.4322516">
        <ele>382.2613525</ele>
        <time>2010-05-03T11:05:51Z</time>
      </trkpt>
      <trkpt lat="35.2908048" lon="24.4322626">
        <ele>379.8580322</ele>
        <time>2010-05-03T11:05:58Z</time>
      </trkpt>
      <trkpt lat="35.2908427" lon="24.4323094">
        <ele>378.4161377</ele>
        <time>2010-05-03T11:06:04Z</time>
      </trkpt>
      <trkpt lat="35.2909095" lon="24.4323310">
        <ele>376.9742432</ele>
        <time>2010-05-03T11:06:12Z</time>
      </trkpt>
      <trkpt lat="35.2909752" lon="24.4322691">
        <ele>375.0515137</ele>
        <time>2010-05-03T11:06:21Z</time>
      </trkpt>
      <trkpt lat="35.2910168" lon="24.4322349">
        <ele>374.5708008</ele>
        <time>2010-05-03T11:06:29Z</time>
      </trkpt>
      <trkpt lat="35.2910306" lon="24.4322548">
        <ele>375.0515137</ele>
        <time>2010-05-03T11:06:33Z</time>
      </trkpt>
      <trkpt lat="35.2910277" lon="24.4322659">
        <ele>375.0515137</ele>
        <time>2010-05-03T11:06:41Z</time>
      </trkpt>
      <trkpt lat="35.2910308" lon="24.4322354">
        <ele>375.5321045</ele>
        <time>2010-05-03T11:06:50Z</time>
      </trkpt>
      <trkpt lat="35.2910742" lon="24.4321779">
        <ele>376.0128174</ele>
        <time>2010-05-03T11:06:58Z</time>
      </trkpt>
      <trkpt lat="35.2910839" lon="24.4321578">
        <ele>376.4935303</ele>
        <time>2010-05-03T11:07:04Z</time>
      </trkpt>
      <trkpt lat="35.2910810" lon="24.4321574">
        <ele>376.9742432</ele>
        <time>2010-05-03T11:07:18Z</time>
      </trkpt>
      <trkpt lat="35.2910819" lon="24.4321545">
        <ele>376.4935303</ele>
        <time>2010-05-03T11:07:25Z</time>
      </trkpt>
      <trkpt lat="35.2910857" lon="24.4321476">
        <ele>375.5321045</ele>
        <time>2010-05-03T11:07:36Z</time>
      </trkpt>
      <trkpt lat="35.2910899" lon="24.4321460">
        <ele>375.5321045</ele>
        <time>2010-05-03T11:07:40Z</time>
      </trkpt>
      <trkpt lat="35.2910880" lon="24.4321448">
        <ele>376.0128174</ele>
        <time>2010-05-03T11:07:47Z</time>
      </trkpt>
      <trkpt lat="35.2910889" lon="24.4321458">
        <ele>375.5321045</ele>
        <time>2010-05-03T11:08:12Z</time>
      </trkpt>
      <trkpt lat="35.2910898" lon="24.4321388">
        <ele>375.0515137</ele>
        <time>2010-05-03T11:08:22Z</time>
      </trkpt>
      <trkpt lat="35.2910852" lon="24.4321386">
        <ele>374.5708008</ele>
        <time>2010-05-03T11:08:30Z</time>
      </trkpt>
      <trkpt lat="35.2910805" lon="24.4321439">
        <ele>374.5708008</ele>
        <time>2010-05-03T11:08:44Z</time>
      </trkpt>
      <trkpt lat="35.2910897" lon="24.4321357">
        <ele>375.0515137</ele>
        <time>2010-05-03T11:09:06Z</time>
      </trkpt>
      <trkpt lat="35.2910878" lon="24.4321403">
        <ele>374.5708008</ele>
        <time>2010-05-03T11:09:15Z</time>
      </trkpt>
      <trkpt lat="35.2910894" lon="24.4321262">
        <ele>374.5708008</ele>
        <time>2010-05-03T11:09:46Z</time>
      </trkpt>
      <trkpt lat="35.2910743" lon="24.4320651">
        <ele>374.5708008</ele>
        <time>2010-05-03T11:09:53Z</time>
      </trkpt>
      <trkpt lat="35.2910510" lon="24.4319597">
        <ele>373.1289063</ele>
        <time>2010-05-03T11:10:03Z</time>
      </trkpt>
      <trkpt lat="35.2910658" lon="24.4318641">
        <ele>372.1674805</ele>
        <time>2010-05-03T11:10:11Z</time>
      </trkpt>
      <trkpt lat="35.2910888" lon="24.4318113">
        <ele>371.6868896</ele>
        <time>2010-05-03T11:10:16Z</time>
      </trkpt>
      <trkpt lat="35.2911157" lon="24.4316702">
        <ele>369.7642822</ele>
        <time>2010-05-03T11:10:26Z</time>
      </trkpt>
      <trkpt lat="35.2911006" lon="24.4315604">
        <ele>369.2836914</ele>
        <time>2010-05-03T11:10:34Z</time>
      </trkpt>
      <trkpt lat="35.2911132" lon="24.4314296">
        <ele>368.8029785</ele>
        <time>2010-05-03T11:10:43Z</time>
      </trkpt>
      <trkpt lat="35.2910929" lon="24.4312854">
        <ele>368.8029785</ele>
        <time>2010-05-03T11:10:53Z</time>
      </trkpt>
      <trkpt lat="35.2910737" lon="24.4311487">
        <ele>368.8029785</ele>
        <time>2010-05-03T11:11:03Z</time>
      </trkpt>
      <trkpt lat="35.2910732" lon="24.4311382">
        <ele>368.8029785</ele>
        <time>2010-05-03T11:11:04Z</time>
      </trkpt>
      <trkpt lat="35.2910722" lon="24.4310851">
        <ele>369.7642822</ele>
        <time>2010-05-03T11:11:12Z</time>
      </trkpt>
      <trkpt lat="35.2910795" lon="24.4310209">
        <ele>370.2448730</ele>
        <time>2010-05-03T11:11:20Z</time>
      </trkpt>
      <trkpt lat="35.2910939" lon="24.4309306">
        <ele>369.7642822</ele>
        <time>2010-05-03T11:11:28Z</time>
      </trkpt>
      <trkpt lat="35.2911181" lon="24.4308059">
        <ele>369.2836914</ele>
        <time>2010-05-03T11:11:39Z</time>
      </trkpt>
      <trkpt lat="35.2911375" lon="24.4306675">
        <ele>368.8029785</ele>
        <time>2010-05-03T11:11:50Z</time>
      </trkpt>
      <trkpt lat="35.2911494" lon="24.4305922">
        <ele>369.2836914</ele>
        <time>2010-05-03T11:11:56Z</time>
      </trkpt>
      <trkpt lat="35.2911696" lon="24.4305008">
        <ele>369.2836914</ele>
        <time>2010-05-03T11:12:05Z</time>
      </trkpt>
      <trkpt lat="35.2911774" lon="24.4304573">
        <ele>368.8029785</ele>
        <time>2010-05-03T11:12:11Z</time>
      </trkpt>
      <trkpt lat="35.2911779" lon="24.4304275">
        <ele>369.2836914</ele>
        <time>2010-05-03T11:12:19Z</time>
      </trkpt>
      <trkpt lat="35.2911888" lon="24.4303852">
        <ele>369.7642822</ele>
        <time>2010-05-03T11:12:25Z</time>
      </trkpt>
      <trkpt lat="35.2912316" lon="24.4302858">
        <ele>370.2448730</ele>
        <time>2010-05-03T11:12:34Z</time>
      </trkpt>
      <trkpt lat="35.2912443" lon="24.4302646">
        <ele>370.2448730</ele>
        <time>2010-05-03T11:12:36Z</time>
      </trkpt>
      <trkpt lat="35.2913336" lon="24.4301811">
        <ele>370.2448730</ele>
        <time>2010-05-03T11:12:46Z</time>
      </trkpt>
      <trkpt lat="35.2913809" lon="24.4301630">
        <ele>370.7255859</ele>
        <time>2010-05-03T11:12:51Z</time>
      </trkpt>
      <trkpt lat="35.2914503" lon="24.4301364">
        <ele>371.2062988</ele>
        <time>2010-05-03T11:12:58Z</time>
      </trkpt>
      <trkpt lat="35.2915320" lon="24.4300429">
        <ele>372.1674805</ele>
        <time>2010-05-03T11:13:09Z</time>
      </trkpt>
      <trkpt lat="35.2915988" lon="24.4299229">
        <ele>373.6094971</ele>
        <time>2010-05-03T11:13:20Z</time>
      </trkpt>
      <trkpt lat="35.2916566" lon="24.4298233">
        <ele>374.0900879</ele>
        <time>2010-05-03T11:13:29Z</time>
      </trkpt>
      <trkpt lat="35.2917130" lon="24.4296995">
        <ele>374.5708008</ele>
        <time>2010-05-03T11:13:39Z</time>
      </trkpt>
      <trkpt lat="35.2917751" lon="24.4295444">
        <ele>376.0128174</ele>
        <time>2010-05-03T11:13:51Z</time>
      </trkpt>
      <trkpt lat="35.2917970" lon="24.4294325">
        <ele>376.9742432</ele>
        <time>2010-05-03T11:13:59Z</time>
      </trkpt>
      <trkpt lat="35.2918301" lon="24.4292844">
        <ele>376.4935303</ele>
        <time>2010-05-03T11:14:10Z</time>
      </trkpt>
      <trkpt lat="35.2918539" lon="24.4292089">
        <ele>376.4935303</ele>
        <time>2010-05-03T11:14:19Z</time>
      </trkpt>
      <trkpt lat="35.2918755" lon="24.4291606">
        <ele>376.4935303</ele>
        <time>2010-05-03T11:14:26Z</time>
      </trkpt>
      <trkpt lat="35.2919186" lon="24.4290833">
        <ele>376.9742432</ele>
        <time>2010-05-03T11:14:33Z</time>
      </trkpt>
      <trkpt lat="35.2920072" lon="24.4289656">
        <ele>376.9742432</ele>
        <time>2010-05-03T11:14:45Z</time>
      </trkpt>
      <trkpt lat="35.2921165" lon="24.4289036">
        <ele>377.9354248</ele>
        <time>2010-05-03T11:14:56Z</time>
      </trkpt>
      <trkpt lat="35.2922046" lon="24.4288964">
        <ele>376.9742432</ele>
        <time>2010-05-03T11:15:05Z</time>
      </trkpt>
      <trkpt lat="35.2923222" lon="24.4289025">
        <ele>377.9354248</ele>
        <time>2010-05-03T11:15:17Z</time>
      </trkpt>
      <trkpt lat="35.2924190" lon="24.4289133">
        <ele>378.8968506</ele>
        <time>2010-05-03T11:15:27Z</time>
      </trkpt>
      <trkpt lat="35.2925442" lon="24.4289416">
        <ele>380.3387451</ele>
        <time>2010-05-03T11:15:38Z</time>
      </trkpt>
      <trkpt lat="35.2926516" lon="24.4289747">
        <ele>381.7806396</ele>
        <time>2010-05-03T11:15:48Z</time>
      </trkpt>
      <trkpt lat="35.2927356" lon="24.4289981">
        <ele>383.2226563</ele>
        <time>2010-05-03T11:15:56Z</time>
      </trkpt>
      <trkpt lat="35.2928527" lon="24.4289993">
        <ele>383.7032471</ele>
        <time>2010-05-03T11:16:06Z</time>
      </trkpt>
      <trkpt lat="35.2929449" lon="24.4290118">
        <ele>384.6647949</ele>
        <time>2010-05-03T11:16:14Z</time>
      </trkpt>
      <trkpt lat="35.2930592" lon="24.4290437">
        <ele>385.6259766</ele>
        <time>2010-05-03T11:16:23Z</time>
      </trkpt>
      <trkpt lat="35.2931715" lon="24.4290488">
        <ele>385.1453857</ele>
        <time>2010-05-03T11:16:33Z</time>
      </trkpt>
      <trkpt lat="35.2932598" lon="24.4290125">
        <ele>384.6647949</ele>
        <time>2010-05-03T11:16:41Z</time>
      </trkpt>
      <trkpt lat="35.2933178" lon="24.4289893">
        <ele>384.6647949</ele>
        <time>2010-05-03T11:16:47Z</time>
      </trkpt>
      <trkpt lat="35.2933664" lon="24.4289520">
        <ele>385.6259766</ele>
        <time>2010-05-03T11:16:52Z</time>
      </trkpt>
      <trkpt lat="35.2934535" lon="24.4288944">
        <ele>384.6647949</ele>
        <time>2010-05-03T11:17:01Z</time>
      </trkpt>
      <trkpt lat="35.2935263" lon="24.4288147">
        <ele>383.7032471</ele>
        <time>2010-05-03T11:17:10Z</time>
      </trkpt>
      <trkpt lat="35.2935787" lon="24.4287497">
        <ele>381.7806396</ele>
        <time>2010-05-03T11:17:17Z</time>
      </trkpt>
      <trkpt lat="35.2936432" lon="24.4286831">
        <ele>380.8194580</ele>
        <time>2010-05-03T11:17:24Z</time>
      </trkpt>
      <trkpt lat="35.2937498" lon="24.4286326">
        <ele>380.3387451</ele>
        <time>2010-05-03T11:17:33Z</time>
      </trkpt>
      <trkpt lat="35.2938021" lon="24.4286005">
        <ele>380.3387451</ele>
        <time>2010-05-03T11:17:38Z</time>
      </trkpt>
      <trkpt lat="35.2938460" lon="24.4285095">
        <ele>378.8968506</ele>
        <time>2010-05-03T11:17:46Z</time>
      </trkpt>
      <trkpt lat="35.2938628" lon="24.4283862">
        <ele>378.4161377</ele>
        <time>2010-05-03T11:17:54Z</time>
      </trkpt>
      <trkpt lat="35.2938891" lon="24.4282500">
        <ele>379.3774414</ele>
        <time>2010-05-03T11:18:03Z</time>
      </trkpt>
      <trkpt lat="35.2939201" lon="24.4281632">
        <ele>380.3387451</ele>
        <time>2010-05-03T11:18:09Z</time>
      </trkpt>
      <trkpt lat="35.2939757" lon="24.4280697">
        <ele>379.8580322</ele>
        <time>2010-05-03T11:18:17Z</time>
      </trkpt>
      <trkpt lat="35.2940886" lon="24.4279893">
        <ele>378.4161377</ele>
        <time>2010-05-03T11:18:28Z</time>
      </trkpt>
      <trkpt lat="35.2941723" lon="24.4279437">
        <ele>376.4935303</ele>
        <time>2010-05-03T11:18:37Z</time>
      </trkpt>
      <trkpt lat="35.2942469" lon="24.4279034">
        <ele>374.5708008</ele>
        <time>2010-05-03T11:18:45Z</time>
      </trkpt>
      <trkpt lat="35.2943323" lon="24.4278511">
        <ele>374.0900879</ele>
        <time>2010-05-03T11:18:53Z</time>
      </trkpt>
      <trkpt lat="35.2944386" lon="24.4278229">
        <ele>371.6868896</ele>
        <time>2010-05-03T11:19:03Z</time>
      </trkpt>
      <trkpt lat="35.2945440" lon="24.4278029">
        <ele>370.2448730</ele>
        <time>2010-05-03T11:19:13Z</time>
      </trkpt>
      <trkpt lat="35.2946564" lon="24.4277782">
        <ele>370.7255859</ele>
        <time>2010-05-03T11:19:23Z</time>
      </trkpt>
      <trkpt lat="35.2947043" lon="24.4276624">
        <ele>371.6868896</ele>
        <time>2010-05-03T11:19:32Z</time>
      </trkpt>
      <trkpt lat="35.2947169" lon="24.4275310">
        <ele>372.1674805</ele>
        <time>2010-05-03T11:19:41Z</time>
      </trkpt>
      <trkpt lat="35.2947320" lon="24.4273663">
        <ele>372.6481934</ele>
        <time>2010-05-03T11:19:52Z</time>
      </trkpt>
      <trkpt lat="35.2947532" lon="24.4272151">
        <ele>373.6094971</ele>
        <time>2010-05-03T11:20:02Z</time>
      </trkpt>
      <trkpt lat="35.2947879" lon="24.4270807">
        <ele>372.1674805</ele>
        <time>2010-05-03T11:20:13Z</time>
      </trkpt>
      <trkpt lat="35.2948309" lon="24.4269337">
        <ele>370.2448730</ele>
        <time>2010-05-03T11:20:25Z</time>
      </trkpt>
      <trkpt lat="35.2948525" lon="24.4268099">
        <ele>367.3609619</ele>
        <time>2010-05-03T11:20:35Z</time>
      </trkpt>
      <trkpt lat="35.2948833" lon="24.4266777">
        <ele>365.9189453</ele>
        <time>2010-05-03T11:20:45Z</time>
      </trkpt>
      <trkpt lat="35.2949432" lon="24.4265694">
        <ele>365.4383545</ele>
        <time>2010-05-03T11:20:54Z</time>
      </trkpt>
      <trkpt lat="35.2950104" lon="24.4264873">
        <ele>364.9576416</ele>
        <time>2010-05-03T11:21:02Z</time>
      </trkpt>
      <trkpt lat="35.2950923" lon="24.4263538">
        <ele>365.4383545</ele>
        <time>2010-05-03T11:21:14Z</time>
      </trkpt>
      <trkpt lat="35.2951371" lon="24.4262122">
        <ele>363.5157471</ele>
        <time>2010-05-03T11:21:25Z</time>
      </trkpt>
      <trkpt lat="35.2951525" lon="24.4261053">
        <ele>363.5157471</ele>
        <time>2010-05-03T11:21:32Z</time>
      </trkpt>
      <trkpt lat="35.2951786" lon="24.4259681">
        <ele>361.5931396</ele>
        <time>2010-05-03T11:21:43Z</time>
      </trkpt>
      <trkpt lat="35.2951742" lon="24.4258674">
        <ele>361.5931396</ele>
        <time>2010-05-03T11:21:50Z</time>
      </trkpt>
      <trkpt lat="35.2951767" lon="24.4258241">
        <ele>362.0737305</ele>
        <time>2010-05-03T11:21:57Z</time>
      </trkpt>
      <trkpt lat="35.2951728" lon="24.4257723">
        <ele>363.9963379</ele>
        <time>2010-05-03T11:22:10Z</time>
      </trkpt>
      <trkpt lat="35.2951899" lon="24.4256740">
        <ele>363.0350342</ele>
        <time>2010-05-03T11:22:17Z</time>
      </trkpt>
      <trkpt lat="35.2952053" lon="24.4255546">
        <ele>362.5543213</ele>
        <time>2010-05-03T11:22:25Z</time>
      </trkpt>
      <trkpt lat="35.2952127" lon="24.4255253">
        <ele>362.0737305</ele>
        <time>2010-05-03T11:22:27Z</time>
      </trkpt>
      <trkpt lat="35.2952173" lon="24.4254506">
        <ele>361.1124268</ele>
        <time>2010-05-03T11:22:33Z</time>
      </trkpt>
      <trkpt lat="35.2952132" lon="24.4254241">
        <ele>360.1511230</ele>
        <time>2010-05-03T11:22:35Z</time>
      </trkpt>
      <trkpt lat="35.2952111" lon="24.4252663">
        <ele>356.7863770</ele>
        <time>2010-05-03T11:22:46Z</time>
      </trkpt>
      <trkpt lat="35.2952171" lon="24.4251215">
        <ele>353.9025879</ele>
        <time>2010-05-03T11:22:56Z</time>
      </trkpt>
      <trkpt lat="35.2952374" lon="24.4250171">
        <ele>350.5378418</ele>
        <time>2010-05-03T11:23:04Z</time>
      </trkpt>
      <trkpt lat="35.2952427" lon="24.4248917">
        <ele>350.5378418</ele>
        <time>2010-05-03T11:23:12Z</time>
      </trkpt>
      <trkpt lat="35.2952609" lon="24.4248010">
        <ele>350.5378418</ele>
        <time>2010-05-03T11:23:18Z</time>
      </trkpt>
      <trkpt lat="35.2952760" lon="24.4247553">
        <ele>351.0184326</ele>
        <time>2010-05-03T11:23:22Z</time>
      </trkpt>
      <trkpt lat="35.2952945" lon="24.4246708">
        <ele>351.0184326</ele>
        <time>2010-05-03T11:23:29Z</time>
      </trkpt>
      <trkpt lat="35.2952893" lon="24.4246160">
        <ele>350.0572510</ele>
        <time>2010-05-03T11:23:33Z</time>
      </trkpt>
      <trkpt lat="35.2952733" lon="24.4244710">
        <ele>349.5765381</ele>
        <time>2010-05-03T11:23:43Z</time>
      </trkpt>
      <trkpt lat="35.2952146" lon="24.4243358">
        <ele>350.5378418</ele>
        <time>2010-05-03T11:23:53Z</time>
      </trkpt>
      <trkpt lat="35.2951459" lon="24.4242318">
        <ele>351.0184326</ele>
        <time>2010-05-03T11:24:02Z</time>
      </trkpt>
      <trkpt lat="35.2950827" lon="24.4241559">
        <ele>350.5378418</ele>
        <time>2010-05-03T11:24:10Z</time>
      </trkpt>
      <trkpt lat="35.2949977" lon="24.4241287">
        <ele>348.6152344</ele>
        <time>2010-05-03T11:24:18Z</time>
      </trkpt>
      <trkpt lat="35.2949183" lon="24.4241012">
        <ele>346.2120361</ele>
        <time>2010-05-03T11:24:26Z</time>
      </trkpt>
      <trkpt lat="35.2948514" lon="24.4240661">
        <ele>345.7313232</ele>
        <time>2010-05-03T11:24:33Z</time>
      </trkpt>
      <trkpt lat="35.2948025" lon="24.4239950">
        <ele>345.7313232</ele>
        <time>2010-05-03T11:24:42Z</time>
      </trkpt>
      <trkpt lat="35.2947913" lon="24.4239987">
        <ele>346.2120361</ele>
        <time>2010-05-03T11:24:48Z</time>
      </trkpt>
      <trkpt lat="35.2947895" lon="24.4239739">
        <ele>346.6926270</ele>
        <time>2010-05-03T11:24:53Z</time>
      </trkpt>
      <trkpt lat="35.2948004" lon="24.4239433">
        <ele>348.1346436</ele>
        <time>2010-05-03T11:24:59Z</time>
      </trkpt>
      <trkpt lat="35.2948334" lon="24.4238669">
        <ele>349.5765381</ele>
        <time>2010-05-03T11:25:07Z</time>
      </trkpt>
      <trkpt lat="35.2948550" lon="24.4237821">
        <ele>351.0184326</ele>
        <time>2010-05-03T11:25:15Z</time>
      </trkpt>
      <trkpt lat="35.2948686" lon="24.4237055">
        <ele>351.4991455</ele>
        <time>2010-05-03T11:25:23Z</time>
      </trkpt>
      <trkpt lat="35.2948529" lon="24.4236142">
        <ele>351.4991455</ele>
        <time>2010-05-03T11:25:32Z</time>
      </trkpt>
      <trkpt lat="35.2948142" lon="24.4234896">
        <ele>351.4991455</ele>
        <time>2010-05-03T11:25:42Z</time>
      </trkpt>
      <trkpt lat="35.2947743" lon="24.4233853">
        <ele>351.0184326</ele>
        <time>2010-05-03T11:25:51Z</time>
      </trkpt>
      <trkpt lat="35.2947721" lon="24.4232983">
        <ele>350.0572510</ele>
        <time>2010-05-03T11:25:58Z</time>
      </trkpt>
      <trkpt lat="35.2948143" lon="24.4231917">
        <ele>350.0572510</ele>
        <time>2010-05-03T11:26:07Z</time>
      </trkpt>
      <trkpt lat="35.2948816" lon="24.4231217">
        <ele>351.0184326</ele>
        <time>2010-05-03T11:26:17Z</time>
      </trkpt>
      <trkpt lat="35.2949133" lon="24.4230663">
        <ele>352.4605713</ele>
        <time>2010-05-03T11:26:24Z</time>
      </trkpt>
      <trkpt lat="35.2949538" lon="24.4230018">
        <ele>352.9411621</ele>
        <time>2010-05-03T11:26:32Z</time>
      </trkpt>
      <trkpt lat="35.2950250" lon="24.4229342">
        <ele>353.9025879</ele>
        <time>2010-05-03T11:26:42Z</time>
      </trkpt>
      <trkpt lat="35.2950887" lon="24.4228958">
        <ele>356.7863770</ele>
        <time>2010-05-03T11:26:50Z</time>
      </trkpt>
      <trkpt lat="35.2951454" lon="24.4228679">
        <ele>357.7478027</ele>
        <time>2010-05-03T11:26:57Z</time>
      </trkpt>
      <trkpt lat="35.2952269" lon="24.4228371">
        <ele>358.7089844</ele>
        <time>2010-05-03T11:27:07Z</time>
      </trkpt>
      <trkpt lat="35.2953059" lon="24.4228098">
        <ele>359.6704102</ele>
        <time>2010-05-03T11:27:17Z</time>
      </trkpt>
      <trkpt lat="35.2953479" lon="24.4227357">
        <ele>359.6704102</ele>
        <time>2010-05-03T11:27:25Z</time>
      </trkpt>
      <trkpt lat="35.2953930" lon="24.4226485">
        <ele>360.1511230</ele>
        <time>2010-05-03T11:27:34Z</time>
      </trkpt>
      <trkpt lat="35.2954467" lon="24.4225843">
        <ele>361.1124268</ele>
        <time>2010-05-03T11:27:43Z</time>
      </trkpt>
      <trkpt lat="35.2955145" lon="24.4225518">
        <ele>362.5543213</ele>
        <time>2010-05-03T11:27:51Z</time>
      </trkpt>
      <trkpt lat="35.2955929" lon="24.4224967">
        <ele>363.9963379</ele>
        <time>2010-05-03T11:28:01Z</time>
      </trkpt>
      <trkpt lat="35.2956577" lon="24.4224446">
        <ele>364.9576416</ele>
        <time>2010-05-03T11:28:10Z</time>
      </trkpt>
      <trkpt lat="35.2957037" lon="24.4223918">
        <ele>365.9189453</ele>
        <time>2010-05-03T11:28:18Z</time>
      </trkpt>
      <trkpt lat="35.2957124" lon="24.4223826">
        <ele>366.3995361</ele>
        <time>2010-05-03T11:28:27Z</time>
      </trkpt>
      <trkpt lat="35.2957079" lon="24.4223662">
        <ele>366.3995361</ele>
        <time>2010-05-03T11:28:34Z</time>
      </trkpt>
      <trkpt lat="35.2957047" lon="24.4223586">
        <ele>365.9189453</ele>
        <time>2010-05-03T11:28:40Z</time>
      </trkpt>
      <trkpt lat="35.2957063" lon="24.4223698">
        <ele>365.4383545</ele>
        <time>2010-05-03T11:28:56Z</time>
      </trkpt>
      <trkpt lat="35.2957286" lon="24.4223460">
        <ele>364.9576416</ele>
        <time>2010-05-03T11:29:11Z</time>
      </trkpt>
      <trkpt lat="35.2957745" lon="24.4222844">
        <ele>364.4769287</ele>
        <time>2010-05-03T11:29:18Z</time>
      </trkpt>
      <trkpt lat="35.2958214" lon="24.4222220">
        <ele>364.4769287</ele>
        <time>2010-05-03T11:29:25Z</time>
      </trkpt>
      <trkpt lat="35.2958672" lon="24.4221550">
        <ele>365.9189453</ele>
        <time>2010-05-03T11:29:32Z</time>
      </trkpt>
      <trkpt lat="35.2959046" lon="24.4220716">
        <ele>366.8802490</ele>
        <time>2010-05-03T11:29:40Z</time>
      </trkpt>
      <trkpt lat="35.2959261" lon="24.4219846">
        <ele>366.8802490</ele>
        <time>2010-05-03T11:29:49Z</time>
      </trkpt>
      <trkpt lat="35.2959682" lon="24.4218855">
        <ele>367.3609619</ele>
        <time>2010-05-03T11:29:58Z</time>
      </trkpt>
      <trkpt lat="35.2959954" lon="24.4218581">
        <ele>367.3609619</ele>
        <time>2010-05-03T11:30:05Z</time>
      </trkpt>
      <trkpt lat="35.2960084" lon="24.4218202">
        <ele>367.3609619</ele>
        <time>2010-05-03T11:30:13Z</time>
      </trkpt>
      <trkpt lat="35.2960198" lon="24.4217343">
        <ele>367.3609619</ele>
        <time>2010-05-03T11:30:21Z</time>
      </trkpt>
      <trkpt lat="35.2960297" lon="24.4216256">
        <ele>366.8802490</ele>
        <time>2010-05-03T11:30:30Z</time>
      </trkpt>
      <trkpt lat="35.2960359" lon="24.4215143">
        <ele>367.3609619</ele>
        <time>2010-05-03T11:30:39Z</time>
      </trkpt>
      <trkpt lat="35.2960346" lon="24.4214398">
        <ele>366.3995361</ele>
        <time>2010-05-03T11:30:46Z</time>
      </trkpt>
      <trkpt lat="35.2960420" lon="24.4213310">
        <ele>365.9189453</ele>
        <time>2010-05-03T11:30:55Z</time>
      </trkpt>
      <trkpt lat="35.2960538" lon="24.4212145">
        <ele>364.4769287</ele>
        <time>2010-05-03T11:31:04Z</time>
      </trkpt>
      <trkpt lat="35.2960829" lon="24.4210898">
        <ele>364.9576416</ele>
        <time>2010-05-03T11:31:14Z</time>
      </trkpt>
      <trkpt lat="35.2960999" lon="24.4209728">
        <ele>364.9576416</ele>
        <time>2010-05-03T11:31:24Z</time>
      </trkpt>
      <trkpt lat="35.2961309" lon="24.4208914">
        <ele>364.9576416</ele>
        <time>2010-05-03T11:31:32Z</time>
      </trkpt>
      <trkpt lat="35.2961866" lon="24.4208122">
        <ele>365.4383545</ele>
        <time>2010-05-03T11:31:41Z</time>
      </trkpt>
      <trkpt lat="35.2962454" lon="24.4207849">
        <ele>365.4383545</ele>
        <time>2010-05-03T11:31:49Z</time>
      </trkpt>
      <trkpt lat="35.2962590" lon="24.4207803">
        <ele>365.4383545</ele>
        <time>2010-05-03T11:31:56Z</time>
      </trkpt>
      <trkpt lat="35.2962709" lon="24.4207729">
        <ele>365.9189453</ele>
        <time>2010-05-03T11:32:17Z</time>
      </trkpt>
      <trkpt lat="35.2962726" lon="24.4207619">
        <ele>366.8802490</ele>
        <time>2010-05-03T11:32:26Z</time>
      </trkpt>
      <trkpt lat="35.2962699" lon="24.4207610">
        <ele>366.3995361</ele>
        <time>2010-05-03T11:32:38Z</time>
      </trkpt>
      <trkpt lat="35.2962855" lon="24.4207638">
        <ele>366.3995361</ele>
        <time>2010-05-03T11:32:44Z</time>
      </trkpt>
      <trkpt lat="35.2963370" lon="24.4208056">
        <ele>365.9189453</ele>
        <time>2010-05-03T11:32:53Z</time>
      </trkpt>
      <trkpt lat="35.2963580" lon="24.4208309">
        <ele>365.9189453</ele>
        <time>2010-05-03T11:32:59Z</time>
      </trkpt>
      <trkpt lat="35.2963985" lon="24.4208832">
        <ele>365.4383545</ele>
        <time>2010-05-03T11:33:05Z</time>
      </trkpt>
      <trkpt lat="35.2964538" lon="24.4209757">
        <ele>364.9576416</ele>
        <time>2010-05-03T11:33:15Z</time>
      </trkpt>
      <trkpt lat="35.2964791" lon="24.4210021">
        <ele>364.9576416</ele>
        <time>2010-05-03T11:33:22Z</time>
      </trkpt>
      <trkpt lat="35.2964776" lon="24.4210007">
        <ele>365.9189453</ele>
        <time>2010-05-03T11:33:36Z</time>
      </trkpt>
      <trkpt lat="35.2964769" lon="24.4210016">
        <ele>366.8802490</ele>
        <time>2010-05-03T11:34:05Z</time>
      </trkpt>
      <trkpt lat="35.2964730" lon="24.4210009">
        <ele>366.3995361</ele>
        <time>2010-05-03T11:34:20Z</time>
      </trkpt>
      <trkpt lat="35.2964745" lon="24.4210043">
        <ele>366.3995361</ele>
        <time>2010-05-03T11:34:47Z</time>
      </trkpt>
      <trkpt lat="35.2964906" lon="24.4209766">
        <ele>369.7642822</ele>
        <time>2010-05-03T11:35:43Z</time>
      </trkpt>
      <trkpt lat="35.2964862" lon="24.4209901">
        <ele>367.8415527</ele>
        <time>2010-05-03T11:35:59Z</time>
      </trkpt>
      <trkpt lat="35.2964876" lon="24.4209833">
        <ele>368.3222656</ele>
        <time>2010-05-03T11:36:39Z</time>
      </trkpt>
      <trkpt lat="35.2964836" lon="24.4209904">
        <ele>367.3609619</ele>
        <time>2010-05-03T11:36:54Z</time>
      </trkpt>
      <trkpt lat="35.2964798" lon="24.4209930">
        <ele>367.3609619</ele>
        <time>2010-05-03T11:37:08Z</time>
      </trkpt>
      <trkpt lat="35.2964844" lon="24.4209972">
        <ele>366.8802490</ele>
        <time>2010-05-03T11:37:17Z</time>
      </trkpt>
      <trkpt lat="35.2964941" lon="24.4210025">
        <ele>366.8802490</ele>
        <time>2010-05-03T11:37:32Z</time>
      </trkpt>
      <trkpt lat="35.2965119" lon="24.4210003">
        <ele>368.3222656</ele>
        <time>2010-05-03T11:37:54Z</time>
      </trkpt>
      <trkpt lat="35.2965362" lon="24.4210328">
        <ele>367.3609619</ele>
        <time>2010-05-03T11:38:01Z</time>
      </trkpt>
      <trkpt lat="35.2966004" lon="24.4210952">
        <ele>365.4383545</ele>
        <time>2010-05-03T11:38:11Z</time>
      </trkpt>
      <trkpt lat="35.2966776" lon="24.4211531">
        <ele>363.5157471</ele>
        <time>2010-05-03T11:38:22Z</time>
      </trkpt>
      <trkpt lat="35.2967170" lon="24.4211627">
        <ele>363.0350342</ele>
        <time>2010-05-03T11:38:28Z</time>
      </trkpt>
      <trkpt lat="35.2967278" lon="24.4211662">
        <ele>363.0350342</ele>
        <time>2010-05-03T11:38:29Z</time>
      </trkpt>
      <trkpt lat="35.2967694" lon="24.4211874">
        <ele>363.0350342</ele>
        <time>2010-05-03T11:38:33Z</time>
      </trkpt>
      <trkpt lat="35.2969015" lon="24.4212388">
        <ele>362.5543213</ele>
        <time>2010-05-03T11:38:46Z</time>
      </trkpt>
      <trkpt lat="35.2970040" lon="24.4212843">
        <ele>362.5543213</ele>
        <time>2010-05-03T11:38:56Z</time>
      </trkpt>
      <trkpt lat="35.2970980" lon="24.4213424">
        <ele>363.0350342</ele>
        <time>2010-05-03T11:39:06Z</time>
      </trkpt>
      <trkpt lat="35.2971552" lon="24.4213981">
        <ele>363.0350342</ele>
        <time>2010-05-03T11:39:13Z</time>
      </trkpt>
      <trkpt lat="35.2972236" lon="24.4214913">
        <ele>363.0350342</ele>
        <time>2010-05-03T11:39:23Z</time>
      </trkpt>
      <trkpt lat="35.2972993" lon="24.4215885">
        <ele>363.0350342</ele>
        <time>2010-05-03T11:39:33Z</time>
      </trkpt>
      <trkpt lat="35.2973738" lon="24.4216456">
        <ele>363.0350342</ele>
        <time>2010-05-03T11:39:41Z</time>
      </trkpt>
      <trkpt lat="35.2974986" lon="24.4217008">
        <ele>363.9963379</ele>
        <time>2010-05-03T11:39:53Z</time>
      </trkpt>
      <trkpt lat="35.2975810" lon="24.4217007">
        <ele>363.5157471</ele>
        <time>2010-05-03T11:40:01Z</time>
      </trkpt>
      <trkpt lat="35.2976991" lon="24.4216784">
        <ele>362.5543213</ele>
        <time>2010-05-03T11:40:11Z</time>
      </trkpt>
      <trkpt lat="35.2977928" lon="24.4216550">
        <ele>362.0737305</ele>
        <time>2010-05-03T11:40:19Z</time>
      </trkpt>
      <trkpt lat="35.2979486" lon="24.4216091">
        <ele>361.1124268</ele>
        <time>2010-05-03T11:40:32Z</time>
      </trkpt>
      <trkpt lat="35.2979841" lon="24.4216023">
        <ele>360.6317139</ele>
        <time>2010-05-03T11:40:35Z</time>
      </trkpt>
      <trkpt lat="35.2980652" lon="24.4215840">
        <ele>360.6317139</ele>
        <time>2010-05-03T11:40:42Z</time>
      </trkpt>
      <trkpt lat="35.2981927" lon="24.4215609">
        <ele>360.1511230</ele>
        <time>2010-05-03T11:40:52Z</time>
      </trkpt>
      <trkpt lat="35.2983128" lon="24.4215250">
        <ele>357.7478027</ele>
        <time>2010-05-03T11:41:02Z</time>
      </trkpt>
      <trkpt lat="35.2984547" lon="24.4214858">
        <ele>357.7478027</ele>
        <time>2010-05-03T11:41:13Z</time>
      </trkpt>
      <trkpt lat="35.2985843" lon="24.4214635">
        <ele>358.7089844</ele>
        <time>2010-05-03T11:41:23Z</time>
      </trkpt>
      <trkpt lat="35.2987360" lon="24.4214479">
        <ele>359.1896973</ele>
        <time>2010-05-03T11:41:35Z</time>
      </trkpt>
      <trkpt lat="35.2988247" lon="24.4214478">
        <ele>360.1511230</ele>
        <time>2010-05-03T11:41:42Z</time>
      </trkpt>
      <trkpt lat="35.2990054" lon="24.4214537">
        <ele>360.6317139</ele>
        <time>2010-05-03T11:41:56Z</time>
      </trkpt>
      <trkpt lat="35.2991550" lon="24.4214930">
        <ele>360.6317139</ele>
        <time>2010-05-03T11:42:09Z</time>
      </trkpt>
      <trkpt lat="35.2992582" lon="24.4215120">
        <ele>361.1124268</ele>
        <time>2010-05-03T11:42:19Z</time>
      </trkpt>
      <trkpt lat="35.2993749" lon="24.4215372">
        <ele>362.5543213</ele>
        <time>2010-05-03T11:42:30Z</time>
      </trkpt>
      <trkpt lat="35.2994826" lon="24.4215406">
        <ele>363.9963379</ele>
        <time>2010-05-03T11:42:41Z</time>
      </trkpt>
      <trkpt lat="35.2995728" lon="24.4215376">
        <ele>364.4769287</ele>
        <time>2010-05-03T11:42:50Z</time>
      </trkpt>
      <trkpt lat="35.2996801" lon="24.4215358">
        <ele>365.9189453</ele>
        <time>2010-05-03T11:43:00Z</time>
      </trkpt>
      <trkpt lat="35.2997857" lon="24.4215412">
        <ele>366.3995361</ele>
        <time>2010-05-03T11:43:10Z</time>
      </trkpt>
      <trkpt lat="35.2999038" lon="24.4215506">
        <ele>367.3609619</ele>
        <time>2010-05-03T11:43:21Z</time>
      </trkpt>
      <trkpt lat="35.3000312" lon="24.4215516">
        <ele>367.3609619</ele>
        <time>2010-05-03T11:43:34Z</time>
      </trkpt>
      <trkpt lat="35.3000958" lon="24.4215381">
        <ele>367.3609619</ele>
        <time>2010-05-03T11:43:41Z</time>
      </trkpt>
      <trkpt lat="35.3001705" lon="24.4215070">
        <ele>366.3995361</ele>
        <time>2010-05-03T11:43:51Z</time>
      </trkpt>
      <trkpt lat="35.3001839" lon="24.4215049">
        <ele>366.3995361</ele>
        <time>2010-05-03T11:43:53Z</time>
      </trkpt>
    </trkseg>
  </trk>

</gpx>
